[[{"header":{"parameterUnit":"m.s-1","parameterCategory":1,"la1":30.6,"la2":28.766,"lo1":-90.7593,"lo2":-88.6598,"dy":0.0162,"dx":0.0183,"nx":116,"ny":114,"refTime":"2023-05-28T12:00:00:Z","depth":0,"parameterNumber":2,"parameterNumberName":"U-component_of_WINDS"},"data":[0.0,0.0,0.0,0.0,0.0,0.0,0.0,0.0,0.0,0.0,0.0,0.0,0.0,0.0,0.0,0.0,0.0,0.0,0.0,0.0,0.0,0.0,0.0,0.0,0.0,0.0,0.0,0.0,0.0,0.0,0.0,0.0,0.0,0.0,0.0,0.0,0.0,0.0,0.0,0.0,0.0,0.0,0.0,0.0,0.0,0.0,0.0,0.0,0.0,0.0,0.0,0.0,0.0,0.0,0.0,0.0,0.0,0.0,0.0,0.0,0.0,0.0,0.0,0.0,0.0,0.0,0.0,0.0,0.0,0.0,0.0,0.0,0.0,0.0,0.0,0.0,0.0,0.0,0.0,0.0,0.0,0.0,0.0,0.0,0.0,0.0,0.0,0.0,0.0,0.0,0.0,0.0,0.0,0.0,0.0,0.0,0.0,0.0,0.0,0.0,0.0,0.0,0.0,0.0,0.0,0.0,0.0,0.0,0.0,0.0,0.0,0.0,0.0,0.0,0.0,0.0,0.0,0.0,0.0,0.0,0.0,0.0,0.0,0.0,0.0,0.0,0.0,0.0,0.0,0.0,0.0,0.0,0.0,0.0,0.0,0.0,0.0,0.0,0.0,0.0,0.0,0.0,0.0,0.0,0.0,0.0,0.0,0.0,0.0,0.0,0.0,0.0,0.0,0.0,0.0,0.0,0.0,0.0,0.0,0.0,0.0,0.0,0.0,0.0,0.0,0.0,0.0,0.0,0.0,0.0,0.0,0.0,0.0,0.0,0.0,0.0,0.0,0.0,0.0,0.0,0.0,0.0,0.0,0.0,0.0,0.0,0.0,0.0,0.0,0.0,0.0,0.0,0.0,0.0,0.0,0.0,0.0,0.0,0.0,0.0,0.0,0.0,0.0,0.0,0.0,0.0,0.0,0.0,0.0,0.0,0.0,0.0,0.0,0.0,0.0,0.0,0.0,0.0,0.0,0.0,0.0,0.0,0.0,0.0,0.0,0.0,0.0,0.0,0.0,0.0,0.0,0.0,0.0,0.0,0.0,0.0,0.0,0.0,0.0,0.0,0.0,0.0,0.0,0.0,0.0,0.0,0.0,0.0,0.0,0.0,0.0,0.0,0.0,0.0,0.0,0.0,0.0,0.0,0.0,0.0,0.0,0.0,0.0,0.0,0.0,0.0,0.0,0.0,0.0,0.0,0.0,0.0,0.0,0.0,0.0,0.0,0.0,0.0,0.0,0.0,0.0,0.0,0.0,0.0,0.0,0.0,0.0,0.0,0.0,0.0,0.0,0.0,0.0,0.0,0.0,0.0,0.0,0.0,0.0,0.0,0.0,0.0,0.0,0.0,0.0,0.0,0.0,0.0,0.0,0.0,0.0,0.0,0.0,0.0,0.0,0.0,0.0,0.0,0.0,0.0,0.0,0.0,0.0,0.0,0.0,0.0,0.0,0.0,0.0,0.0,0.0,0.0,0.0,0.0,0.0,0.0,0.0,0.0,0.0,0.0,0.0,0.0,0.0,0.0,0.0,0.0,0.0,0.0,0.0,0.0,0.0,0.0,0.0,0.0,0.0,0.0,0.0,0.0,0.0,0.0,0.0,0.0,0.0,0.0,0.0,0.0,0.0,0.0,0.0,0.0,0.0,0.0,0.0,0.0,0.0,0.0,0.0,0.0,0.0,0.0,0.0,0.0,0.0,0.0,0.0,0.0,0.0,0.0,0.0,0.0,0.0,0.0,0.0,0.0,0.0,0.0,0.0,0.0,0.0,0.0,0.0,0.0,0.0,0.0,0.0,0.0,0.0,0.0,0.0,0.0,0.0,0.0,0.0,0.0,0.0,0.0,0.0,0.0,0.0,0.0,0.0,0.0,0.0,0.0,0.0,0.0,0.0,0.0,0.0,0.0,0.0,0.0,0.0,0.0,0.0,0.0,0.0,0.0,0.0,0.0,0.0,0.0,0.0,0.0,0.0,0.0,0.0,0.0,0.0,0.0,0.0,0.0,0.0,0.0,0.0,0.0,0.0,0.0,0.0,0.0,0.0,0.0,0.0,0.0,0.0,0.0,0.0,0.0,0.0,0.0,0.0,0.0,0.0,0.0,0.0,0.0,0.0,0.0,0.0,0.0,0.0,0.0,0.0,0.0,0.0,0.0,0.0,0.0,0.0,0.0,0.0,0.0,0.0,0.0,0.0,0.0,0.0,0.0,0.0,0.0,0.0,0.0,0.0,0.0,0.0,0.0,0.0,0.0,0.0,0.0,0.0,0.0,0.0,0.0,0.0,0.0,0.0,0.0,0.0,0.0,0.0,0.0,0.0,0.0,0.0,0.0,0.0,0.0,0.0,0.0,0.0,0.0,0.0,0.0,0.0,0.0,0.0,0.0,0.0,0.0,0.0,0.0,0.0,0.0,0.0,0.0,0.0,0.0,0.0,0.0,0.0,0.0,0.0,0.0,0.0,0.0,0.0,0.0,0.0,0.0,0.0,0.0,0.0,0.0,0.0,0.0,0.0,0.0,0.0,0.0,0.0,0.0,0.0,0.0,0.0,0.0,0.0,0.0,0.0,0.0,0.0,0.0,0.0,0.0,0.0,0.0,0.0,0.0,0.0,0.0,0.0,0.0,0.0,0.0,0.0,0.0,0.0,0.0,0.0,0.0,0.0,0.0,0.0,0.0,0.0,0.0,0.0,0.0,0.0,0.0,0.0,0.0,0.0,0.0,0.0,0.0,0.0,0.0,0.0,0.0,0.0,0.0,0.0,0.0,0.0,0.0,0.0,0.0,0.0,0.0,0.0,0.0,0.0,0.0,0.0,0.0,0.0,0.0,0.0,0.0,0.0,0.0,0.0,0.0,0.0,0.0,0.0,0.0,0.0,0.0,0.0,0.0,0.0,0.0,0.0,0.0,0.0,0.0,0.0,0.0,0.0,0.0,0.0,0.0,0.0,0.0,0.0,0.0,0.0,0.0,0.0,0.0,0.0,0.0,0.0,0.0,0.0,0.0,0.0,0.0,0.0,0.0,0.0,0.0,0.0,0.0,0.0,0.0,0.0,0.0,0.0,0.0,0.0,0.0,0.0,0.0,0.0,0.0,0.0,0.0,0.0,0.0,0.0,0.0,0.0,0.0,0.0,0.0,0.0,0.0,0.0,0.0,0.0,0.0,0.0,0.0,0.0,0.0,0.0,0.0,0.0,0.0,0.0,0.0,0.0,0.0,0.0,0.0,0.0,0.0,0.0,0.0,0.0,0.0,0.0,0.0,0.0,0.0,0.0,0.0,0.0,0.0,0.0,0.0,0.0,0.0,0.0,0.0,0.0,0.0,0.0,0.0,0.0,0.0,0.0,0.0,0.0,0.0,0.0,0.0,0.0,0.0,0.0,0.0,0.0,0.0,0.0,0.0,0.0,0.0,0.0,0.0,0.0,0.0,0.0,0.0,0.0,0.0,0.0,0.0,0.0,0.0,0.0,0.0,0.0,0.0,0.0,0.0,0.0,0.0,0.0,0.0,0.0,0.0,0.0,0.0,0.0,0.0,0.0,0.0,0.0,0.0,0.0,0.0,0.0,0.0,0.0,0.0,0.0,0.0,0.0,0.0,0.0,0.0,0.0,0.0,0.0,0.0,0.0,0.0,0.0,0.0,0.0,0.0,0.0,0.0,0.0,0.0,0.0,0.0,0.0,0.0,0.0,0.0,0.0,0.0,0.0,0.0,0.0,0.0,0.0,0.0,0.0,0.0,0.0,0.0,0.0,0.0,0.0,0.0,0.0,0.0,0.0,0.0,0.0,0.0,0.0,0.0,0.0,0.0,0.0,0.0,0.0,0.0,0.0,0.0,0.0,0.0,0.0,0.0,0.0,0.0,0.0,0.0,0.0,0.0,0.0,0.0,0.0,0.0,0.0,0.0,0.0,0.0,0.0,0.0,0.0,0.0,0.0,0.0,0.0,0.0,0.0,0.0,0.0,0.0,0.0,0.0,0.0,0.0,0.0,0.0,0.0,0.0,0.0,0.0,0.0,0.0,0.0,0.0,0.0,0.0,0.0,0.0,0.0,0.0,0.0,0.0,0.0,0.0,0.0,0.0,0.0,0.0,0.0,0.0,0.0,0.0,0.0,0.0,0.0,0.0,0.0,0.0,0.0,0.0,0.0,0.0,0.0,0.0,0.0,0.0,0.0,0.0,0.0,0.0,0.0,0.0,0.0,0.0,0.0,0.0,0.0,0.0,0.0,0.0,0.0,0.0,0.0,0.0,0.0,0.0,0.0,0.0,0.0,0.0,0.0,0.0,0.0,0.0,0.0,0.0,0.0,0.0,0.0,0.0,0.0,0.0,0.0,0.0,0.0,0.0,0.0,0.0,0.0,0.0,0.0,0.0,0.0,0.0,0.0,0.0,0.0,0.0,0.0,0.0,0.0,0.0,0.0,0.0,0.0,0.0,0.0,0.0,0.0,0.0,0.0,0.0,0.0,0.0,0.0,0.0,0.0,0.0,0.0,0.0,0.0,0.0,0.0,0.0,0.0,0.0,0.0,0.0,0.0,0.0,0.0,0.0,0.0,0.0,0.0,0.0,0.0,0.0,0.0,0.0,0.0,0.0,0.0,0.0,0.0,0.0,0.0,0.0,0.0,0.0,0.0,0.0,0.0,0.0,0.0,0.0,0.0,0.0,0.0,0.0,0.0,0.0,0.0,0.0,0.0,0.0,0.0,0.0,0.0,0.0,0.0,0.0,0.0,0.0,0.0,0.0,0.0,0.0,0.0,0.0,0.0,0.0,0.0,0.0,0.0,0.0,0.0,0.0,0.0,0.0,0.0,0.0,0.0,0.0,0.0,0.0,0.0,0.0,0.0,0.0,0.0,0.0,0.0,0.0,0.0,0.0,0.0,0.0,0.0,0.0,0.0,0.0,0.0,0.0,0.0,0.0,0.0,0.0,0.0,0.0,0.0,0.0,0.0,0.0,0.0,0.0,0.0,0.0,0.0,0.0,0.0,0.0,0.0,0.0,0.0,0.0,0.0,0.0,0.0,0.0,0.0,0.0,0.0,0.0,0.0,0.0,0.0,0.0,0.0,0.0,0.0,0.0,0.0,0.0,0.0,0.0,0.0,0.0,0.0,0.0,0.0,0.0,0.0,0.0,0.0,0.0,0.0,0.0,0.0,0.0,0.0,0.0,0.0,0.0,0.0,0.0,0.0,0.0,0.0,0.0,0.0,0.0,0.0,0.0,0.0,0.0,0.0,0.0,0.0,0.0,0.0,0.0,0.0,0.0,0.0,0.0,0.0,0.0,0.0,0.0,0.0,0.0,0.0,0.0,0.0,0.0,0.0,0.0,0.0,0.0,0.0,0.0,0.0,0.0,0.0,0.0,0.0,0.0,0.0,0.0,0.0,0.0,0.0,0.0,0.0,0.0,0.0,0.0,0.0,0.0,0.0,0.0,0.0,0.0,0.0,0.0,0.0,0.0,0.0,0.0,0.0,0.0,0.0,0.0,0.0,0.0,0.0,0.0,0.0,0.0,0.0,0.0,0.0,0.0,0.0,0.0,0.0,0.0,0.0,0.0,0.0,0.0,0.0,0.0,0.0,0.0,0.0,0.0,0.0,0.0,0.0,0.0,0.0,0.0,0.0,0.0,0.0,0.0,0.0,0.0,0.0,0.0,0.0,0.0,0.0,0.0,0.0,0.0,0.0,0.0,0.0,0.0,0.0,0.0,0.0,0.0,0.0,0.0,0.0,0.0,0.0,0.0,0.0,0.0,0.0,0.0,0.0,0.0,0.0,0.0,0.0,0.0,0.0,0.0,0.0,0.0,0.0,0.0,0.0,0.0,0.0,0.0,0.0,0.0,0.0,0.0,0.0,0.0,0.0,0.0,0.0,0.0,0.0,0.0,0.0,0.0,0.0,0.0,0.0,0.0,0.0,0.0,0.0,0.0,0.0,0.0,0.0,0.0,0.0,0.0,0.0,0.0,0.0,0.0,0.0,0.0,0.0,0.0,0.0,0.0,0.0,0.0,0.0,0.0,0.0,0.0,0.0,0.0,0.0,0.0,0.0,0.0,0.0,0.0,0.0,0.0,0.0,0.0,0.0,0.0,0.0,0.0,0.0,0.0,-0.8283,0.0,0.0,0.0,0.0,0.0,0.0,0.0,0.0,0.0,0.0,0.0,0.0,0.0,0.0,0.0,0.0,0.0,0.0,0.0,0.0,0.0,0.0,0.0,0.0,0.0,0.0,0.0,0.0,0.0,0.0,0.0,0.0,0.0,0.0,0.0,0.0,0.0,0.0,0.0,-1.2289,-1.0775,-0.9213,-1.0373,-0.9928,-0.8105,0.0,0.0,0.0,0.0,0.0,0.0,0.0,0.0,0.0,0.0,0.0,0.0,0.0,0.0,0.0,0.0,0.0,0.0,0.0,0.0,0.0,0.0,0.0,0.0,0.0,0.0,0.0,0.0,0.0,0.0,0.0,0.0,0.0,0.0,0.0,0.0,0.0,0.0,0.0,0.0,0.0,0.0,0.0,0.0,0.0,0.0,0.0,0.0,0.0,0.0,0.0,0.0,0.0,0.0,0.0,0.0,0.0,0.0,0.0,0.0,0.0,0.0,0.0,0.0,0.0,0.0,0.0,0.0,0.0,0.0,0.0,-0.8405,0.0,0.0,0.0,0.0,0.0,0.0,0.0,0.0,0.0,0.0,0.0,0.0,0.0,0.0,0.0,0.0,0.0,0.0,0.0,0.0,0.0,0.0,0.0,0.0,0.0,0.0,0.0,0.0,0.0,0.0,0.0,0.0,0.0,0.0,0.0,-1.3123,-1.3754,-1.4008,-1.2478,-1.0821,-0.9026,-0.9026,-0.8443,-0.7365,-0.7299,0.0,0.0,0.0,0.0,0.0,0.0,0.0,0.0,0.0,0.0,0.0,0.0,0.0,0.0,0.0,0.0,0.0,0.0,0.0,0.0,0.0,0.0,0.0,0.0,0.0,0.0,0.0,0.0,0.0,0.0,0.0,0.0,0.0,0.0,0.0,0.0,0.0,0.0,0.0,0.0,0.0,0.0,0.0,0.0,0.0,0.0,0.0,0.0,0.0,0.0,0.0,0.0,0.0,0.0,0.0,0.0,0.0,0.0,0.0,0.0,0.0,0.0,0.0,-0.9038,-0.8961,-0.9066,-0.8894,-0.8856,-0.8906,-0.8739,-0.8649,-0.8649,-0.8649,0.0,0.0,0.0,0.0,0.0,0.0,0.0,0.0,0.0,0.0,0.0,0.0,0.0,0.0,0.0,0.0,0.0,0.0,0.0,0.0,0.0,-0.7321,-0.7432,-0.7432,-0.8478,-0.9196,0.0,0.0,0.0,0.0,0.0,0.0,-1.1015,-1.1276,-1.0967,-1.0047,-0.8912,-0.8192,-0.7914,-0.7914,-0.7814,-0.7649,-0.7527,-0.747,-0.747,0.0,0.0,0.0,0.0,0.0,0.0,0.0,0.0,0.0,0.0,0.0,0.0,0.0,0.0,0.0,0.0,0.0,0.0,0.0,0.0,0.0,0.0,0.0,0.0,0.0,0.0,0.0,0.0,0.0,0.0,0.0,0.0,0.0,0.0,0.0,0.0,0.0,0.0,0.0,0.0,0.0,-0.79,-0.8025,0.0,0.0,0.0,0.0,0.0,0.0,0.0,0.0,0.0,0.0,0.0,0.0,0.0,-1.0189,-1.033,-0.9808,-0.9594,-0.9704,-0.9163,-0.8923,-0.8939,-0.8887,-0.89,-0.8916,-0.8884,0.0,-0.887,-0.887,0.0,0.0,0.0,0.0,0.0,0.0,0.0,0.0,0.0,0.0,0.0,0.0,0.0,0.0,0.0,0.0,0.0,0.0,0.0,0.0,0.0,-0.7245,-0.7255,-0.7255,-0.7772,-0.841,-0.9082,0.0,0.0,0.0,0.0,-1.0598,-0.9978,-1.0643,-1.0468,-0.9402,-0.9254,-0.8696,-0.7826,-0.7826,-0.7826,-0.7826,-0.7741,-0.7644,-0.7489,-0.7489,0.0,0.0,0.0,0.0,0.0,0.0,0.0,0.0,0.0,0.0,0.0,0.0,0.0,0.0,0.0,0.0,0.0,0.0,0.0,0.0,0.0,0.0,0.0,0.0,0.0,0.0,0.0,0.0,0.0,0.0,0.0,0.0,0.0,0.0,0.0,0.0,0.0,0.0,0.0,-0.7837,-0.7946,-0.8072,-0.8036,-0.7998,0.0,0.0,0.0,0.0,0.0,0.0,0.0,0.0,0.0,-0.9905,-0.9784,-0.9691,-0.959,-0.9344,-0.9228,-0.9282,-0.9099,-0.9019,-0.9022,-0.9084,-0.9114,-0.9114,-0.9114,-0.9114,-0.9103,-0.8971,-0.8916,-0.8916,0.0,0.0,0.0,0.0,-0.8916,-0.8916,0.0,0.0,0.0,0.0,0.0,0.0,0.0,0.0,0.0,0.0,0.0,0.0,-0.7201,-0.7309,-0.7354,-0.7354,-0.7438,-0.7895,-0.8787,-0.8842,0.0,0.0,-0.9685,-0.9764,-0.8897,-0.9741,-0.9847,-0.9081,-0.9482,-0.9079,-0.7903,-0.7903,-0.7903,-0.7903,-0.7903,-0.7804,-0.7608,-0.7608,-0.7608,-0.7614,0.0,0.0,0.0,0.0,0.0,0.0,0.0,0.0,0.0,0.0,0.0,0.0,0.0,0.0,0.0,0.0,0.0,0.0,0.0,0.0,0.0,0.0,0.0,0.0,0.0,0.0,0.0,0.0,0.0,0.0,0.0,0.0,0.0,0.0,0.0,0.0,0.0,-0.8003,-0.7918,-0.7657,-0.7954,-0.7983,0.0,0.0,0.0,0.0,0.0,0.0,-0.9256,-0.9611,-0.9784,-0.9689,-0.9551,-0.9388,-0.9239,-0.9137,-0.9116,-0.9146,-0.9169,-0.9144,-0.9147,-0.9266,-0.9304,-0.9304,-0.9304,-0.9304,-0.9291,-0.9079,-0.9006,-0.9006,-0.9006,-0.9006,-0.9006,-0.9006,-0.9006,-0.9006,0.0,0.0,0.0,0.0,0.0,0.0,0.0,0.0,0.0,0.0,0.0,-0.6035,-0.7183,-0.7405,-0.7479,-0.7479,-0.7484,-0.7519,-0.7577,-0.7606,-0.7606,-0.7606,-0.7775,-0.7839,-0.7779,-0.7947,-0.8036,-0.7983,-0.8019,-0.7991,-0.7903,-0.7903,-0.7903,-0.7903,-0.7903,-0.7894,-0.7883,-0.7883,-0.7883,-0.7875,-0.7741,0.0,0.0,0.0,0.0,0.0,0.0,0.0,0.0,0.0,0.0,0.0,0.0,0.0,0.0,0.0,0.0,0.0,0.0,0.0,0.0,0.0,0.0,0.0,0.0,0.0,0.0,0.0,0.0,0.0,0.0,0.0,0.0,0.0,0.0,0.0,0.0,0.0,0.0,-0.6555,-0.7576,0.0,0.0,0.0,0.0,-0.8193,-0.8339,-0.865,-0.9091,-0.9254,-0.9521,-0.9962,-0.9974,-1.0009,-1.0145,-0.983,-0.9711,-0.9862,-0.9471,-0.9296,-0.9296,-0.9302,-0.9304,-0.9304,-0.9304,-0.9304,-0.9302,-0.9291,-0.9285,-0.9285,-0.9285,-0.9285,-0.9285,-0.9285,-0.9285,-0.9285,0.0,0.0,0.0,0.0,0.0,0.0,0.0,0.0,0.0,-0.4172,-0.4255,-0.4746,-0.6016,-0.6257,-0.6677,-0.7547,-0.7703,-0.7744,-0.7744,-0.7744,-0.7744,-0.7744,-0.7818,-0.784,-0.784,-0.7881,-0.7903,-0.7903,-0.7903,-0.7903,-0.7903,-0.7903,-0.7903,-0.7903,-0.7903,-0.7903,-0.7903,-0.7903,-0.7903,-0.7897,-0.7859,-0.784,0.0,0.0,0.0,0.0,0.0,0.0,0.0,0.0,0.0,0.0,0.0,0.0,0.0,0.0,0.0,0.0,0.0,0.0,0.0,0.0,0.0,0.0,0.0,0.0,0.0,0.0,0.0,0.0,0.0,0.0,0.0,0.0,0.0,0.0,0.0,0.0,0.0,-0.7592,-0.8042,0.0,-0.759,-0.8101,-0.8462,-0.8462,-0.8848,-0.9186,-0.9365,-0.9697,-0.9858,-0.9803,-0.988,-0.9838,-0.9636,-0.9493,-0.9479,-0.9518,-0.9377,-0.9304,-0.9304,-0.9304,-0.9304,-0.9304,-0.9304,-0.9304,-0.9304,-0.9304,-0.9304,-0.9304,-0.9304,-0.9304,-0.9304,-0.9304,-0.9304,-0.9304,0.0,0.0,0.0,0.0,0.0,0.0,0.0,0.0,0.0,-0.2944,-0.3023,-0.3541,-0.4786,-0.543,-0.612,-0.7002,-0.7583,-0.7903,-0.7903,-0.7903,-0.7903,-0.7903,-0.7903,-0.7903,-0.7903,-0.7903,-0.7903,-0.7903,-0.7903,-0.7903,-0.7903,-0.7903,-0.7903,-0.7903,-0.7903,-0.7903,-0.7903,-0.7903,-0.7903,-0.7903,-0.7903,-0.7625,-0.7279,0.0,0.0,0.0,0.0,0.0,0.0,0.0,0.0,0.0,0.0,0.0,0.0,0.0,0.0,0.0,0.0,0.0,0.0,0.0,0.0,0.0,0.0,0.0,0.0,0.0,0.0,0.0,0.0,0.0,0.0,0.0,0.0,0.0,0.0,-0.7736,-0.819,-0.7622,-0.814,-0.8305,-0.7732,-0.8292,-0.847,-0.7958,-0.8334,-0.8583,-0.8583,-0.894,-0.9256,-0.9547,-0.9659,-0.9557,-0.9304,-0.9304,-0.9304,-0.9304,-0.9304,-0.9304,-0.9304,-0.9304,-0.9304,-0.9304,-0.9304,-0.9304,-0.9304,-0.9304,-0.9304,-0.9304,-0.9304,-0.9304,-0.9304,-0.9304,-0.9304,-0.9304,0.0,0.0,0.0,0.0,0.0,0.0,0.0,0.0,-0.0434,-0.1586,-0.185,-0.2408,-0.3609,-0.4968,-0.5784,-0.5845,-0.7011,-0.7778,-0.7841,-0.7808,-0.7808,-0.7841,-0.7841,-0.7869,-0.7903,-0.7903,-0.7903,-0.7903,-0.7903,-0.7903,-0.7903,-0.7903,-0.7903,-0.7903,-0.7903,-0.7903,-0.7903,-0.7869,-0.7841,-0.7841,-0.7841,-0.7041,-0.5968,0.0,0.0,0.0,0.0,0.0,0.0,0.0,0.0,0.0,0.0,0.0,0.0,0.0,0.0,0.0,0.0,0.0,0.0,0.0,0.0,0.0,0.0,0.0,0.0,0.0,0.0,0.0,0.0,0.0,0.0,0.0,0.0,0.0,-0.8164,-0.8286,-0.79,-0.6548,-0.7787,-0.8159,-0.6755,-0.7914,-0.8149,-0.6639,-0.6653,-0.6739,-0.6739,-0.6859,-0.7632,-0.9193,-0.9232,-0.9266,-0.9304,-0.9307,-0.931,-0.931,-0.9313,-0.9315,-0.9315,-0.9315,-0.9315,-0.9315,-0.9315,-0.9315,-0.9315,-0.9315,-0.9313,-0.931,-0.9304,-0.9304,-0.9304,-0.9304,-0.9304,-0.9304,0.0,0.0,0.0,0.0,0.0,0.0,0.0,0.0115,-0.0116,-0.0448,-0.0541,-0.1059,-0.2354,-0.2827,-0.3448,-0.4367,-0.4797,-0.5412,-0.6396,-0.5535,-0.5443,-0.6399,-0.646,-0.6919,-0.7869,-0.7903,-0.7903,-0.7903,-0.7903,-0.7903,-0.7903,-0.7903,-0.7903,-0.7903,-0.7903,-0.7903,-0.7841,-0.6858,-0.646,-0.646,-0.646,-0.5659,-0.449,0.0,0.0,0.0,0.0,0.0,0.0,0.0,0.0,0.0,0.0,0.0,0.0,0.0,0.0,0.0,0.0,0.0,0.0,0.0,0.0,0.0,0.0,0.0,0.0,0.0,0.0,0.0,0.0,0.0,0.0,0.0,-0.5836,-0.71,-0.7037,-0.7992,-0.8569,-0.8208,-0.761,-0.7053,-0.6635,-0.605,-0.5532,-0.5107,-0.5206,-0.5282,-0.5282,-0.5299,-0.6036,-0.7596,-0.7634,-0.8177,-0.9304,-0.9391,-0.9435,-0.9438,-0.9527,-0.9608,-0.9608,-0.9608,-0.9608,-0.9608,-0.9608,-0.9608,-0.9608,-0.9608,-0.9516,-0.9427,-0.934,-0.9304,-0.9304,-0.9304,-0.9304,-0.9304,0.0,0.0,0.0,0.0,0.0,0.0,0.0,0.0497,0.0414,0.0425,0.0426,0.0122,-0.0647,-0.1233,-0.194,-0.283,-0.3383,-0.409,-0.5013,-0.4337,-0.4244,-0.5013,-0.5075,-0.5412,-0.6208,-0.6764,-0.7072,-0.7072,-0.7625,-0.7903,-0.7903,-0.7903,-0.7903,-0.7869,-0.7319,-0.7072,-0.698,-0.5628,-0.4768,-0.4281,-0.4275,-0.3806,-0.317,-0.3692,-0.3582,-0.3106,-0.3106,-0.3105,-0.3108,-0.3113,0.0,0.0,0.0,0.0,0.0,0.0,0.0,0.0,0.0,0.0,0.0,0.0,0.0,0.0,0.0,0.0,0.0,0.0,0.0,0.0,0.0,0.0,0.0,0.0,-0.5089,-0.5884,-0.6572,-0.7381,-0.7895,-0.7926,-0.6636,-0.5708,-0.5708,-0.5031,-0.4316,-0.3633,-0.3659,-0.3711,-0.3711,-0.3711,-0.4412,-0.597,-0.6045,-0.6793,-0.8416,-0.8516,-0.8887,-0.9603,-0.9673,-0.9706,-0.9706,-0.9706,-0.9706,0.0,-0.9706,-0.9706,-0.9706,-0.9706,-0.9665,0.0,0.0,0.0,0.0,0.0,-0.8904,-0.8321,0.0,0.0,0.0,0.0,0.0,0.0,0.0,0.0984,0.0999,0.0986,0.0988,0.0988,0.0988,-0.0062,-0.0892,-0.12,-0.2245,-0.3044,-0.3383,-0.3569,-0.3692,-0.3692,-0.3692,-0.3753,-0.3905,-0.5075,-0.5665,-0.5675,-0.6874,-0.7434,-0.7447,-0.7447,-0.7447,-0.7385,-0.6214,-0.5688,-0.5596,-0.4266,-0.3032,-0.1985,-0.1822,-0.1784,-0.1886,-0.303,-0.2745,-0.1768,-0.1768,-0.1785,-0.1774,-0.1772,0.0,0.0,0.0,0.0,0.0,0.0,0.0,0.0,0.0,0.0,0.0,0.0,0.0,0.0,0.0,0.0,0.0,0.0,0.0,0.0,0.0,0.0,0.0,0.0,-0.4273,-0.4855,-0.6333,-0.6287,-0.6174,-0.6351,-0.5109,-0.4255,-0.4255,-0.4192,-0.3567,-0.2148,-0.2039,-0.2039,-0.2039,0.0,0.0,0.0,0.0,-0.5238,-0.6911,-0.6931,-0.7659,-0.9141,-0.9164,-0.9255,-0.9443,-0.9443,-0.9559,-0.9747,-0.9747,-0.9747,-0.9747,-0.9747,-0.9739,-0.9714,-0.9555,-0.944,-0.9309,-0.9125,-0.8212,-0.7009,0.0,0.0,0.0,0.0,0.0,0.0,0.0,0.1093,0.0927,0.0984,0.0988,0.0988,0.0988,0.0771,0.0586,0.0524,0.0278,0.0,-0.0339,-0.1602,-0.2372,-0.2372,-0.2372,-0.2833,-0.3875,-0.4152,-0.4302,-0.4291,-0.4541,-0.4663,-0.4688,-0.4688,-0.4688,-0.4656,-0.4402,-0.4274,-0.4211,-0.2903,-0.2234,-0.1916,-0.0834,-0.0382,-0.0409,-0.0669,-0.0609,-0.0386,-0.0386,-0.0389,-0.0393,-0.0389,-0.0391,-0.046,-0.068,-0.0587,0.0,0.0,0.0,0.0,0.0,0.0,0.0,0.0,0.0,0.0,0.0,0.0,0.0,0.0,0.0,0.0,0.0,0.0,0.0,-0.2501,-0.3624,-0.4587,-0.4884,-0.3914,-0.3609,-0.491,-0.3691,-0.2719,-0.2719,-0.1637,-0.0766,-0.0474,-0.0438,-0.0438,-0.0438,-0.0438,-0.1167,-0.2702,-0.2775,-0.3546,-0.5166,-0.5233,-0.5434,-0.5738,0.0,0.0,-0.7931,-0.7931,-0.8668,-0.9954,-0.9954,-0.9954,-0.9954,-0.9954,-0.9894,-0.9756,-0.968,-0.9657,-0.9446,-0.8092,-0.7414,-0.6966,0.0,0.0,0.0,0.0,0.0,0.0,0.0,0.1531,0.1456,0.151,0.1513,0.1513,0.1513,0.1513,0.142,0.1266,0.1111,0.0926,0.0772,-0.0031,-0.0493,-0.0493,-0.0493,-0.0802,-0.1447,-0.2277,-0.2696,-0.2706,-0.3493,-0.39,-0.3892,-0.3892,-0.3892,-0.386,-0.325,-0.296,-0.2864,-0.1547,-0.0999,-0.0935,-0.026,0.0,0.0,0.0,0.0,0.0,0.0,0.0,0.0,0.0,0.0,0.0,0.0,0.0,0.0,0.0,0.0,0.0,0.0,0.0,0.0,0.0,0.0,0.0,0.0,0.0,0.0,0.0,0.0,0.0,0.0,0.0,-0.131,-0.2086,-0.2217,-0.2524,-0.3279,-0.2103,-0.1748,-0.3311,-0.2112,-0.1166,-0.1166,-0.0438,0.0,0.0,0.0,0.0,0.0,0.0,-0.037,-0.1124,-0.1162,-0.1953,-0.3589,-0.3631,-0.4076,-0.4885,-0.4984,-0.5444,-0.6264,-0.6264,-0.6694,-0.7515,-0.7515,-0.7515,-0.7554,-0.8414,-0.8697,-0.8642,-0.8595,-0.8547,-0.834,-0.7507,-0.6149,-0.4643,0.0,0.0,0.0,0.0,0.0,0.0,0.0,0.0,0.197,0.2007,0.2008,0.2008,0.2008,0.2008,0.1884,0.1606,0.1297,0.1111,0.1111,0.105,0.0988,0.0988,0.0988,0.0988,0.0988,-0.0308,-0.1024,-0.1008,-0.2304,-0.2962,-0.2941,-0.2949,-0.292,-0.2888,-0.185,-0.1396,-0.1332,-0.026,0.0228,0.0228,0.0198,0.0198,0.0198,0.0229,0.0131,0.0,0.0,0.0,0.0,0.0067,0.0101,0.0101,0.0202,0.0202,0.0202,0.0135,0.0101,0.0,0.0,0.0,0.0,0.0,0.0,0.0,0.0,0.0237,0.0207,0.0138,0.0105,0.0106,0.0,0.0,-0.0395,-0.1649,-0.0796,-0.0438,-0.1675,-0.0766,-0.0474,-0.1712,-0.0766,0.0,0.0,0.0,0.0,0.0,0.0,0.0,0.0,0.0,0.0,0.0,0.0,-0.0656,-0.1985,-0.2028,-0.2694,-0.4021,-0.4031,-0.4191,-0.4504,-0.4504,-0.47,-0.5014,-0.5014,-0.5014,-0.5092,-0.646,-0.7006,-0.7006,-0.7006,-0.6729,-0.6306,-0.6306,-0.46,-0.2285,0.0,0.0,0.0,0.0,0.0,0.0,0.0,0.0,0.0,0.2004,0.2008,0.2008,0.2008,0.2008,0.1977,0.1946,0.1637,0.1451,0.1451,0.1173,0.0988,0.0988,0.0988,0.0988,0.0988,0.0803,0.0715,0.0726,0.0543,0.0453,0.046,0.0499,0.0536,0.0536,0.0703,0.0737,0.077,0.0905,0.0972,0.0972,0.0973,0.0974,0.0973,0.0972,0.057,0.0,0.0,0.0,0.0034,0.0337,0.0437,0.0505,0.0875,0.0976,0.0909,0.0538,0.0437,0.0437,0.0437,0.0707,0.0976,0.0974,0.0983,0.0992,0.0,0.1039,0.098,0.0595,0.053,0.0428,0.0071,0.0,-0.0073,-0.0218,-0.0109,-0.0073,-0.0219,-0.0109,-0.0073,-0.0219,-0.0109,0.0,0.0,0.0,0.0,0.0,0.0,0.0,0.0,0.0,0.0,0.0,0.0,-0.0076,-0.0266,-0.0269,-0.0386,-0.0541,-0.0547,-0.1334,-0.2781,-0.2781,-0.3604,-0.5014,-0.5014,-0.5014,-0.5014,-0.5209,-0.5287,-0.5287,-0.5287,-0.4339,-0.3043,-0.3043,-0.2809,-0.2264,0.0,0.0,0.0,0.0,0.0,0.0,0.0,0.0,0.0,0.0,0.3603,0.3112,0.3112,0.2437,0.2008,0.2008,0.1884,0.1791,0.1791,0.1667,0.1575,0.1575,0.1575,0.1575,0.1575,0.139,0.1306,0.1294,0.1088,0.1007,0.0989,0.107,0.1111,0.1111,0.1111,0.1111,0.1111,0.1111,0.1111,0.1111,0.1111,0.1111,0.1111,0.1111,0.0909,0.0639,0.0639,0.0639,0.0,0.0808,0.0841,0.0875,0.1043,0.1111,0.1077,0.0909,0.0846,0.0853,0.0895,0.1034,0.1172,0.1172,0.1143,0.1148,0.1148,0.1195,0.11,0.0674,0.061,0.0471,0.0072,0.0,0.0,0.0,0.0,0.0,0.0,0.0,0.0,0.0,0.0,0.0,0.0,0.0,0.0,0.0,0.0,0.0,0.0,0.0,0.0,0.0,0.0,0.0,0.0,0.0,0.0,0.0,0.0,-0.0353,-0.1059,-0.1059,-0.1412,-0.2078,-0.2078,-0.2626,-0.3565,-0.3565,-0.3565,-0.3565,-0.3565,-0.239,-0.0824,-0.2038,-0.1725,-0.0588,0.0,0.0,0.0,0.0,0.0,0.0,0.0,0.0,0.0,0.0,0.0,0.4456,0.4456,0.3633,0.2929,0.256,0.253,0.2376,0.2038,0.2008,0.2008,0.2008,0.2008,0.2008,0.2008,0.176,0.1645,0.1631,0.14,0.1291,0.1311,0.1363,0.1375,0.1414,0.1414,0.1414,0.1414,0.1414,0.1414,0.1414,0.1414,0.1414,0.1414,0.1414,0.1414,0.138,0.1178,0.1111,0.0,0.1212,0.1245,0.1245,0.138,0.1417,0.1388,0.1286,0.1265,0.1282,0.1329,0.1403,0.1473,0.1473,0.1477,0.1517,0.1517,0.1496,0.1402,0.1007,0.0942,0.0803,0.0401,0.0255,0.0219,0.0328,0.0146,0.0036,0.0146,0.0073,0.0,0.0,0.0,0.0,0.0,0.0,0.0,0.0,0.0,0.0,0.0,0.0,0.0,0.0,0.0,0.0,0.0,0.0,0.0,0.0,0.0,0.0,0.0,0.0,0.0,0.0,0.0,-0.0706,-0.1803,-0.1686,-0.1646,-0.1646,-0.149,-0.0549,0.0628,-0.0902,-0.051,0.0786,0.0,0.0,0.0,0.0,0.0,0.0,0.0,0.0,0.0,0.0,0.0,0.0,0.0,0.5804,0.5253,0.3968,0.3845,0.3325,0.2069,0.2008,0.2008,0.2008,0.2008,0.2008,0.2008,0.1977,0.1977,0.1978,0.1975,0.2004,0.2066,0.2063,0.2093,0.2155,0.2155,0.2155,0.2155,0.2155,0.2155,0.2155,0.2155,0.2155,0.2155,0.2155,0.2155,0.2087,0.1346,0.0,0.1144,0.1481,0.1582,0.1649,0.2054,0.2175,0.2095,0.1786,0.1665,0.1683,0.1684,0.193,0.2175,0.2175,0.2232,0.2254,0.2254,0.2275,0.2186,0.1821,0.1749,0.164,0.124,0.0839,0.0693,0.1095,0.0511,0.0146,0.0511,0.0258,0.0,0.0,0.0,0.0,0.0,0.0,0.0,0.0,0.0,0.0,0.0,0.0,0.0,0.0,0.0,0.0,0.0,0.0,0.0,0.0,0.0,0.0,0.0,0.0,0.0,0.0,0.0,-0.0039,-0.0039,0.0353,0.051,0.055,0.1021,0.1218,0.1257,0.1218,0.1218,0.1296,0.0,0.0,0.0,0.0,0.0,0.0,0.0,0.0,0.0,0.0,0.0,0.0,0.0,0.0,0.0,0.0,0.5343,0.504,0.4613,0.3756,0.3265,0.3265,0.2437,0.2008,0.2008,0.2008,0.2008,0.2008,0.2005,0.2024,0.2035,0.2086,0.2115,0.2125,0.2179,0.2188,0.2188,0.2188,0.2188,0.2188,0.2188,0.2188,0.2188,0.2188,0.2188,0.2155,0.0,0.0,0.1851,0.1953,0.1998,0.2014,0.2151,0.2206,0.2199,0.2113,0.209,0.2101,0.2082,0.2195,0.2267,0.2267,0.2275,0.2283,0.2283,0.2289,0.2187,0.1858,0.1785,0.1677,0.1277,0.1095,0.1058,0.1168,0.0955,0.0849,0.0997,0.0933,0.0866,0.0866,0.0875,0.0843,0.0882,0.0345,0.0,0.0,0.0,0.0,0.0,0.0,0.0118,0.0393,0.0393,0.055,0.0864,0.0864,0.0864,0.0864,0.055,0.0393,0.0393,0.0393,0.0393,0.0432,0.0746,0.0864,0.0864,0.1021,0.106,0.106,0.1257,0.1453,0.1689,0.1689,0.1886,0.2043,0.0,0.0,0.0,0.0,0.0,0.0,0.0,0.0,0.0,0.0,0.0,0.0,0.0,0.0,0.0,0.0,0.0,0.6766,0.6342,0.5483,0.4989,0.5046,0.4227,0.3758,0.3758,0.3758,0.3758,0.3758,0.3761,0.3694,0.3557,0.3627,0.3615,0.3555,0.3092,0.2913,0.2927,0.2423,0.2188,0.2188,0.2188,0.2188,0.2188,0.2188,0.2188,0.0,0.0,0.2195,0.2205,0.2205,0.2191,0.2216,0.2216,0.2202,0.2232,0.2297,0.2306,0.2309,0.2291,0.2296,0.2296,0.2296,0.2296,0.2296,0.2296,0.2296,0.2223,0.2041,0.1968,0.1895,0.1641,0.1495,0.1459,0.1568,0.1364,0.1263,0.1411,0.1357,0.1295,0.1295,0.131,0.1281,0.1281,0.0776,0.0466,0.0466,0.0469,0.0471,0.0471,0.0471,0.0589,0.0825,0.0864,0.0982,0.1296,0.1296,0.1296,0.1296,0.0982,0.0864,0.0864,0.0864,0.0864,0.0864,0.1178,0.1296,0.1296,0.1453,0.1532,0.1532,0.1689,0.1886,0.2121,0.2121,0.2278,0.2475,0.0,0.0,0.0,0.0,0.0,0.0,0.0,0.0,0.0,0.0,0.0,0.0,0.0,0.0,0.0,0.0,0.0,0.0,0.737,0.7126,0.708,0.7209,0.7026,0.6912,0.6907,0.6907,0.6907,0.6907,0.6907,0.674,0.6427,0.6435,0.6383,0.62,0.4866,0.4345,0.4367,0.3026,0.2457,0.2457,0.2457,0.2389,0.2323,0.2323,0.2256,0.0,0.2188,0.2209,0.2202,0.2201,0.2185,0.2211,0.2212,0.2232,0.2296,0.2288,0.2296,0.2296,0.2296,0.2296,0.2296,0.2296,0.2296,0.2296,0.2296,0.2296,0.2296,0.2296,0.2296,0.2296,0.2296,0.2041,0.1932,0.226,0.1733,0.1413,0.1785,0.1558,0.1351,0.1351,0.1365,0.1375,0.1375,0.1375,0.1375,0.1375,0.1335,0.1296,0.1296,0.1296,0.1296,0.1335,0.1335,0.1335,0.1375,0.1375,0.1375,0.1375,0.1335,0.1335,0.1335,0.1335,0.1335,0.1335,0.1335,0.1375,0.1375,0.1768,0.1925,0.1964,0.2357,0.2515,0.2515,0.2515,0.2515,0.2515,0.0,0.0,0.0,0.0,0.0,0.0,0.0,0.0,0.0,0.0,0.0,0.0,0.0,0.0,0.0,0.0,0.0,0.0,1.0227,0.9181,0.8558,0.8587,0.7593,0.7014,0.6907,0.6907,0.6907,0.6907,0.6907,0.6858,0.6763,0.6915,0.6981,0.6944,0.6727,0.6639,0.666,0.6293,0.616,0.6127,0.5861,0.5131,0.4097,0.3865,0.3127,0.2188,0.2188,0.2189,0.2195,0.2208,0.2185,0.2214,0.2272,0.2285,0.2296,0.2288,0.2296,0.2296,0.2296,0.2296,0.2296,0.2296,0.2296,0.2296,0.2296,0.2296,0.2296,0.2296,0.2296,0.2296,0.2296,0.2223,0.2187,0.2296,0.2191,0.2148,0.2223,0.2233,0.219,0.219,0.2196,0.22,0.22,0.22,0.22,0.22,0.1649,0.1296,0.1296,0.1296,0.1453,0.1728,0.1728,0.1886,0.22,0.22,0.22,0.22,0.1886,0.1728,0.1728,0.1728,0.1728,0.1768,0.2082,0.22,0.22,0.2318,0.2357,0.2357,0.2475,0.2515,0.2515,0.2515,0.2515,0.2515,0.0,0.0,0.0,0.0,0.0,0.0,0.0,0.0,0.0,0.0,0.0,0.0,0.0,0.0,0.0,0.0,0.0,0.0,0.0,1.1012,1.0506,1.0506,0.9682,0.918,0.9049,0.9046,0.9046,0.9046,0.9046,0.8985,0.8833,0.8949,0.8955,0.8833,0.833,0.8159,0.8176,0.7602,0.7358,0.0,0.0,0.6498,0.5732,0.5367,0.4733,0.403,0.403,0.3647,0.3125,0.3222,0.2787,0.2216,0.2281,0.2291,0.2296,0.2288,0.2296,0.2296,0.2296,0.2296,0.2296,0.2296,0.2296,0.2296,0.2296,0.2296,0.2296,0.2296,0.2296,0.2296,0.2296,0.2296,0.2296,0.2296,0.2346,0.2385,0.2385,0.2476,0.2515,0.2515,0.2515,0.2515,0.2515,0.2515,0.2515,0.2515,0.2082,0.1846,0.1846,0.1846,0.1925,0.216,0.216,0.2278,0.2515,0.2515,0.2515,0.2515,0.2278,0.216,0.216,0.216,0.216,0.2161,0.0,0.2534,0.2535,0.2547,0.2553,0.2553,0.2553,0.2553,0.2553,0.2553,0.2553,0.2553,0.0,0.0,0.0,0.0,0.0,0.0,0.0,0.0,0.0,0.0,0.0,0.0,0.0,0.0,0.0,0.0,0.0,0.0,0.0,0.0,1.228,1.2304,1.2098,1.1951,1.1811,1.1806,1.1806,1.1806,1.1806,1.1651,1.1367,1.1387,1.1294,1.107,0.9894,0.9403,0.9462,0.8366,0.7927,0.7902,0.7753,0.7595,0.7362,0.0,0.0,0.6466,0.6412,0.5626,0.4638,0.4794,0.3667,0.221,0.2275,0.2285,0.2291,0.2287,0.2296,0.2296,0.2296,0.2296,0.2296,0.2296,0.2296,0.2296,0.2296,0.2296,0.2296,0.2296,0.2296,0.2296,0.2296,0.2296,0.2296,0.2296,0.2346,0.2385,0.2385,0.2476,0.2515,0.2515,0.2515,0.2515,0.2515,0.2515,0.2515,0.2515,0.2515,0.2515,0.2515,0.2515,0.2515,0.2515,0.2515,0.2515,0.2515,0.2515,0.2515,0.2515,0.2519,0.252,0.2521,0.2524,0.2526,0.2527,0.2594,0.0,0.2607,0.2592,0.2602,0.2602,0.2602,0.2602,0.2602,0.2602,0.2602,0.2602,0.0,0.0,0.0,0.0,0.0,0.0,0.0,0.0,0.0,0.0,1.1806,1.1806,0.0,0.0,0.0,0.0,0.0,0.0,0.0,0.0,0.0,1.23,1.2098,1.1951,1.1811,1.1806,1.1806,1.1806,1.1806,1.1776,1.1716,1.1823,1.1846,1.182,1.1744,1.1732,1.1739,1.1677,1.1645,1.166,1.1468,1.0664,0.9558,0.0,0.0,0.0,0.6584,0.6385,0.6267,0.621,0.4403,0.2213,0.2209,0.2218,0.2228,0.2281,0.2296,0.2296,0.2296,0.2296,0.2296,0.2296,0.2296,0.2296,0.2296,0.2296,0.2296,0.2296,0.2296,0.2296,0.2296,0.2296,0.2296,0.2296,0.2346,0.2385,0.2385,0.2476,0.2515,0.2515,0.2515,0.2515,0.2515,0.2515,0.2515,0.2515,0.2515,0.2515,0.2515,0.2515,0.2515,0.2515,0.2515,0.2515,0.2515,0.2515,0.2515,0.2515,0.254,0.2592,0.2593,0.2576,0.2587,0.2587,0.2592,0.0,0.2594,0.26,0.2602,0.2602,0.2602,0.2602,0.2602,0.2602,0.2602,0.2602,0.0,0.0,0.0,0.0,0.0,0.0,0.0,1.1806,1.1806,1.1806,1.1806,1.1806,1.1806,1.1849,0.0,0.0,0.0,0.0,0.0,0.0,0.0,0.0,1.2046,1.1951,1.1811,1.1806,1.1806,1.1806,0.0,1.1806,1.1811,1.1857,1.1898,1.1902,1.1991,1.2032,1.204,1.2215,1.2341,1.2446,1.2232,1.1789,0.0,0.0,0.0,0.0,0.9385,0.8784,0.8044,0.8104,0.6025,0.3405,0.3348,0.2804,0.2222,0.2279,0.2296,0.2296,0.2296,0.2296,0.2296,0.2296,0.2296,0.2296,0.2296,0.2296,0.2296,0.2296,0.2296,0.2296,0.2296,0.2296,0.2296,0.2296,0.2371,0.2405,0.2383,0.2462,0.2497,0.2512,0.2515,0.2515,0.2515,0.2515,0.2515,0.2515,0.2515,0.2515,0.2515,0.2515,0.2515,0.2515,0.2515,0.2515,0.2515,0.2515,0.2522,0.2538,0.2593,0.2608,0.2582,0.2596,0.2602,0.2602,0.2618,0.0,0.2585,0.2643,0.2649,0.2649,0.2649,0.2649,0.2649,0.2649,0.2649,0.2649,0.0,0.0,0.0,0.0,0.0,0.0,0.0,1.1806,1.1806,1.1806,1.1806,1.1806,1.1806,1.1806,1.1829,0.0,0.0,0.0,0.0,0.0,0.0,0.0,0.0,0.0,1.1811,0.0,0.0,1.1806,1.1806,0.0,0.0,0.0,0.0,0.0,1.1806,1.1806,1.1819,1.1928,1.2082,0.0,0.0,1.2223,0.0,0.0,0.0,0.0,0.0,1.1056,0.9831,1.0009,0.8018,0.5501,0.5421,0.3929,0.2222,0.2279,0.2296,0.2296,0.2296,0.2296,0.2296,0.2296,0.2296,0.2296,0.2296,0.2296,0.2296,0.2296,0.2296,0.2296,0.2296,0.2296,0.2296,0.2296,0.2358,0.2388,0.2381,0.245,0.2518,0.2511,0.2515,0.2515,0.2515,0.2515,0.2515,0.2515,0.2515,0.2515,0.2515,0.2515,0.2515,0.2515,0.2515,0.2515,0.2515,0.2521,0.2536,0.2599,0.2613,0.259,0.2611,0.2618,0.2621,0.2622,0.2605,0.0,0.0,0.2683,0.2692,0.2692,0.2692,0.2692,0.2692,0.2692,0.2692,0.2692,0.0,0.0,0.0,0.0,0.0,0.0,0.0,1.1806,1.1806,1.1806,1.1806,1.1806,1.1806,1.1806,1.1815,0.0,0.0,0.0,0.0,0.0,0.0,0.0,0.0,0.0,0.0,0.0,0.0,1.1806,1.1806,0.0,0.0,0.0,0.0,0.0,0.0,1.1806,1.1819,1.1928,0.0,0.0,0.0,0.0,0.0,0.0,0.0,0.0,0.0,1.1772,1.1486,1.15,1.029,0.8759,0.8696,0.5682,0.2222,0.2279,0.2296,0.2296,0.2296,0.2296,0.2296,0.2296,0.2296,0.2296,0.2296,0.2296,0.2296,0.2296,0.2296,0.2296,0.2296,0.2296,0.2296,0.2296,0.2358,0.2388,0.2381,0.245,0.2518,0.2511,0.2515,0.2515,0.2515,0.2515,0.2515,0.2515,0.2515,0.2515,0.2515,0.2515,0.2515,0.2515,0.2515,0.2515,0.2515,0.2542,0.2597,0.26,0.2613,0.2599,0.2603,0.2671,0.2684,0.2684,0.2687,0.0,0.0,0.2691,0.2692,0.2692,0.2692,0.2692,0.2692,0.2692,0.2692,0.2692,0.0,0.0,0.0,0.0,0.0,0.0,1.1806,1.1806,1.1806,1.1806,1.1806,1.1806,1.1806,1.1806,1.1806,0.0,0.0,0.0,0.0,0.0,0.0,0.0,0.0,0.0,0.0,0.0,1.1806,1.1806,1.1806,0.0,0.0,0.0,0.0,0.0,0.0,1.1806,1.1811,1.1849,0.0,0.0,0.0,0.0,0.0,0.0,0.0,0.0,0.0,0.0,1.2004,1.2141,1.0834,0.9193,0.9231,0.6644,0.3663,0.373,0.306,0.2296,0.2296,0.2296,0.2296,0.2296,0.2296,0.2296,0.2296,0.2296,0.2296,0.2296,0.2296,0.2296,0.2296,0.2296,0.2296,0.2296,0.2306,0.2361,0.2392,0.2423,0.2453,0.2483,0.2503,0.2515,0.2515,0.2515,0.2515,0.2515,0.2515,0.2515,0.2515,0.2515,0.2515,0.2515,0.2515,0.2523,0.2542,0.2594,0.2617,0.2613,0.2595,0.2615,0.2675,0.2687,0.2692,0.2692,0.2692,0.0,0.0,0.2692,0.2692,0.2692,0.2692,0.2692,0.2692,0.2692,0.2692,0.2692,0.0,0.0,0.0,0.0,0.0,1.1806,1.1806,1.1806,1.1806,1.1806,1.1762,1.1695,1.1695,1.1646,1.1664,1.1721,0.0,0.0,0.0,0.0,0.0,0.0,0.0,0.0,0.0,0.0,1.1806,1.1806,1.1806,1.1806,0.0,0.0,1.1806,1.1806,0.0,0.0,0.0,0.0,0.0,0.0,0.0,0.0,0.0,0.0,0.0,0.0,0.0,0.0,0.0,0.0,0.0,0.993,0.9952,0.783,0.5245,0.4826,0.3568,0.2296,0.2296,0.2296,0.2296,0.2296,0.2296,0.2296,0.2296,0.2296,0.2296,0.2296,0.2296,0.2296,0.2296,0.2296,0.2296,0.2296,0.2296,0.2307,0.2374,0.2404,0.2435,0.2504,0.2496,0.2515,0.2515,0.2515,0.2515,0.2515,0.2515,0.2515,0.2515,0.2515,0.2515,0.2515,0.2515,0.2529,0.2599,0.2608,0.2598,0.2605,0.2615,0.2672,0.2692,0.2692,0.2692,0.2692,0.2692,0.0,0.0,0.2692,0.2692,0.2692,0.2692,0.2692,0.2692,0.2692,0.2692,0.2692,0.0,0.0,0.0,0.0,0.0,0.0,1.1806,1.1806,1.1806,1.1806,1.1618,1.15,1.15,1.1338,1.1301,1.1488,0.0,0.0,0.0,0.0,0.0,0.0,0.0,0.0,0.0,0.0,1.1806,1.1806,1.1806,1.1806,1.1806,1.1806,1.1806,1.1806,0.0,0.0,0.0,0.0,0.0,0.0,0.0,0.0,0.0,0.0,0.0,0.0,0.0,0.0,0.0,0.0,0.0,0.0,0.0,0.9471,0.6679,0.5164,0.3568,0.2296,0.2296,0.2296,0.2296,0.2296,0.2296,0.2296,0.2296,0.2296,0.2296,0.2296,0.2296,0.2296,0.2296,0.2296,0.2296,0.2296,0.2296,0.2307,0.2374,0.2404,0.2435,0.2504,0.2496,0.2515,0.2515,0.2515,0.2515,0.2515,0.2515,0.2515,0.2515,0.2515,0.2515,0.2515,0.2515,0.2529,0.2599,0.2587,0.2617,0.2606,0.2677,0.2692,0.2692,0.2692,0.2692,0.2692,0.0,0.0,0.0,0.2692,0.2692,0.2692,0.2692,0.2692,0.2692,0.2692,0.2692,0.2692,0.0,0.0,0.0,0.0,0.0,0.0,0.0,1.1806,1.1806,1.1806,1.1614,1.15,1.15,1.1447,1.1435,1.1496,0.0,0.0,0.0,0.0,0.0,0.0,0.0,0.0,0.0,0.0,1.1806,1.1806,1.1806,1.1806,1.1806,1.1806,1.1806,1.1806,1.1806,1.1806,0.0,0.0,0.0,0.0,0.0,0.0,1.2474,0.0,0.0,0.0,0.0,0.0,0.0,0.0,0.0,0.0,0.0,0.0,0.0,0.6427,0.4401,0.2296,0.2296,0.2296,0.2296,0.2296,0.2296,0.2296,0.2296,0.2296,0.2296,0.2296,0.2296,0.2296,0.2296,0.2296,0.2296,0.2296,0.2296,0.2299,0.2345,0.2354,0.2389,0.2437,0.2483,0.2515,0.2515,0.2515,0.2515,0.2515,0.2515,0.2515,0.2515,0.2515,0.2515,0.2515,0.2534,0.2559,0.2588,0.2617,0.2607,0.2678,0.2688,0.2692,0.2692,0.2692,0.2692,0.0,0.0,0.0,0.0,0.2692,0.2692,0.2692,0.2692,0.2692,0.2692,0.2692,0.2692,0.2692,0.0,0.0,0.0,0.0,0.0,0.0,0.0,1.1806,1.1806,1.1806,1.1614,1.15,1.15,1.1439,1.1423,1.1492,0.0,0.0,0.0,0.0,0.0,0.0,0.0,0.0,0.0,1.1806,1.1806,1.1806,1.1806,1.1806,1.1806,1.1806,1.1806,1.1806,1.1806,1.1806,0.0,0.0,0.0,0.0,0.0,0.0,1.2276,0.0,0.0,0.0,0.0,0.0,0.0,0.0,0.0,0.0,0.0,0.0,0.0,0.0,0.4763,0.2296,0.2296,0.2296,0.2296,0.2296,0.2296,0.2296,0.2296,0.2296,0.2296,0.2296,0.2296,0.2296,0.2296,0.2296,0.2296,0.2296,0.2296,0.2296,0.2296,0.2348,0.2394,0.2417,0.2491,0.2515,0.2515,0.2515,0.2515,0.2515,0.2515,0.2515,0.2515,0.2515,0.2515,0.2515,0.2584,0.2613,0.2601,0.2591,0.2621,0.2692,0.2692,0.2692,0.2692,0.2692,0.2692,0.0,0.0,0.0,0.0,0.2692,0.2692,0.2692,0.2692,0.2692,0.2692,0.2692,0.2692,0.2692,0.0,0.0,0.0,0.0,0.0,0.0,0.0,0.0,1.1806,1.1806,1.1614,1.15,1.15,1.1317,1.1313,1.1484,0.0,0.0,0.0,0.0,0.0,0.0,0.0,0.0,1.1806,1.1806,1.1806,1.1806,1.1806,1.1806,1.1806,1.1776,1.1776,1.1776,1.1776,1.178,0.0,0.0,0.0,0.0,0.0,0.0,0.0,0.0,0.0,0.0,0.0,0.0,0.0,0.0,0.0,0.0,0.0,0.0,0.0,0.0,0.0,0.0,0.0,0.2296,0.2296,0.2296,0.2296,0.2296,0.2296,0.2296,0.0,0.2296,0.2296,0.2296,0.2296,0.2296,0.2296,0.2296,0.2296,0.2297,0.2299,0.2351,0.2448,0.2507,0.2515,0.2515,0.2515,0.2515,0.2515,0.2515,0.2515,0.2515,0.2515,0.2515,0.2515,0.2515,0.2584,0.2613,0.2601,0.2593,0.2623,0.2692,0.2692,0.2692,0.2692,0.2692,0.2692,0.0,0.0,0.0,0.0,0.2692,0.2692,0.2692,0.2692,0.2692,0.2692,0.2692,0.2692,0.2692,0.0,0.0,0.0,0.0,0.0,0.0,0.0,0.0,0.0,0.0,1.1614,1.15,1.15,1.1459,1.1451,0.0,0.0,0.0,0.0,0.0,0.0,0.0,0.0,0.0,1.1806,1.1806,1.1806,1.1806,1.1806,1.1806,1.1776,1.1553,1.1428,1.1428,1.1428,1.1472,0.0,0.0,0.0,0.0,0.0,0.0,0.0,0.0,0.0,0.0,1.1193,1.1265,0.0,0.0,0.0,0.0,0.0,0.0,0.0,0.0,0.4763,0.2296,0.2296,0.0,0.2296,0.2296,0.2296,0.2296,0.0,0.2296,0.2296,0.2296,0.2296,0.2296,0.2296,0.2296,0.2296,0.2296,0.2296,0.2304,0.2364,0.242,0.2472,0.251,0.2515,0.2515,0.2515,0.2515,0.2515,0.2515,0.2515,0.2515,0.2515,0.2515,0.2515,0.2515,0.2584,0.2613,0.2601,0.2655,0.2686,0.2692,0.2692,0.2692,0.2692,0.2692,0.2692,0.0,0.0,0.0,0.2692,0.2692,0.2692,0.2692,0.2692,0.2692,0.2692,0.2692,0.2692,0.2692,0.0,0.0,0.0,0.0,0.0,0.0,0.0,0.0,0.0,0.0,0.0,0.0,0.0,0.0,0.0,0.0,0.0,0.0,0.0,0.0,0.0,0.0,0.0,1.1806,1.1806,1.1806,1.1806,1.1806,1.1806,1.1806,1.1776,1.1462,1.1303,1.1307,1.1202,1.1183,0.0,0.0,0.0,0.0,1.1185,0.0,0.0,0.0,0.0,0.0,1.1091,1.1196,0.0,1.1514,1.1584,1.1584,0.0,0.0,0.0,0.0,0.5306,0.3246,0.2533,0.2307,0.2296,0.2296,0.2296,0.2296,0.2296,0.2296,0.2296,0.2296,0.2296,0.2296,0.2296,0.2296,0.2296,0.2296,0.2296,0.2312,0.2393,0.244,0.2518,0.2511,0.2515,0.2515,0.2515,0.2515,0.2515,0.2515,0.2515,0.2515,0.2515,0.2515,0.2515,0.2515,0.2584,0.2613,0.2601,0.2648,0.2678,0.2692,0.2692,0.2692,0.2692,0.2692,0.2692,0.0,0.0,0.0,0.2692,0.2692,0.2692,0.2692,0.2692,0.2692,0.2692,0.2692,0.2692,0.2692,0.0,0.0,0.0,0.0,0.0,0.0,0.0,0.0,0.0,0.0,0.0,0.0,0.0,0.0,0.0,0.0,0.0,0.0,0.0,0.0,0.0,0.0,0.0,1.1655,1.1655,1.1655,1.1655,1.1655,1.1655,1.1655,1.1651,1.1307,1.1163,1.1168,1.1006,1.0896,0.0,0.0,0.0,0.0,1.082,0.0,0.0,0.0,0.0,0.0,0.0,0.0,0.0,1.1491,1.1563,1.1584,1.1584,0.0,0.0,0.0,0.0,0.0,0.2806,0.2352,0.2297,0.2302,0.2299,0.2296,0.2296,0.2296,0.2296,0.2296,0.2296,0.2296,0.2296,0.2296,0.2296,0.2296,0.2303,0.2329,0.2423,0.2457,0.2485,0.2511,0.2515,0.2515,0.2515,0.2515,0.2515,0.2515,0.2515,0.2515,0.2515,0.2515,0.2515,0.2515,0.254,0.2608,0.2601,0.2591,0.2621,0.2692,0.2692,0.2692,0.2692,0.2692,0.2692,0.2692,0.0,0.0,0.2692,0.2692,0.2692,0.2692,0.2692,0.2692,0.2692,0.2692,0.2692,0.2692,0.0,0.0,0.0,0.0,0.0,0.0,0.0,0.0,0.0,0.0,0.0,0.0,0.0,0.0,0.0,0.0,0.0,0.0,0.0,0.0,0.0,1.094,1.094,1.094,1.094,1.094,1.094,1.094,1.094,1.094,1.0944,1.0607,1.0497,1.0634,1.0594,1.0734,1.0977,0.0,0.0,0.0,1.0721,0.0,0.0,0.0,0.0,0.0,0.0,0.0,0.0,1.1365,1.1511,1.1584,1.1584,0.0,0.0,0.0,0.0,0.0,0.274,0.2299,0.2302,0.2365,0.2352,0.2296,0.2296,0.2296,0.2296,0.2296,0.2296,0.2296,0.2296,0.2296,0.2296,0.2296,0.2339,0.2422,0.2457,0.2488,0.2509,0.2514,0.2515,0.2515,0.2515,0.2515,0.2515,0.2515,0.2515,0.2515,0.2515,0.2515,0.2515,0.2515,0.2519,0.2547,0.2601,0.2591,0.2621,0.2692,0.2692,0.2692,0.2692,0.2692,0.2692,0.2692,0.0,0.2692,0.2692,0.2692,0.2692,0.2692,0.2692,0.2692,0.2692,0.2692,0.2692,0.2692,0.0,0.0,0.0,0.0,0.0,0.0,0.0,0.0,0.0,0.0,0.0,0.0,0.0,0.0,0.0,0.0,0.0,0.0,0.0,0.0,0.0,1.0516,1.0365,1.0425,1.0789,1.0789,1.0789,1.0789,1.0789,1.0789,1.0789,1.0515,1.0352,1.0243,1.0405,1.0585,1.0724,1.0807,0.0,0.0,0.0,0.0,0.0,0.0,0.0,0.0,0.0,0.0,0.0,0.0,1.1494,1.1584,1.1584,0.0,0.0,0.0,0.0,0.0,0.4038,0.2966,0.2303,0.2371,0.2355,0.2296,0.2296,0.2296,0.2296,0.2296,0.2296,0.2296,0.2296,0.2296,0.2301,0.2355,0.2395,0.2434,0.2503,0.2495,0.2515,0.2515,0.2515,0.2515,0.2515,0.2515,0.2515,0.2515,0.2515,0.2515,0.2515,0.2515,0.2515,0.2515,0.2515,0.2535,0.2619,0.2608,0.2646,0.2692,0.2692,0.2692,0.2692,0.2692,0.2692,0.2692,0.0,0.2692,0.2692,0.2692,0.2692,0.2692,0.2692,0.2692,0.2692,0.2692,0.2692,0.2692,0.0,0.0,0.0,0.0,0.0,0.0,0.0,0.0,0.0,0.0,0.0,0.0,0.0,0.0,0.0,0.0,0.0,0.0,0.0,0.0,1.0183,1.0183,0.994,1.0031,1.0547,1.0577,1.0577,1.0577,1.0577,1.0565,1.0609,1.0455,1.0305,1.013,1.0392,1.051,1.0555,1.067,1.0688,0.0,0.0,0.0,0.0,0.0,0.0,0.0,0.0,0.0,0.0,0.0,0.0,0.0,0.0,0.0,0.0,0.9762,0.8456,0.7204,0.5665,0.407,0.296,0.3404,0.2912,0.2305,0.2298,0.2301,0.2305,0.2297,0.2296,0.2296,0.2296,0.2296,0.2308,0.2383,0.2408,0.2437,0.2474,0.25,0.2515,0.2515,0.2515,0.2515,0.2515,0.2515,0.2515,0.2515,0.2515,0.2515,0.2515,0.2515,0.2515,0.2515,0.2515,0.2529,0.2599,0.2581,0.2622,0.2682,0.2689,0.2692,0.2692,0.2692,0.2692,0.2692,0.2692,0.2692,0.2692,0.2692,0.2692,0.2692,0.2692,0.2692,0.2692,0.2692,0.2692,0.2692,0.0,0.0,0.0,0.0,0.0,0.0,0.0,0.0,0.0,0.0,0.0,0.0,0.0,0.0,0.0,0.0,0.0,0.0,0.0,0.0,0.9849,0.9849,0.9822,0.9822,0.9883,0.9883,0.9883,0.9883,0.9883,0.9924,1.0063,1.0042,1.0198,1.0463,1.0483,1.0571,1.0704,1.0714,1.0688,1.0688,1.0688,0.0,0.0,0.0,0.0,0.0,0.0,0.0,0.0,0.0,0.0,0.0,0.0,0.0,1.1293,0.9762,0.9219,0.8783,0.7268,0.5709,0.4889,0.6459,0.4593,0.2367,0.2302,0.2355,0.2367,0.2302,0.2296,0.2296,0.2296,0.2296,0.2315,0.2373,0.2384,0.2406,0.2503,0.2513,0.2515,0.2515,0.2515,0.2515,0.2515,0.2515,0.2515,0.2515,0.2515,0.2515,0.2515,0.2515,0.2515,0.2515,0.2515,0.2529,0.2599,0.2602,0.2592,0.2609,0.2679,0.2692,0.2692,0.2692,0.2692,0.2692,0.2692,0.2692,0.2692,0.2692,0.2692,0.2692,0.2692,0.2692,0.2692,0.2692,0.2692,0.2692,0.0,0.0,0.0,0.0,0.0,0.0,0.0,0.0,0.0,0.0,0.0,0.0,0.0,0.0,0.0,0.0,0.0,0.0,0.0,0.9792,0.9792,0.9792,0.9792,0.9792,0.9792,0.9792,0.9792,0.9792,0.9886,0.9961,0.999,1.0207,1.0385,1.0493,1.0592,1.0666,1.0688,1.0688,1.0688,1.0688,1.0688,0.0,0.0,0.0,0.0,0.0,0.0,0.0,0.0,0.0,1.1365,1.1584,1.1584,1.1584,1.1472,1.089,1.0053,0.918,0.86,0.661,0.5107,0.679,0.5552,0.3965,0.3917,0.3145,0.2665,0.3614,0.2987,0.2623,0.3605,0.2986,0.2645,0.3654,0.3028,0.2407,0.2506,0.2515,0.2515,0.2515,0.2515,0.2515,0.2515,0.2515,0.2515,0.2515,0.2515,0.2515,0.2515,0.2515,0.2515,0.2515,0.2515,0.252,0.2532,0.259,0.2611,0.2593,0.2641,0.2674,0.2692,0.2692,0.2692,0.2692,0.2692,0.2692,0.2692,0.2692,0.2692,0.2692,0.2692,0.2692,0.2692,0.2692,0.2692,0.2692,0.0,0.0,0.0,0.0,0.0,0.0,0.0,0.0,0.0,0.0,0.0,0.0,0.0,0.0,0.0,0.0,0.0,0.0,0.9792,0.9792,0.9792,0.9792,0.9792,0.9792,0.9792,0.9792,0.9792,0.9792,0.9944,1.0065,1.016,1.0395,1.0517,1.0568,1.0673,1.0688,1.0688,1.0688,1.0688,1.0688,1.0688,1.0688,0.0,0.0,0.0,0.0,0.0,0.0,0.0,0.0,1.1365,1.1584,1.1584,1.1584,1.1584,1.1584,1.0497,0.9278,0.928,0.7386,0.5696,0.6892,0.6002,0.4833,0.4906,0.402,0.3345,0.3836,0.3459,0.3241,0.3822,0.3459,0.3269,0.388,0.3103,0.2407,0.2506,0.2515,0.2515,0.2515,0.2515,0.2515,0.2515,0.2515,0.2515,0.2515,0.2515,0.2515,0.2515,0.2515,0.2515,0.2515,0.2515,0.2515,0.2515,0.2535,0.259,0.26,0.26,0.264,0.2678,0.2688,0.2692,0.2692,0.2692,0.2692,0.2692,0.2692,0.2692,0.2692,0.2692,0.2692,0.2692,0.2692,0.2692,0.2692,0.0,0.0,0.0,0.0,0.0,0.0,0.0,0.0,0.0,0.0,0.0,0.0,0.0,0.0,0.0,0.0,0.0,0.0,0.9792,0.9792,0.9792,0.9792,0.9792,0.9792,0.9792,0.9792,0.9792,0.9792,0.9947,1.017,1.049,1.0493,1.0575,1.0688,1.0688,1.0688,1.0688,1.0688,1.0688,1.0688,1.0688,1.0688,1.0688,0.0,0.0,0.0,0.0,0.0,0.0,0.0,1.1365,1.1616,1.1616,1.1616,1.1616,1.1584,1.0465,0.9242,0.9294,0.8129,0.6958,0.7172,0.5964,0.4748,0.4896,0.4904,0.4424,0.2674,0.3604,0.4222,0.2623,0.3605,0.4185,0.2677,0.2423,0.2407,0.2506,0.2515,0.2515,0.2515,0.2515,0.2515,0.2515,0.2515,0.2515,0.2515,0.2515,0.2515,0.2515,0.2515,0.2515,0.2515,0.2515,0.2515,0.2515,0.2515,0.253,0.2599,0.2599,0.259,0.2607,0.2678,0.2692,0.2692,0.2692,0.2692,0.2692,0.2692,0.2692,0.2692,0.2692,0.2692,0.2692,0.2692,0.2692,0.2692,0.0,0.0,0.0,0.0,0.0,0.0,0.0,0.0,0.0,0.0,0.0,0.0,0.0,0.0,0.0,0.0,0.0,0.0,0.9792,0.9792,0.9792,0.9792,0.9792,0.9792,0.9792,0.9896,0.995,0.995,1.0236,1.0405,1.0493,1.0602,1.0677,1.0688,1.0688,1.0688,1.0688,1.0688,1.0688,1.0688,1.0688,1.0688,1.0688,0.0,0.0,0.0,0.0,0.0,0.0,0.0,0.0,0.0,1.146,1.146,1.148,1.1589,1.126,1.0872,1.0917,0.8976,0.7285,0.8514,0.6816,0.5117,0.626,0.5611,0.4603,0.4091,0.4367,0.4548,0.4077,0.3459,0.3232,0.3916,0.3103,0.2407,0.2506,0.2515,0.2515,0.2515,0.2515,0.2515,0.2515,0.2515,0.2515,0.2515,0.2515,0.2515,0.2515,0.2515,0.2515,0.2515,0.2515,0.2515,0.2515,0.2515,0.2519,0.2528,0.2589,0.259,0.2606,0.2615,0.2672,0.2692,0.2692,0.2692,0.2692,0.2692,0.2692,0.2692,0.2692,0.2692,0.2692,0.2692,0.2692,0.2692,0.0,0.0,0.0,0.0,0.0,0.0,0.0,0.0,0.0,0.0,0.9435,0.9473,0.0,0.0,0.0,0.0,0.0,0.0,0.0,0.9792,0.9792,0.9792,0.9792,0.9819,0.9879,1.0032,1.0136,1.0194,1.0405,1.0524,1.0585,1.0677,1.0688,1.0688,1.0688,1.0688,1.0688,1.0688,1.0688,1.0688,1.0688,1.0688,1.0688,0.0,0.0,0.0,0.0,0.0,0.0,0.0,0.0,0.0,1.1353,1.1336,1.1213,1.0735,1.0583,1.0451,0.9894,0.8824,0.7983,0.8418,0.7568,0.6873,0.7822,0.6323,0.4884,0.5498,0.5597,0.5597,0.5597,0.5307,0.5206,0.5641,0.4911,0.4346,0.4455,0.447,0.4236,0.357,0.3492,0.3219,0.2553,0.2515,0.2515,0.2515,0.2515,0.2515,0.2515,0.2515,0.2515,0.2515,0.2515,0.2515,0.2515,0.2515,0.2515,0.2515,0.2533,0.2566,0.2613,0.2595,0.2615,0.2675,0.2687,0.2692,0.2692,0.2692,0.2692,0.2692,0.2692,0.2692,0.2692,0.2692,0.2692,0.2692,0.0,0.0,0.0,0.0,0.0,0.0,0.0,0.0,0.0,0.0,0.9544,0.9629,0.0,0.0,0.0,0.0,0.0,0.0,0.0,0.0,0.9792,0.9792,0.9792,0.9869,1.0004,1.0209,1.0354,1.0514,1.0514,1.0582,1.0688,1.0688,1.0688,1.0688,1.0688,1.0688,1.0688,1.0688,1.0688,1.0688,1.0688,1.0688,1.0688,1.0688,0.0,0.0,0.0,0.0,0.0,0.0,0.0,0.0,1.124,1.1189,1.0903,0.9596,0.9218,0.8927,0.7656,0.8217,0.8885,0.7513,0.8266,0.9291,0.9291,0.7119,0.5525,0.6934,0.7112,0.7004,0.7004,0.8138,0.8686,0.74,0.7212,0.7277,0.7491,0.7515,0.693,0.5405,0.5092,0.439,0.2866,0.2592,0.2515,0.2515,0.2515,0.2515,0.2515,0.2515,0.2515,0.2515,0.2515,0.2515,0.2515,0.2515,0.2515,0.2515,0.2515,0.2529,0.2597,0.2613,0.2601,0.2607,0.2676,0.269,0.2692,0.2692,0.2692,0.2692,0.2692,0.2692,0.2692,0.2692,0.2692,0.2692,0.0,0.0,0.0,0.0,0.0,0.0,0.0,0.0,0.0,0.0,0.0,0.0,0.0,0.0,0.0,0.0,0.0,0.0,0.0,0.0,0.9792,0.9792,0.9792,0.9951,1.0226,1.0295,1.0409,1.067,1.067,1.0654,1.0688,1.0688,1.0688,1.0688,1.0688,1.0688,1.0688,1.0688,1.0688,1.0688,1.0688,1.0688,1.0688,1.0688,1.0782,0.0,0.0,0.0,0.0,0.0,0.0,0.0,1.1206,1.1087,1.0914,1.0783,1.0744,1.0647,1.0363,0.9707,0.9041,0.871,0.8967,0.9291,0.9291,0.8783,0.8422,0.8745,0.784,0.7004,0.7004,0.7357,0.7556,0.7261,0.7341,0.7465,0.7499,0.7515,0.7359,0.7006,0.5796,0.4857,0.4506,0.3258,0.2515,0.2515,0.2515,0.2515,0.2515,0.2515,0.2515,0.2515,0.2515,0.2515,0.2515,0.2515,0.2515,0.0,0.2515,0.2518,0.2525,0.2562,0.2604,0.2606,0.2613,0.2671,0.2692,0.2692,0.2692,0.2692,0.2692,0.2692,0.2692,0.2692,0.2692,0.2692,0.0,0.0,0.0,0.0,0.0,0.0,0.0,0.0,0.0,0.0,0.0,0.0,0.0,0.0,0.0,0.0,0.0,0.0,0.0,0.0,0.9792,0.9792,0.9792,0.9964,1.0305,1.0312,1.0426,1.0688,1.0688,1.0688,1.0688,1.0688,1.0688,1.0688,1.0688,1.0688,1.0688,1.0688,1.0688,1.0688,1.0688,1.0732,1.0796,1.0796,1.0934,1.1134,1.1246,0.0,0.0,0.0,0.0,0.0,0.0,0.0,1.1063,1.0514,1.086,1.13,1.0634,1.0368,1.031,1.031,1.0365,1.0416,1.0416,1.0416,1.0416,1.0416,0.918,0.8309,0.9072,0.9313,0.9432,0.9516,0.9675,0.9834,0.9873,0.9889,0.9578,0.8798,0.794,0.6768,0.5169,0.4194,0.3375,0.2553,0.2515,0.2515,0.2515,0.2515,0.2515,0.2515,0.2515,0.2515,0.2515,0.2515,0.2515,0.2515,0.2515,0.2515,0.2515,0.2586,0.2584,0.2585,0.2585,0.2634,0.265,0.2664,0.2671,0.2672,0.2687,0.2692,0.2692,0.2692,0.2692,0.2692,0.0,0.0,0.0,0.0,0.0,0.0,0.0,0.0,0.0,0.0,0.0,0.0,0.0,0.0,0.0,0.0,0.0,0.0,0.0,0.0,0.0,0.9792,0.9815,0.9992,1.0276,1.0304,1.0449,1.0688,1.0688,1.0688,1.0688,1.0688,1.0688,1.0688,1.0688,1.0688,1.0688,1.0688,1.0688,1.0688,1.0715,1.0803,1.0884,1.0941,1.1155,1.1392,1.1392,1.1491,1.1563,1.1474,0.0,0.0,0.0,0.0,1.1286,1.0183,1.0743,1.1503,1.0376,1.0863,1.165,1.1579,1.1563,1.1584,1.1584,1.1584,1.1584,1.1584,1.0599,1.0089,1.1364,1.1759,1.1911,1.2077,1.221,1.2369,1.2484,1.2501,1.1995,1.0591,1.0161,0.8913,0.6145,0.56,0.4741,0.3062,0.2945,0.2788,0.2515,0.2515,0.2515,0.2515,0.2515,0.2515,0.2515,0.2515,0.2515,0.2515,0.2515,0.2515,0.2515,0.254,0.2608,0.2594,0.2594,0.2597,0.2604,0.2588,0.2598,0.2601,0.2667,0.2677,0.2677,0.2677,0.2677,0.2677,0.0,0.0,0.0,0.0,0.0,0.0,0.0,0.0,0.0,0.0,0.9792,0.9792,0.0,0.0,0.0,0.0,0.0,0.0,0.0,0.0,0.0,0.9792,0.9917,1.0069,1.0308,1.0399,1.0548,1.0688,1.0688,1.0688,1.0688,1.0688,1.0688,1.0688,1.0688,1.0688,1.0688,1.0688,1.0688,1.0698,1.083,1.0897,1.0928,1.1087,1.1278,1.1392,1.1392,1.1491,1.1616,1.1596,1.1501,0.0,0.0,0.0,1.1523,1.161,1.179,1.1977,1.1946,1.195,1.1847,1.1493,1.1521,1.1584,1.1584,1.1584,1.1584,1.1584,1.1436,1.1364,1.1548,1.1843,1.2074,1.2094,1.2294,1.2481,1.2498,1.2501,1.2424,1.2189,1.0862,0.9812,0.9382,0.802,0.646,0.478,0.4663,0.4039,0.2592,0.2515,0.2515,0.2515,0.2515,0.2515,0.2515,0.2515,0.2515,0.2515,0.2515,0.2515,0.2515,0.2519,0.2536,0.2606,0.2606,0.262,0.2602,0.2606,0.2607,0.2608,0.2612,0.2614,0.2614,0.2614,0.2614,0.2614,0.0,0.0,0.0,0.0,0.0,0.0,0.0,0.0,0.0,0.0,0.0,0.9792,0.0,0.0,0.0,0.0,0.0,0.0,0.0,0.0,0.0,0.9917,1.0065,1.0249,1.0395,1.046,1.0568,1.0688,1.0688,1.0688,1.0688,1.0688,1.0688,1.0688,1.0688,1.0688,1.0691,1.0779,1.0816,1.0826,1.1009,1.1067,1.1084,1.1233,1.1335,1.1402,1.1487,1.1562,1.1584,1.1584,1.1719,1.1849,1.1864,0.0,0.0,0.0,1.2609,1.2555,1.2214,1.2077,1.1885,1.1498,1.1508,1.1584,1.1584,1.1584,1.1584,1.1584,1.1584,1.1584,1.1584,1.186,1.2098,1.2098,1.2349,1.2501,1.2501,1.2501,1.2501,1.2501,1.1837,1.102,1.0083,0.9345,0.8214,0.6538,0.6381,0.5678,0.4,0.3882,0.3453,0.2515,0.2515,0.2515,0.2515,0.2515,0.2515,0.2515,0.2515,0.2515,0.2515,0.2515,0.2521,0.2534,0.2534,0.2541,0.2554,0.2571,0.2618,0.262,0.2596,0.2602,0.2602,0.2602,0.2602,0.2602,0.0,0.0,0.0,0.0,0.0,0.0,0.0,0.0,0.0,0.0,0.0,0.0,0.0,0.0,0.0,0.0,0.0,0.0,0.0,0.0,0.0,1.0076,1.0253,1.0385,1.049,1.0531,1.0605,1.0688,1.0688,1.0688,1.0688,1.0688,1.0688,1.0688,1.0688,1.0708,1.0752,1.0867,1.0934,1.0978,1.1155,1.1196,1.121,1.1325,1.1335,1.1352,1.1508,1.1562,1.1565,1.1606,1.1843,1.2105,1.2086,1.249,0.0,0.0,0.0,1.3134,1.2459,1.2301,1.2217,1.1681,1.165,1.1727,1.1619,1.1584,1.1584,1.1584,1.1584,1.1584,1.1584,1.186,1.2098,1.2098,1.2349,1.2501,1.2501,1.2501,1.2501,1.2501,1.2501,1.1995,1.0746,1.063,0.9928,0.8256,0.8136,0.7396,0.5717,0.5639,0.4859,0.3179,0.314,0.2945,0.2515,0.2515,0.2515,0.2515,0.2515,0.2515,0.2515,0.2515,0.2515,0.2515,0.2515,0.2515,0.2516,0.2539,0.2588,0.259,0.2571,0.2579,0.2579,0.2579,0.2579,0.2579,0.0,0.0,0.0,0.0,0.0,0.0,0.0,0.0,0.0,0.0,0.0,0.0,0.9792,0.9792,0.9792,0.9792,0.9792,0.0,0.0,0.0,0.0,1.0295,1.0405,0.0,1.049,1.0633,1.0677,1.0688,1.0688,1.0688,1.0688,1.0688,1.0688,1.0688,1.0688,1.0769,1.0904,1.0911,1.1026,1.1186,1.1193,1.1196,1.1196,1.1206,1.121,1.123,1.1348,1.1402,1.1423,1.1569,1.1735,1.1938,1.212,1.2482,1.2899,0.0,0.0,0.0,1.3197,1.3126,1.3025,1.2168,1.2077,1.2086,1.1691,1.1584,1.1584,1.1584,1.1584,1.1584,1.1584,1.186,1.2098,1.2098,1.2349,1.2501,1.2501,1.2501,1.2501,1.2501,1.2501,1.2463,1.2385,1.2385,1.1682,1.0006,0.985,0.9148,0.7476,0.7359,0.6616,0.4936,0.4859,0.4117,0.2515,0.2515,0.2515,0.2515,0.2515,0.2515,0.2515,0.2515,0.2515,0.2515,0.2515,0.2515,0.2515,0.2516,0.2517,0.2517,0.2518,0.2519,0.2519,0.2519,0.2519,0.2519,0.0,0.0,0.0,0.0,0.0,0.0,0.0,0.0,0.0,0.0,0.0,0.0,0.0,0.9792,0.9792,0.9792,0.9879,0.0,0.0,0.0,0.0,1.0415,1.0558,1.0636,1.0636,1.0694,1.0688,1.0688,1.0688,1.0688,1.0688,1.0688,1.0688,1.0688,1.0688,1.0718,1.0775,1.0874,1.0945,1.1033,1.1159,1.1107,1.1046,1.1236,1.1192,1.1056,1.1304,1.1328,1.1288,1.1342,1.1709,1.2192,1.234,1.2812,1.3358,1.3642,1.3803,1.3768,1.3094,1.3115,1.3117,1.239,1.2383,1.2545,1.2398,1.2363,1.2295,1.2051,1.1979,1.1907,1.1655,1.186,1.2098,1.2098,1.2349,1.2501,1.2501,1.2501,1.2501,1.2501,1.2501,1.2501,1.2501,1.2501,1.2266,1.1643,1.1605,1.0865,0.919,0.9112,0.8331,0.6655,0.6616,0.5796,0.4117,0.3023,0.2515,0.2515,0.2515,0.2515,0.2515,0.2515,0.2515,0.2515,0.2515,0.2515,0.2515,0.2515,0.2515,0.2515,0.2515,0.2515,0.2515,0.2515,0.2515,0.2515,0.0,0.0,0.0,0.0,0.0,0.0,0.0,0.0,0.0,0.9792,0.0,0.0,0.0,0.0,0.9812,0.9863,1.0008,1.0192,1.0373,1.0439,1.0514,1.0565,1.0666,1.0688,1.0688,1.0688,1.0688,1.0688,1.0688,1.0688,1.0688,1.0688,1.0688,1.0688,1.0688,1.0715,1.0769,1.087,1.0945,1.1026,1.107,1.1033,1.0931,1.1111,1.1043,1.087,1.1155,1.1179,1.1097,1.1183,1.1578,1.2079,1.2345,1.2963,1.3642,1.3851,1.39,1.3764,1.3226,1.3247,1.3259,1.2719,1.2725,1.2867,1.2813,1.2685,1.251,1.2266,1.2086,1.1907,1.1655,1.182,1.204,1.2091,1.2309,1.2447,1.2494,1.2501,1.2501,1.2501,1.2501,1.2501,1.2501,1.2501,1.2501,1.2501,1.2501,0.0,1.0901,1.0823,1.0083,0.8409,0.7786,0.6967,0.5835,0.4744,0.3883,0.3335,0.3335,0.3062,0.2515,0.2515,0.2515,0.2515,0.2515,0.2515,0.2515,0.2515,0.2515,0.2515,0.2515,0.2515,0.2515,0.2515,0.2515,0.2515,0.0,0.0,0.0,0.0,0.0,0.0,0.0,0.0,0.9792,0.9792,0.0,0.0,0.0,0.0,0.0,1.0011,1.0188,1.0334,1.0483,1.049,1.0561,1.0681,0.0,0.0,1.0688,1.0688,1.0688,1.0688,1.0688,1.0688,1.0688,1.0688,1.0688,1.0688,1.0688,1.0769,1.0873,1.0873,1.1023,1.1172,1.0965,1.0873,1.089,1.0748,1.0691,1.0708,1.086,1.0911,1.0928,1.1135,1.1333,1.1586,1.2155,1.2912,1.3615,1.3816,1.39,1.3863,0.0,0.0,0.0,1.3181,1.3115,1.3052,1.2855,1.2542,1.223,1.223,1.1907,1.1619,1.1584,1.1695,1.1874,1.2067,1.2224,1.2338,1.2474,1.2501,1.2501,1.2501,1.2501,1.2501,1.2501,1.2501,1.2501,1.2501,1.2501,1.2501,1.2501,1.2501,1.176,1.0122,0.845,0.7593,0.7593,0.7515,0.6694,0.5092,0.5092,0.4194,0.2592,0.2592,0.2553,0.2515,0.2515,0.2515,0.2515,0.2515,0.2515,0.2515,0.2515,0.2515,0.2515,0.2515,0.2515,0.2515,0.0,0.0,0.0,0.0,0.0,0.0,0.9792,0.9792,0.9792,0.0,0.0,0.0,0.9954,0.9954,1.0018,1.0202,1.012,1.0191,1.0477,1.049,1.0561,1.0681,1.0688,1.0688,1.0688,1.0688,1.0688,1.0688,1.0688,1.0688,1.0688,1.0688,1.0688,1.0688,1.0688,1.0711,1.0748,1.0748,1.0806,1.0839,1.0765,1.0748,1.0759,1.0826,1.0782,1.0708,1.086,1.0843,1.0755,1.0829,1.1126,1.1607,1.2257,1.2876,1.3373,1.3456,1.3686,1.3863,1.3658,0.0,0.0,0.0,0.0,0.0,1.3384,1.3425,1.3297,1.2721,1.2542,1.2295,1.1724,1.1614,1.1725,1.187,1.2118,1.2305,1.2342,1.2437,1.2501,1.2501,1.2501,1.2501,1.2501,1.2501,1.2501,0.0,1.2501,1.2501,1.2501,1.2501,1.2308,1.1837,1.0161,0.9306,0.9306,0.81,0.7281,0.6811,0.6811,0.5914,0.4312,0.4312,0.3648,0.2515,0.2515,0.2515,0.2515,0.2515,0.2515,0.2515,0.2515,0.2515,0.2515,0.2515,0.2515,0.2515,0.0,0.0,0.0,0.0,0.0,0.9907,1.0002,1.0012,1.0012,0.0,0.0,0.0,1.0025,0.9987,1.0055,1.0175,1.0215,1.0275,1.048,1.0551,1.0626,1.0684,1.0688,1.0688,1.0688,1.0688,1.0688,1.0688,1.0688,1.0721,1.0782,1.0782,1.0782,1.0782,1.0782,1.0745,1.0688,1.0688,1.0688,1.0688,1.0688,1.0688,1.0698,1.0786,1.0765,1.0698,1.0789,1.0762,1.0688,1.0688,1.1057,1.1555,1.1944,1.2456,1.29,1.3044,1.3255,1.343,1.3392,1.3382,1.3354,1.3283,0.0,0.0,1.351,1.3524,1.3401,1.2798,1.2744,1.2613,1.1979,1.1835,1.1863,1.1946,1.2056,1.2121,1.2186,1.2322,1.2413,1.2413,1.2467,1.2501,1.2501,1.2501,1.2501,1.2501,1.2501,1.2501,1.2501,1.2501,1.2501,1.2501,1.1563,1.1056,1.1056,1.0083,0.9229,0.8526,0.8526,0.7316,0.5014,0.5014,0.4078,0.2515,0.2515,0.2515,0.2515,0.2515,0.2515,0.2515,0.2515,0.2515,0.2515,0.2515,0.2515,0.2515,0.0,0.0,0.9883,1.0021,1.0042,1.0089,1.0259,1.0312,1.0312,0.0,1.0293,1.0259,1.0106,1.0048,1.0069,1.0069,1.0324,1.0473,1.049,1.0619,1.0671,1.0688,1.0688,1.0688,1.0688,1.0688,1.0688,1.0688,1.0704,1.0782,1.0914,1.0931,1.0938,1.0938,1.0921,1.084,1.0711,1.0694,1.0688,1.0688,1.0688,1.0688,1.0688,1.0688,1.0688,1.0688,1.0688,1.0688,1.0688,1.0708,1.1037,1.1425,1.1443,1.1812,1.2299,1.2574,1.2746,1.2852,1.3034,1.3075,1.3092,1.3092,1.3092,0.0,1.3337,1.3239,1.3017,1.2628,1.2671,1.2665,1.2284,1.2226,1.2234,1.2216,1.1994,1.1897,1.205,1.2207,1.2267,1.2267,1.2376,1.2454,1.2454,1.2467,1.2478,1.2478,1.2491,1.2501,1.2501,1.2501,1.2501,1.2501,1.2501,1.2501,1.2501,1.2501,1.176,1.028,1.028,0.8601,0.556,0.5366,0.4351,0.2749,0.2592,0.2515,0.2515,0.2515,0.2515,0.2515,0.2515,0.2515,0.2515,0.2515,0.2515,0.2515,0.0,1.0192,1.0202,1.0232,1.0236,1.0246,1.0276,1.0312,1.0312,1.0312,1.0378,1.0487,1.0546,1.048,1.0405,1.0405,1.0354,1.0371,1.0483,1.0521,1.0592,1.0714,1.0688,1.0688,1.0688,1.0688,1.0688,1.0688,1.0809,1.0884,1.0917,1.1067,1.1155,1.1118,1.0965,1.0897,1.0863,1.0738,1.0688,1.0688,1.0688,1.0688,1.0688,1.0688,1.0688,1.0688,1.0688,1.0688,1.0708,1.083,1.0924,1.1036,1.1221,1.152,1.1817,1.1886,1.2333,1.2811,1.2844,1.2968,1.3092,1.3092,1.3092,0.0,1.3137,1.3257,1.3214,1.2835,1.2754,1.2674,1.2257,1.2333,1.2381,1.2245,1.2155,1.2073,1.1894,1.201,1.2142,1.2142,1.2169,1.2186,1.2186,1.2298,1.2332,1.2332,1.2437,1.2501,1.2501,1.2501,1.2501,1.2501,1.2501,1.2501,1.2501,1.2501,1.2347,1.1995,1.1995,1.094,0.899,0.763,0.6108,0.4429,0.3101,0.2515,0.2515,0.2515,0.2515,0.2515,0.2515,0.2515,0.2515,0.2515,0.2515,0.2515,1.0312,1.0312,1.0335,1.0407,1.0385,1.0412,1.0487,1.05,1.05,1.05,1.0493,1.0521,1.0599,1.0473,1.0385,1.0385,1.0385,1.0415,1.0487,1.0565,1.0639,1.0684,1.0688,1.0688,1.0688,1.0688,1.0688,1.0688,1.0765,1.084,1.0917,1.0988,1.1056,1.1053,1.0948,1.0874,1.0796,1.0721,1.0688,1.0688,1.0688,1.0688,1.0688,1.0688,1.0688,1.0688,1.0688,1.0688,1.0698,1.0775,1.0799,1.0813,1.0921,1.1077,1.1246,1.1415,1.1854,1.2292,1.2292,1.2633,0.0,1.2733,0.0,0.0,0.0,1.3104,1.3132,1.2728,1.2897,1.299,1.2574,1.2578,1.2608,1.2521,1.2267,1.1966,1.1782,1.1864,1.1945,1.1945,1.2053,1.2098,1.2098,1.2169,1.2213,1.2213,1.2244,1.2281,1.2281,1.2355,1.2396,1.2396,1.2464,1.2501,1.2501,1.2501,1.2501,1.2501,1.2501,1.1605,0.9967,0.9148,0.7394,0.4936,0.4117,0.3258,0.2515,0.2515,0.2515,0.2515,0.2515,0.2515,0.2515,0.2515,0.2515,0.2515,1.0268,1.0333,1.0402,1.0517,1.0534,1.0578,1.0667,1.0688,1.0688,1.0688,1.0547,1.0469,1.0534,1.0368,1.03,1.0365,1.047,1.0534,1.0534,1.0653,1.0688,1.0688,1.0688,1.0688,1.0688,1.0688,1.0688,1.0688,1.0718,1.0792,1.0914,1.0945,1.0955,1.0955,1.0928,1.0846,1.0728,1.0698,1.0688,1.0688,1.0688,1.0688,1.0688,1.0688,1.0688,1.0688,1.0688,1.0688,1.0688,1.0688,1.0688,1.0688,1.0688,1.0688,1.0754,1.1019,1.138,1.1681,0.0,0.0,0.0,0.0,0.0,1.2704,0.0,0.0,0.0,1.262,1.2966,1.3198,1.2858,1.2813,1.2859,1.2828,1.2408,1.2027,1.1864,1.1807,1.1773,1.1701,1.1864,1.2002,1.1972,1.2019,1.2067,1.2098,1.2098,1.2098,1.2098,1.2217,1.2247,1.2247,1.2359,1.243,1.2461,1.2461,1.2474,1.2501,1.2501,1.1798,1.0474,1.0161,0.8524,0.595,0.5638,0.4547,0.2983,0.2983,0.2789,0.2515,0.2515,0.2515,0.2515,0.2515,0.2515,0.2515,1.0207,1.0439,1.0673,1.0657,1.0694,1.0667,1.0684,1.0688,1.0688,1.0688,1.0442,1.0366,1.0627,1.0416,1.034,1.0637,1.0683,1.0694,1.0694,1.0677,1.0688,1.0688,1.0688,1.0688,1.0688,1.0688,1.0688,1.0688,1.0823,1.0897,1.0884,1.108,1.1172,1.1166,1.0972,1.0907,1.088,1.0745,1.0688,1.0688,1.0688,1.0688,1.0688,1.0688,1.0688,1.0688,1.0688,1.0688,1.0688,0.0,1.0688,1.0688,0.0,1.0688,1.0721,1.0754,1.0982,0.0,0.0,0.0,0.0,0.0,1.2342,0.0,0.0,0.0,1.2831,1.2769,0.0,1.2864,1.2798,0.0,0.0,1.2822,1.2737,1.2616,1.2451,1.2018,1.1587,1.1306,1.1494,1.1616,1.148,1.1704,1.1915,1.2087,1.2098,1.2098,1.2098,1.2115,1.2125,1.2125,1.2142,1.2213,1.2315,1.2315,1.2376,1.2501,1.2501,1.2385,1.2189,1.0668,0.9812,0.9343,0.7864,0.6264,0.4702,0.4702,0.3843,0.2515,0.2515,0.2515,0.2515,0.2515,0.2515,0.2515,0.9111,0.938,0.948,0.948,0.948,0.9745,1.0585,1.0688,1.0718,1.0809,1.0685,1.0715,1.0968,1.0769,1.0652,1.0786,1.0738,1.0688,1.0688,1.0688,1.0688,1.0688,1.0688,1.0688,1.0688,1.0688,1.0688,1.0688,1.0752,1.0782,1.0782,1.0877,1.0907,1.0904,1.0809,1.0782,1.0779,1.0715,1.0688,1.0688,1.0688,1.0688,1.0688,1.0688,1.0688,1.0688,1.0688,1.0688,1.0688,0.0,1.0688,0.0,0.0,0.0,0.0,1.0688,0.0,0.0,0.0,0.0,0.0,0.0,0.0,0.0,1.2441,0.0,1.2572,0.0,0.0,0.0,0.0,0.0,0.0,0.0,1.2716,1.2579,1.2408,1.2003,1.1645,1.1507,0.0,0.0,1.1389,1.1582,1.1735,1.1799,1.1806,1.1806,1.1806,1.1884,1.1928,1.1928,1.2053,1.2132,1.2193,1.2196,1.2233,1.2379,1.2379,1.2423,1.2463,1.176,1.0901,0.9967,0.9267,0.7433,0.5014,0.5014,0.4,0.2515,0.2515,0.2515,0.2515,0.2515,0.2515,0.2515,0.7238,0.7738,0.7971,0.7872,0.7938,0.8484,0.9968,1.0175,1.0326,1.0751,1.0805,1.0859,1.096,1.0771,1.0657,1.0688,1.0618,1.0555,1.0555,1.0654,1.0688,1.0688,1.0688,1.0688,1.0688,1.0688,1.0688,1.0688,1.0688,1.0688,1.0688,1.0688,1.0688,1.0688,1.0688,1.0688,1.0688,1.0688,1.0688,1.0688,1.0688,1.0688,1.0688,1.0688,1.0688,1.0688,1.0688,1.0688,1.0688,1.0688,1.0688,0.0,1.0688,1.0688,1.0688,0.0,0.0,0.0,1.0754,0.0,0.0,0.0,0.0,0.0,0.0,0.0,0.0,0.0,0.0,0.0,0.0,0.0,1.2671,1.2671,0.0,1.2252,1.2196,1.1813,1.1551,1.1551,0.0,0.0,0.0,1.1467,1.1555,1.1555,0.0,1.1584,1.1584,1.1678,1.1736,1.1736,1.1881,1.1996,1.2036,1.2036,1.2074,1.2264,1.2264,1.2301,1.2444,1.2444,1.1802,1.0707,1.0707,0.9029,0.6378,0.6378,0.5092,0.3179,0.3179,0.2906,0.2515,0.2515,0.2515,0.2515,0.4567,0.5534,0.6366,0.6036,0.6268,0.7,0.8629,0.8852,0.9274,1.0445,1.0602,1.0554,1.0428,1.0131,1.0004,1.0209,1.0226,1.0226,1.0226,1.0522,1.0688,1.0688,1.0688,1.0688,1.0688,1.0688,1.0688,1.0688,1.0688,1.0688,1.0688,1.0688,1.0688,1.0688,1.0688,1.0688,1.0688,1.0688,1.0688,1.0688,1.0688,1.0688,1.0688,0.0,1.0688,1.0688,1.0688,0.0,0.0,1.0688,1.0688,0.0,0.0,0.0,0.0,0.0,0.0,0.0,0.0,0.0,0.0,1.1118,0.0,0.0,0.0,0.0,1.1813,0.0,0.0,0.0,1.2309,1.2309,1.2309,1.2309,1.2048,0.0,0.0,1.1457,1.1232,1.1232,1.1031,0.0,0.0,1.1342,1.1399,0.0,1.1535,0.0,1.1584,1.1587,1.1626,1.1626,1.1597,1.1661,1.18,1.18,1.1915,1.2108,1.2108,1.2186,1.2298,1.2298,1.2334,1.2424,1.2424,1.145,0.985,0.985,0.7898,0.4936,0.4936,0.3921,0.2515,0.2515,0.2515,0.2515,0.2623,0.3126,0.3864,0.4701,0.4934,0.5863,0.8397,0.852,0.856,0.9126,0.8899,0.8346,0.7447,0.801,0.8468,0.8529,0.9369,0.996,1.019,1.0323,1.0455,1.0688,1.0688,1.0688,1.0688,1.0688,1.0688,1.0688,1.0688,1.0688,1.0688,1.0688,1.0688,1.0688,1.0688,1.0688,1.0688,1.0688,1.0688,1.0688,1.0688,1.0688,1.0688,0.0,1.0688,1.0688,1.0688,1.0688,0.0,1.0688,1.0688,1.0688,1.0688,1.0688,1.0688,1.0688,1.0688,0.0,0.0,0.0,1.0721,1.0853,0.0,0.0,0.0,0.0,0.0,0.0,0.0,0.0,0.0,1.1978,1.1978,1.1978,1.1879,1.1813,0.0,1.1449,1.1118,1.0886,1.089,1.0934,0.0,0.0,0.0,0.0,1.1535,0.0,1.1584,1.1584,1.1584,1.1584,1.1584,1.1607,1.1655,1.1655,1.1765,1.1908,1.1908,1.1989,1.2176,1.2176,1.2258,1.2362,1.2362,1.1484,1.0006,1.0006,0.8682,0.6538,0.5444,0.4663,0.4039,0.2906,0.2515,0.2515,0.1818,0.202,0.2457,0.3194,0.3462,0.4597,0.7664,0.7271,0.7063,0.8209,0.7569,0.6625,0.5613,0.6258,0.6966,0.7407,0.8257,0.912,0.996,1.0168,1.0408,1.0691,1.0738,1.0742,1.0688,1.0688,1.0688,1.0688,1.0688,1.0688,1.0688,1.0688,1.0688,1.0688,1.0688,1.0688,1.0688,1.0688,1.0688,1.0688,1.0688,1.0688,0.0,0.0,1.0688,1.0688,0.0,1.0688,1.0688,1.0688,1.0688,1.0688,1.0688,1.0688,1.0688,1.0688,1.0688,1.0688,1.0688,1.0688,0.0,1.0688,1.0688,0.0,1.0986,0.0,0.0,0.0,0.0,0.0,0.0,0.0,0.0,1.1582,1.1483,1.1416,0.0,1.1185,1.0949,1.0721,1.0775,1.0857,1.0911,1.1087,1.1277,1.1385,1.1484,1.1562,0.0,0.0,1.1584,1.1584,1.1584,1.1584,1.1584,1.1584,1.1627,1.1719,1.1719,1.1833,1.1979,1.1979,1.2064,1.221,1.2267,1.1727,1.08,1.0886,0.9889,0.8214,0.6538,0.5522,0.4779,0.3101,0.2515,0.2515,0.202,0.219,0.2089,0.1685,0.1956,0.3231,0.6304,0.5173,0.4912,0.7524,0.6571,0.538,0.4799,0.4924,0.5542,0.6746,0.6944,0.7753,0.9604,1.0059,1.0412,1.0715,1.084,1.0846,1.0701,1.0691,1.0688,1.0688,1.0688,1.0688,1.0688,1.0688,1.0688,1.0688,1.0688,1.0688,1.0688,1.0688,1.0688,1.0688,1.0688,1.0688,1.0688,1.0688,1.0688,1.0688,1.0688,1.0688,1.0688,1.0688,1.0688,1.0688,1.0688,1.0688,1.0688,1.0688,1.0688,1.0688,1.0688,1.0688,1.0688,1.0688,0.0,0.0,0.0,0.0,1.0688,0.0,0.0,0.0,0.0,0.0,0.0,1.1181,1.092,1.0688,1.0688,1.0688,1.0688,1.0688,1.0694,1.0752,1.089,1.0917,1.1043,1.1358,1.1389,1.1457,0.0,0.0,1.1577,1.1584,1.1584,1.1584,1.1584,1.1584,1.1584,1.1584,1.1584,1.1655,1.1783,1.1783,1.1904,1.2094,1.2203,1.2274,1.2291,1.2433,1.1553,0.9959,0.8292,0.6538,0.4779,0.3101,0.2515,0.2515,0.1717,0.2003,0.2155,0.2051,0.2138,0.2861,0.4885,0.4223,0.3781,0.4561,0.3728,0.2586,0.142,0.3205,0.4645,0.4964,0.596,0.7493,0.97,0.8926,0.9185,1.0981,1.0951,1.0897,1.0857,1.0745,1.0688,1.0688,1.0688,1.0688,1.0688,1.0688,1.0688,1.0688,1.0688,1.0688,1.0688,1.0688,1.0688,1.0688,1.0688,1.0688,1.0688,0.0,1.0688,1.0688,1.0688,1.0688,1.0688,1.0688,1.0688,1.0688,1.0688,1.0688,1.0688,1.0688,1.0688,1.0688,1.0688,1.0688,1.0688,1.0688,1.0688,1.0688,0.0,0.0,0.0,0.0,0.0,0.0,0.0,0.0,0.0,1.0817,1.0754,1.0688,1.0688,1.0688,1.0688,1.0688,1.0786,1.0826,1.0752,1.0978,1.1172,1.1251,1.1324,1.1457,1.1573,0.0,0.0,1.1616,1.1584,1.1584,1.1584,1.1584,1.1584,1.1584,1.1584,1.1604,1.1638,1.1638,1.1715,1.1894,1.1895,1.2016,1.2169,1.2284,1.2113,1.1546,0.9973,0.7589,0.4779,0.3101,0.2515,0.2671,0.1582,0.194,0.2208,0.2235,0.2102,0.253,0.4099,0.3358,0.3066,0.4335,0.2831,0.1606,0.1494,0.2898,0.4037,0.4569,0.5422,0.7103,0.9799,0.8772,0.8986,1.1096,1.1148,1.1046,1.0884,1.083,1.0752,1.0688,1.0688,1.0688,1.0688,1.0688,1.0688,1.0688,1.0688,1.0688,1.0688,1.0688,1.0688,1.0688,1.0688,1.0688,0.0,1.0688,1.0688,1.0688,1.0688,1.0688,1.0688,1.0688,1.0688,1.0688,1.0688,1.0688,1.0688,1.0688,1.0688,1.0688,1.0688,1.0688,1.0688,1.0688,1.0688,1.0688,1.0688,1.0688,1.0688,0.0,0.0,0.0,0.0,0.0,0.0,1.0688,1.0688,1.0688,0.0,1.0688,1.0688,1.0688,1.0762,1.0782,1.0694,1.0989,1.1196,1.1196,1.1278,1.1366,0.0,0.0,0.0,1.1518,1.1586,1.1584,1.1584,1.1584,1.1584,1.1584,1.1584,1.1584,1.1584,1.1584,1.1627,1.1705,1.1766,1.1844,1.1972,1.2166,1.2268,1.2149,1.0583,0.8407,0.5991,0.5016,0.4236,0.3609,0.2158,0.2562,0.2784,0.2637,0.2267,0.2387,0.3464,0.2473,0.2513,0.4954,0.2822,0.1597,0.2945,0.3151,0.362,0.4691,0.4948,0.643,0.9689,0.8789,0.9087,1.1157,1.1366,1.126,1.0948,1.0924,1.084,1.0688,1.0688,1.0688,1.0688,1.0688,1.0688,1.0688,1.0688,1.0688,1.0688,1.0688,1.0688,1.0688,1.0688,1.0688,1.0688,1.0688,1.0688,1.0688,1.0688,1.0688,1.0688,1.0688,1.0688,1.0688,1.0688,1.0688,1.0688,1.0688,1.0688,1.0688,1.0688,1.0688,1.0688,1.0688,1.0688,1.0688,1.0688,1.0688,1.0688,1.0688,1.0688,1.0688,0.0,0.0,0.0,1.0688,0.0,0.0,0.0,1.0688,1.0688,1.0688,1.0704,0.0,1.0688,1.0972,1.1169,1.1169,1.1169,0.0,0.0,0.0,0.0,1.1419,1.1552,1.1584,1.1584,0.0,1.1584,1.1584,1.1584,1.1584,1.1584,1.1584,1.1584,1.1626,1.1712,1.1766,1.178,1.1969,1.2173,1.2149,1.0563,0.91,0.7786,0.7593,0.6733,0.5444,0.5481,0.5953,0.5675,0.4422,0.3918,0.3226,0.1896,0.1427,0.1487,0.2309,0.1639,0.1219,0.1486,0.2552,0.3354,0.3565,0.3324,0.4783,0.855,0.7218,0.7839,1.1395,1.1443,1.1307,1.1162,1.0975,1.084,0.0,0.0,1.0688,1.0688,1.0688,1.0688,1.0688,1.0688,1.0688,1.0688,1.0688,0.0,1.0688,1.0688,1.0688,1.0688,1.0688,1.0688,1.0688,1.0688,1.0688,1.0688,1.0688,1.0688,1.0688,1.0688,1.0688,1.0688,1.0688,1.0688,1.0688,1.0688,1.0688,1.0688,1.0688,1.0688,1.0688,1.0688,1.0688,1.0688,1.0688,1.0688,1.0688,1.0688,0.0,0.0,0.0,0.0,0.0,0.0,0.0,1.0688,1.0688,1.0796,1.0826,0.0,1.085,1.0951,1.0951,1.0951,0.0,0.0,0.0,0.0,0.0,1.1606,0.0,0.0,0.0,1.1584,1.1584,1.1584,1.1584,1.1584,1.1584,1.1584,1.1584,1.1611,1.1657,1.1667,1.1776,1.2037,1.2139,1.0465,0.9724,0.9384,0.8022,0.8175,0.9071,0.659,0.6852,0.6344,0.4637,0.4043,0.3199,0.1425,0.096,0.1227,0.2435,0.1912,0.1768,0.2751,0.3452,0.3785,0.3672,0.4373,0.5896,0.8448,0.7992,0.8817,1.1472,1.1548,1.1399,1.1203,1.1094,1.0948,1.0688,0.0,0.0,1.0688,1.0688,1.0688,1.0688,1.0688,1.0688,1.0688,0.0,0.0,1.0688,1.0688,1.0688,1.0688,1.0688,1.0688,1.0688,1.0688,1.0688,1.0688,1.0688,1.0688,1.0688,1.0688,1.0688,1.0688,1.0688,1.0183,0.9613,0.9613,0.9042,0.8473,0.8473,0.8473,0.8473,0.8473,0.8473,0.8673,0.9443,0.9613,0.9845,1.0585,1.0688,0.0,0.0,0.0,0.0,0.0,0.0,1.0688,1.0688,1.0752,1.0769,1.0694,0.0,1.083,1.0877,1.0914,0.0,0.0,0.0,0.0,0.0,0.0,0.0,0.0,0.0,0.0,1.1584,1.1584,1.1584,1.1584,1.1584,1.1584,1.1584,1.1584,1.1584,1.1594,1.1736,1.1965,1.2104,1.1372,1.1175,1.1214,1.0397,1.0591,1.1059,0.7191,0.7254,0.6585,0.4369,0.3652,0.2949,0.1651,0.1154,0.1553,0.3138,0.2666,0.2701,0.4198,0.4313,0.4243,0.4125,0.5415,0.6949,0.8706,0.9036,0.9906,1.1548,1.1589,1.1443,1.1203,1.1166,1.0989,0.0,0.0,0.0,0.0,0.0,1.0688,1.0688,0.0,0.0,0.0,0.0,1.0688,1.0688,1.0688,1.0688,1.0688,1.0688,1.0688,1.0688,1.0688,1.0688,1.0688,1.0688,1.0688,1.0688,1.0688,1.0688,1.0654,1.0349,0.948,0.854,0.8205,0.73,0.64,0.64,0.64,0.64,0.64,0.64,0.6733,0.7902,0.8138,0.8473,0.9576,1.0047,0.0,0.0,0.0,0.0,0.0,0.0,1.0688,1.0688,1.0688,1.0698,1.0732,0.0,0.0,0.0,0.0,0.0,1.1189,0.0,0.0,0.0,0.0,1.1569,1.1569,0.0,1.1584,0.0,1.1584,1.1584,1.1584,1.1584,1.1584,1.1584,1.1584,1.1584,1.1594,1.1702,1.1874,1.2064,1.2182,1.2328,1.2461,1.2491,1.2501,1.2111,0.8408,0.8434,0.7477,0.4138,0.3221,0.285,0.2575,0.2508,0.2654,0.3166,0.3434,0.3671,0.3841,0.4122,0.438,0.4541,0.4389,0.5696,0.9028,0.8922,0.9612,1.1512,1.1487,1.1335,1.12,1.1036,1.0853,0.0,0.0,1.0688,0.0,0.0,0.0,0.0,0.0,0.0,0.0,1.0688,1.0688,1.0688,1.0688,1.0688,1.0688,1.0688,1.0688,1.0688,1.0688,1.0688,1.0688,1.0688,1.0688,1.0688,1.0688,1.0688,1.0452,0.9178,0.8706,0.8307,0.6967,0.65,0.64,0.64,0.64,0.64,0.64,0.64,0.6433,0.6564,0.66,0.6633,0.6767,0.7902,0.8806,0.0,0.0,0.0,0.0,0.0,1.0688,1.0688,1.0688,1.0742,1.088,1.0769,0.0,0.0,1.0988,0.0,0.0,0.0,0.0,1.1385,0.0,1.1413,1.1413,1.1552,1.1584,1.1584,1.1584,1.1584,1.1584,1.1584,1.1584,1.1584,1.1584,1.1584,1.1584,1.1597,1.1688,1.1867,1.2023,1.2213,1.2325,1.2454,1.2501,1.2463,0.8668,0.8834,0.8336,0.6667,0.6246,0.5731,0.0,0.4309,0.4661,0.5666,0.4632,0.4131,0.4969,0.4421,0.4398,0.535,0.6229,0.742,0.907,0.997,1.0742,1.1448,1.1423,1.128,1.104,1.0945,1.084,0.0,0.0,0.0,0.0,0.0,0.0,0.0,0.0,1.0688,1.0688,1.0688,1.0688,1.0688,1.0688,1.0688,1.0688,1.0688,1.0688,1.0688,1.0688,1.0688,1.0688,1.0688,1.0688,1.0688,1.0688,1.0688,1.0585,1.0014,0.864,0.7167,0.6566,0.5165,0.3863,0.3863,0.3863,0.3863,0.3863,0.3863,0.4131,0.4967,0.58,0.64,0.64,0.7603,0.8607,0.0,0.0,0.0,0.0,0.0,0.0,1.0688,0.0,1.0846,1.0877,1.086,0.0,0.0,0.0,0.0,0.0,0.0,0.0,1.1389,0.0,1.1528,1.1528,1.1553,1.1584,1.1584,1.1584,1.1584,1.1584,1.1584,1.1584,1.1584,1.1584,1.1584,1.1584,1.1584,1.1665,1.18,1.1898,1.2074,1.2298,1.2352,1.243,1.2501,0.8716,0.878,0.8499,0.0,0.7443,0.7114,0.6174,0.6097,0.6667,0.8107,0.6502,0.5533,0.6437,0.5752,0.566,0.674,0.7904,0.8917,0.9654,1.0815,1.1436,1.1363,1.1284,0.0,1.0921,1.087,1.0796,1.0688,1.0688,0.0,0.0,0.0,0.0,0.0,1.0688,1.0688,1.0688,1.0688,1.0688,1.0688,1.0688,1.0688,1.0688,1.0688,1.0688,1.0688,1.0688,1.0688,1.0688,1.0688,1.0688,1.0688,1.0688,1.0688,1.0621,1.0216,0.864,0.6967,0.6533,0.4964,0.3328,0.2927,0.3127,0.3227,0.2389,0.2524,0.2994,0.3564,0.4466,0.5165,0.5165,0.6702,0.7938,0.7938,0.0,0.0,0.0,1.0688,0.0,1.0688,1.0782,1.088,1.0968,1.0938,0.0,0.0,0.0,0.0,0.0,0.0,0.0,0.0,0.0,0.0,0.0,1.1596,1.1584,1.1584,1.1584,1.1584,1.1584,1.1584,1.1584,1.1584,1.1584,1.1584,1.1584,1.1584,1.1677,1.1736,1.178,1.1993,1.2268,1.2274,1.2379,1.2501,0.8672,0.8308,0.7694,0.578,0.5431,0.5899,0.7267,0.7767,0.8501,0.9987,0.9214,0.8407,0.801,0.831,0.8591,0.8747,0.8792,0.9462,1.1086,1.1203,1.1203,0.0,0.0,1.0884,1.0914,1.0769,1.0688,1.0688,0.0,0.0,1.0688,0.0,1.0688,1.0688,1.0688,1.0688,1.0688,1.0688,1.0688,1.0688,1.0688,1.0688,1.0688,1.0688,1.0688,1.0688,1.0688,1.0688,1.0688,1.0688,1.0688,1.0688,1.0688,1.0688,1.0419,0.9042,0.8607,0.8271,0.68,0.6364,0.5999,0.4634,0.5334,0.5631,0.2825,0.3262,0.3899,0.2524,0.2256,0.2256,0.2256,0.453,0.6433,0.6433,0.0,0.0,0.0,0.0,0.0,1.0688,1.0688,1.0839,1.1166,1.1033,0.0,0.0,0.0,0.0,0.0,0.0,0.0,1.1392,1.1392,0.0,1.1396,1.1545,1.1584,1.1584,1.1584,1.1584,1.1584,1.1584,1.1584,1.1584,1.1584,1.1584,1.1584,1.1584,1.1584,1.1636,1.1739,1.1928,1.2121,1.2233,1.2379,1.2501,0.8435,0.8494,0.8617,0.8948,0.9008,0.9175,0.9613,0.9779,1.0014,1.0485,1.025,0.9981,0.9848,0.8845,0.8626,0.0,0.9832,1.0208,0.0,1.1107,1.1155,1.0988,1.0938,1.0867,1.0762,1.0711,1.0688,1.0688,0.0,0.0,0.0,1.0688,1.0688,1.0688,1.0688,1.0688,1.0688,1.0688,1.0688,1.0688,1.0688,1.0688,1.0688,1.0688,1.0688,1.0688,1.0688,1.0688,1.0688,1.0688,1.0688,1.0688,1.0688,1.0688,1.0621,1.015,0.9344,0.8507,0.8038,0.7167,0.6299,0.5834,0.6066,0.5899,0.4065,0.3228,0.2726,0.2289,0.2188,0.2188,0.2188,0.4498,0.64,0.64,0.8806,0.0,0.0,0.0,1.0725,1.083,1.0962,1.1135,1.1336,1.1277,0.0,0.0,0.0,0.0,0.0,0.0,0.0,0.0,1.1494,0.0,1.1548,1.1596,1.1584,1.1584,1.1584,1.1584,1.1584,1.1584,1.1584,1.1584,1.1584,1.1584,1.1584,1.1584,1.1584,1.1587,1.1634,1.1775,1.1925,1.2115,1.2268,1.2372,0.9211,0.9377,0.9679,1.0552,1.0688,1.0688,1.0688,1.0688,1.0688,1.0688,1.0688,1.0688,1.0688,0.9682,0.0,1.0323,1.0468,1.0588,1.0796,1.0945,1.0958,1.0833,1.083,1.0786,1.0688,1.0688,0.0,1.0688,1.0688,1.0688,1.0688,1.0688,1.0688,1.0688,1.0688,1.0688,1.0688,1.0688,1.0688,1.0688,1.0688,1.0688,1.0688,1.0688,1.0688,1.0688,1.0688,1.0688,1.0688,1.0688,1.0688,1.0688,1.0688,1.0688,1.0688,1.0688,1.0081,0.9377,0.9377,0.8706,0.7902,0.7367,0.7234,0.6702,0.4734,0.3194,0.2188,0.2188,0.2188,0.2188,0.2188,0.4498,0.64,0.64,0.8806,1.0688,1.0688,0.0,0.0,0.0,0.0,0.0,0.0,1.1248,1.1271,0.0,0.0,0.0,0.0,0.0,0.0,1.148,1.1569,0.0,1.1584,1.1584,1.1584,1.1584,1.1584,1.1584,1.1584,1.1584,1.1584,1.1584,1.1584,1.1584,1.1584,1.1584,1.1584,1.1584,1.1584,1.1668,1.1813,1.2043,1.2196,1.2311,1.0688,1.0688,1.0688,0.0,1.0688,0.0,1.0688,1.0688,1.0688,1.0688,1.0688,1.0688,1.0688,1.0688,1.0688,1.0688,0.0,0.0,0.0,1.0688,1.0688,1.0688,1.0688,1.0688,1.0688,1.0688,1.0688,1.0688,1.0688,1.0688,1.0688,1.0688,1.0688,1.0688,1.0688,1.0688,1.0688,1.0688,1.0688,1.0688,1.0688,1.0688,1.0688,1.0688,1.0688,1.0688,1.0688,1.0688,1.0688,1.0688,1.0688,1.0688,1.0688,1.0688,1.0688,1.0688,1.0688,1.0688,1.0688,1.0688,1.0386,0.9075,0.8607,0.7705,0.4935,0.3194,0.2188,0.2188,0.2289,0.2357,0.2357,0.4664,0.6566,0.6566,0.8881,1.0701,1.0701,0.0,0.0,0.0,0.0,0.0,0.0,1.1088,1.107,0.0,0.0,0.0,0.0,0.0,1.146,1.1613,1.1584,1.1584,1.1584,1.1584,1.1584,1.1584,1.1584,1.1584,1.1584,1.1584,1.1584,1.1584,1.1584,1.1584,1.1584,1.1584,1.1584,1.1584,1.1584,1.1665,1.18,1.204,1.219,1.2294,0.0,0.0,1.0688,1.0688,1.0688,1.0688,1.0688,1.0688,1.0688,1.0688,1.0688,1.0688,1.0688,1.0688,1.0688,1.0688,1.0688,1.0688,1.0688,1.0688,1.0688,1.0688,1.0688,1.0688,1.0688,1.0688,1.0688,1.0688,1.0688,1.0688,1.0688,1.0688,1.0688,1.0688,1.0688,1.0688,1.0688,1.0688,1.0688,1.0688,1.0688,1.0688,1.0688,1.0688,1.0688,1.0688,1.0688,1.0688,1.0688,1.0688,1.0688,1.0688,1.0688,1.0688,1.0688,1.0688,1.0688,1.0688,1.0688,1.0688,1.0621,1.0283,0.854,0.6466,0.4701,0.3194,0.2188,0.2188,0.3061,0.3798,0.3798,0.6136,0.8071,0.8071,0.9634,1.086,1.086,1.1019,0.0,0.0,1.1248,1.129,1.1516,1.1458,1.1424,0.0,0.0,0.0,0.0,1.1409,1.146,1.1613,1.1584,1.1584,1.1584,1.1584,1.1584,1.1584,1.1584,1.1584,1.1584,1.1584,1.1584,1.1584,1.1584,1.1584,1.1584,1.1584,1.1584,1.1584,1.1584,1.1604,1.1665,1.2002,1.2121,1.219,1.0688,1.0688,1.0688,1.0688,1.0688,1.0688,1.0688,1.0688,1.0688,1.0688,1.0688,1.0688,1.0688,1.0688,1.0688,1.0688,1.0688,1.0688,1.0688,1.0688,1.0688,1.0688,1.0688,1.0688,1.0688,1.0688,1.0688,1.0688,1.0688,1.0688,1.0688,1.0688,1.0688,1.0688,1.0688,1.0688,1.0688,1.0688,1.0688,1.0688,1.0688,1.0688,1.0688,1.0688,1.0688,1.0688,1.0688,1.0688,1.0688,1.0688,1.0688,1.0688,1.0688,1.0688,1.0688,1.0688,1.0688,1.0688,1.0688,1.0688,1.0552,0.9915,0.8573,0.7034,0.5601,0.4666,0.4129,0.4129,0.4731,0.5267,0.5267,0.7141,0.8691,0.8691,0.994,1.0938,1.1002,1.1149,0.0,1.1372,1.1276,1.1314,1.1577,1.144,1.137,1.1465,0.0,0.0,1.1494,1.1494,1.1535,1.1616,1.1584,1.1584,1.1584,1.1584,1.1584,1.1584,1.1584,1.1584,1.1584,1.1584,1.1584,1.1584,1.1584,1.1584,1.1584,1.1584,1.1584,1.1584,1.1584,1.1584,1.1647,1.187,1.204,1.2132,1.0688,1.0688,1.0688,1.0688,1.0688,1.0688,1.0688,1.0688,1.0688,1.0688,1.0688,1.0688,1.0688,1.0688,1.0688,1.0688,1.0688,1.0688,1.0688,1.0688,1.0688,1.0688,1.0688,1.0688,1.0688,1.0688,1.0688,1.0688,1.0688,1.0688,1.0688,1.0688,1.0688,1.0688,1.0688,1.0688,1.0688,1.0688,1.0688,1.0688,1.0688,1.0688,1.0688,1.0688,1.0688,1.0688,1.0688,1.0688,1.0688,1.0688,1.0688,1.0688,1.0688,1.0688,1.0688,1.0688,1.0688,1.0688,1.0688,1.0688,1.0349,0.8942,0.8607,0.8205,0.6733,0.64,0.64,0.64,0.6577,0.6755,0.6755,0.8088,0.9154,0.9135,1.0159,1.1016,1.1183,0.0,1.1315,1.1409,1.122,1.1224,1.1584,1.1296,1.1224,1.1584,1.1584,1.1584,1.1584,1.1584,1.1584,1.1584,1.1584,1.1584,1.1584,1.1584,1.1584,1.1584,1.1584,1.1584,1.1584,1.1584,1.1584,1.1584,1.1584,1.1584,1.1584,1.1584,1.1584,1.1584,1.1584,1.1584,1.1636,1.1742,1.1928,1.2121,1.0688,1.0688,1.0688,1.0688,1.0688,1.0688,1.0688,1.0688,1.0688,1.0688,1.0688,1.0688,1.0688,1.0688,1.0688,1.0688,1.0688,1.0688,1.0688,1.0688,1.0688,1.0688,1.0688,1.0688,1.0688,1.0688,1.0688,1.0688,1.0688,1.0688,1.0688,1.0688,1.0688,1.0688,1.0688,1.0688,1.0688,1.0688,1.0688,1.0688,1.0688,1.0688,1.0688,1.0688,1.0688,1.0688,1.0688,1.0688,1.0688,1.0688,1.0688,1.0688,1.0688,1.0688,1.0688,1.0688,1.0688,1.0688,1.0688,1.0688,1.0349,0.8942,0.8607,0.8205,0.6733,0.64,0.64,0.64,0.7473,0.8421,0.8421,0.9753,1.0775,1.0592,1.0986,1.1284,1.1213,0.0,1.1558,1.1582,1.1534,1.1548,1.1584,1.1548,1.1548,1.1584,1.1584,1.1584,1.1584,1.1584,1.1584,1.1584,1.1584,1.1584,1.1584,1.1584,1.1584,1.1584,1.1584,1.1584,1.1584,1.1584,1.1584,1.1584,1.1584,1.1584,1.1584,1.1584,1.1584,1.1584,1.1584,1.1584,1.1636,1.1742,1.1928,1.2121,1.0688,1.0688,1.0688,1.0688,1.0688,1.0688,1.0688,1.0688,1.0688,1.0688,1.0688,1.0688,1.0688,1.0688,1.0688,1.0688,1.0688,1.0688,1.0688,1.0688,1.0688,1.0688,1.0688,1.0688,1.0688,1.0688,1.0688,1.0688,1.0688,1.0688,1.0688,1.0688,1.0688,1.0688,1.0688,1.0688,1.0688,1.0688,1.0688,1.0688,1.0688,1.0688,1.0688,1.0688,1.0688,1.0688,1.0688,1.0688,1.0688,1.0688,1.0688,1.0688,1.0688,1.0688,1.0688,1.0688,1.0688,1.0688,1.0688,1.0688,1.0552,0.9881,0.9745,0.9546,0.8875,0.8706,0.8726,0.8792,0.9399,0.9974,1.0079,1.0767,1.1263,1.1164,1.1304,0.0,0.0,1.146,1.1528,1.1573,1.1584,1.1584,1.1584,1.1584,1.1584,1.1584,1.1584,1.1584,1.1584,1.1584,1.1584,1.1584,1.1584,1.1584,1.1584,1.1584,1.1584,1.1584,1.1584,1.1584,1.1584,1.1584,1.1584,1.1584,1.1584,1.1584,1.1584,1.1584,1.1584,1.1584,1.1584,1.1584,1.1626,1.1658,1.1864,1.2111,1.0688,1.0688,1.0688,1.0688,1.0688,1.0688,1.0688,1.0688,1.0688,1.0688,1.0688,1.0688,1.0688,1.0688,1.0688,1.0688,1.0688,1.0688,1.0688,1.0688,1.0688,1.0688,1.0688,1.0688,1.0688,1.0688,1.0688,1.0688,1.0688,1.0688,1.0688,1.0688,1.0688,1.0688,1.0688,1.0688,1.0688,1.0688,1.0688,1.0688,1.0688,1.0688,1.0688,1.0688,1.0688,1.0688,1.0688,1.0688,1.0688,1.0688,1.0688,1.0688,1.0688,1.0688,1.0688,1.0688,1.0688,1.0688,1.0688,1.0688,1.0688,1.0688,1.0688,1.0688,1.0688,1.0688,1.0732,1.0884,1.0941,1.1043,1.1223,1.1376,1.1433,1.1396,0.0,0.0,0.0,1.1497,1.1487,1.1606,1.1584,1.1584,1.1584,1.1584,1.1584,1.1584,1.1584,1.1584,1.1584,1.1584,1.1584,1.1584,1.1584,1.1584,1.1584,1.1584,1.1584,1.1584,1.1584,1.1584,1.1584,1.1584,1.1584,1.1584,1.1584,1.1584,1.1584,1.1584,1.1584,1.1584,1.1584,1.1584,1.1584,1.1584,1.1782,1.205,1.0688,1.0688,1.0688,1.0688,1.0688,1.0688,1.0688,1.0688,1.0688,1.0688,1.0688,1.0688,1.0688,1.0688,1.0688,1.0688,1.0688,1.0688,1.0688,1.0688,1.0688,1.0688,1.0688,1.0688,1.0688,1.0688,1.0688,1.0688,1.0688,1.0688,1.0688,1.0688,1.0688,1.0688,1.0688,1.0688,1.0688,1.0688,1.0688,1.0688,1.0688,1.0688,1.0688,1.0688,1.0688,1.0688,1.0688,1.0688,1.0688,1.0688,1.0688,1.0688,1.0688,1.0688,1.0688,1.0688,1.0688,1.0688,1.0688,1.0688,1.0688,1.0688,1.0688,1.0688,1.0688,1.0688,1.0732,1.0884,1.1053,1.123,1.1345,1.1501,1.1555,1.1413,0.0,0.0,1.1426,1.1521,1.1606,1.1616,1.1584,1.1584,1.1584,1.1584,1.1584,1.1584,1.1584,1.1584,1.1584,1.1584,1.1584,1.1584,1.1584,1.1584,1.1584,1.1584,1.1584,1.1584,1.1584,1.1584,1.1584,1.1584,1.1584,1.1584,1.1584,1.1584,1.1584,1.1584,1.1584,1.1584,1.1584,1.1584,1.1584,1.1584,1.1678,1.1867,1.0688,1.0688,1.0688,1.0688,1.0688,1.0688,1.0688,1.0688,1.0688,1.0688,1.0688,1.0688,1.0688,1.0688,1.0688,1.0688,1.0688,1.0688,1.0688,1.0688,1.0688,1.0688,1.0688,1.0688,1.0688,1.0688,1.0688,1.0688,1.0688,1.0688,1.0688,1.0688,1.0688,1.0688,1.0688,1.0688,1.0688,1.0688,1.0688,1.0688,1.0688,1.0688,1.0688,1.0688,1.0688,1.0688,1.0688,1.0688,1.0688,1.0688,1.0688,1.0688,1.0688,1.0688,1.0688,1.0688,1.0688,1.0688,1.0688,1.0688,1.0688,1.0688,1.0688,1.0688,1.0688,1.0688,1.0755,1.1029,1.1159,1.1274,1.1487,1.1582,1.1563,1.1541,0.0,1.1563,1.1541,1.1582,1.1584,1.1584,1.1584,1.1584,1.1584,1.1584,1.1584,1.1584,1.1584,1.1584,1.1584,1.1584,1.1584,1.1584,1.1584,1.1584,1.1584,1.1584,1.1584,1.1584,1.1584,1.1584,1.1584,1.1584,1.1584,1.1584,1.1584,1.1584,1.1584,1.1584,1.1584,1.1584,1.1584,1.1584,1.1584,1.1584,1.1671,1.1817,1.0688,1.0688,1.0688,1.0688,1.0688,1.0688,1.0688,1.0688,1.0688,1.0688,1.0688,1.0688,1.0688,1.0688,1.0688,1.0688,1.0688,1.0688,1.0688,1.0688,1.0688,1.0688,1.0688,1.0688,1.0688,1.0688,1.0688,1.0688,1.0688,1.0688,1.0688,1.0688,1.0688,1.0688,1.0688,1.0688,1.0688,1.0688,1.0688,1.0688,1.0688,1.0688,1.0688,1.0688,1.0688,1.0688,1.0688,1.0688,1.0688,1.0688,1.0688,1.0688,1.0688,1.0688,1.0688,1.0688,1.0688,1.0688,1.0688,1.0688,1.0688,1.0688,1.0688,1.0688,1.0688,1.0688,1.0806,1.1135,1.1196,1.1291,1.1562,1.1584,1.1584,1.1584,1.1584,1.1584,1.1584,1.1584,1.1584,1.1584,1.1584,1.1584,1.1584,1.1584,1.1584,1.1584,1.1584,1.1584,1.1584,1.1584,1.1584,1.1584,1.1584,1.1584,1.1584,1.1584,1.1584,1.1584,1.1584,1.1584,1.1584,1.1584,1.1584,1.1584,1.1584,1.1584,1.1584,1.1584,1.1584,1.1584,1.1584,1.1584,1.1584,1.1584,1.1644,1.1749,1.0688,1.0688,1.0688,1.0688,1.0688,1.0688,1.0688,1.0688,1.0688,1.0688,1.0688,1.0688,1.0688,1.0688,1.0688,1.0688,1.0688,1.0688,1.0688,1.0688,1.0688,1.0688,1.0688,1.0688,1.0688,1.0688,1.0688,1.0688,1.0688,1.0688,1.0688,1.0688,1.0688,1.0688,1.0688,1.0688,1.0688,1.0688,1.0688,1.0688,1.0688,1.0688,1.0688,1.0688,1.0688,1.0688,1.0688,1.0688,1.0688,1.0688,1.0688,1.0688,1.0688,1.0688,1.0688,1.0688,1.0688,1.0688,1.0688,1.0688,1.0688,1.0688,1.0688,1.0688,1.0688,1.0688,1.0806,1.1135,1.1196,1.1291,1.1562,1.1584,1.1584,1.1584,1.1584,1.1584,1.1584,1.1584,1.1584,1.1584,1.1584,1.1584,1.1584,1.1584,1.1584,1.1584,1.1584,1.1584,1.1584,1.1584,1.1584,1.1584,1.1584,1.1584,1.1584,1.1584,1.1584,1.1584,1.1584,1.1584,1.1584,1.1584,1.1584,1.1584,1.1584,1.1584,1.1584,1.1584,1.1584,1.1584,1.1584,1.1584,1.1584,1.1584,1.1584,1.1604,1.0688,1.0688,1.0688,1.0688,1.0688,1.0688,1.0688,1.0688,1.0688,1.0688,1.0688,1.0688,1.0688,1.0688,1.0688,1.0688,1.0688,1.0688,1.0688,1.0688,1.0688,1.0688,1.0688,1.0688,1.0688,1.0688,1.0688,1.0688,1.0688,1.0688,1.0688,1.0688,1.0688,1.0688,1.0688,1.0688,1.0688,1.0688,1.0688,1.0688,1.0688,1.0688,1.0688,1.0688,1.0688,1.0688,1.0688,1.0688,1.0688,1.0688,1.0688,1.0688,1.0688,1.0688,1.0688,1.0688,1.0688,1.0688,1.0688,1.0688,1.0688,1.0688,1.0688,1.0688,1.0688,1.0688,1.0806,1.1135,1.1196,1.1291,1.1562,1.1584,1.1584,1.1584,1.1584,1.1584,1.1584,1.1584,1.1584,1.1584,1.1584,1.1584,1.1584,1.1584,1.1584,1.1584,1.1584,1.1584,1.1584,1.1584,1.1584,1.1584,1.1584,1.1584,1.1584,1.1584,1.1584,1.1584,1.1584,1.1584,1.1584,1.1584,1.1584,1.1584,1.1584,1.1584,1.1584,1.1584,1.1584,1.1584,1.1584,1.1584,1.1584,1.1584,1.1584,1.1604,1.0688,1.0688,1.0688,1.0688,1.0688,1.0688,1.0688,1.0688,1.0688,1.0688,1.0688,1.0688,1.0688,1.0688,1.0688,1.0688,1.0688,1.0688,1.0688,1.0688,1.0688,1.0688,1.0688,1.0688,1.0688,1.0688,1.0688,1.0688,1.0688,1.0688,1.0688,1.0688,1.0688,1.0688,1.0688,1.0688,1.0688,1.0688,1.0688,1.0688,1.0688,1.0688,1.0688,1.0688,1.0688,1.0688,1.0688,1.0688,1.0688,1.0688,1.0688,1.0688,1.0688,1.0688,1.0688,1.0688,1.0688,1.0688,1.0688,1.0688,1.0688,1.0688,1.0688,1.0688,1.0688,1.0688,1.0806,1.1135,1.1196,1.1291,1.1562,1.1584,1.1584,1.1584,1.1584,1.1584,1.1584,1.1584,1.1584,1.1584,1.1584,1.1584,1.1584,1.1584,1.1584,1.1584,1.1584,1.1584,1.1584,1.1584,1.1584,1.1584,1.1584,1.1584,1.1584,1.1584,1.1584,1.1584,1.1584,1.1584,1.1584,1.1584,1.1584,1.1584,1.1584,1.1584,1.1584,1.1584,1.1584,1.1584,1.1584,1.1584,1.1584,1.1584,1.1584,1.1597,1.0688,1.0688,1.0688,1.0688,1.0688,1.0688,1.0688,1.0688,1.0688,1.0688,1.0688,1.0688,1.0688,1.0688,1.0688,1.0688,1.0688,1.0688,1.0688,1.0688,1.0688,1.0688,1.0688,1.0688,1.0688,1.0688,1.0688,1.0688,1.0688,1.0688,1.0688,1.0688,1.0688,1.0688,1.0688,1.0688,1.0688,1.0688,1.0688,1.0688,1.0688,1.0688,1.0688,1.0688,1.0688,1.0688,1.0688,1.0688,1.0688,1.0688,1.0688,1.0688,1.0688,1.0688,1.0688,1.0688,1.0688,1.0688,1.0688,1.0688,1.0688,1.0688,1.0688,1.0688,1.0688,1.0688,1.0802,1.1118,1.1189,1.1288,1.1545,1.1573,1.1584,1.1584,1.1584,1.1584,1.1584,1.1584,1.1584,1.1584,1.1584,1.1584,1.1584,1.1584,1.1584,1.1584,1.1584,1.1584,1.1584,1.1584,1.1584,1.1584,1.1584,1.1584,1.1584,1.1584,1.1584,1.1584,1.1584,1.1584,1.1584,1.1584,1.1584,1.1584,1.1584,1.1584,1.1584,1.1584,1.1584,1.1584,1.1584,1.1584,1.1584,1.1584,1.1584,1.1584,1.0688,1.0688,1.0688,1.0688,1.0688,1.0688,1.0688,1.0688,1.0688,1.0688,1.0688,1.0688,1.0688,1.0688,1.0688,1.0688,1.0688,1.0688,1.0688,1.0688,1.0688,1.0688,1.0688,1.0688,1.0688,1.0688,1.0688,1.0688,1.0688,1.0688,1.0688,1.0688,1.0688,1.0688,1.0688,1.0688,1.0688,1.0688,1.0688,1.0688,1.0688,1.0688,1.0688,1.0688,1.0688,1.0688,1.0688,1.0688,1.0688,1.0688,1.0688,1.0688,1.0688,1.0688,1.0688,1.0688,1.0688,1.0688,1.0688,1.0688,1.0688,1.0688,1.0688,1.0688,1.0688,1.0688,1.0738,1.0921,1.1084,1.1254,1.1406,1.1538,1.1584,1.1584,1.1584,1.1584,1.1584,1.1584,1.1584,1.1584,1.1584,1.1584,1.1584,1.1584,1.1584,1.1584,1.1584,1.1584,1.1584,1.1584,1.1584,1.1584,1.1584,1.1584,1.1584,1.1584,1.1584,1.1584,1.1584,1.1584,1.1584,1.1584,1.1584,1.1584,1.1584,1.1584,1.1584,1.1584,1.1584,1.1584,1.1584,1.1584,1.1584,1.1584,1.1584,1.1636,1.0688,1.0688,1.0688,1.0688,1.0688,1.0688,1.0688,1.0688,1.0688,1.0688,1.0688,1.0688,1.0688,1.0688,1.0688,1.0688,1.0688,1.0688,1.0688,1.0688,1.0688,1.0688,1.0688,1.0688,1.0688,1.0688,1.0688,1.0688,1.0688,1.0688,1.0688,1.0688,1.0688,1.0688,1.0688,1.0688,1.0688,1.0688,1.0688,1.0688,1.0688,1.0688,1.0688,1.0688,1.0688,1.0688,1.0688,1.0688,1.0688,1.0688,1.0688,1.0688,1.0688,1.0688,1.0688,1.0688,1.0688,1.0688,1.0688,1.0688,1.0688,1.0688,1.0688,1.0688,1.0688,1.0688,1.0732,1.0884,1.1063,1.1244,1.1362,1.1514,1.1584,1.1584,1.1584,1.1584,1.1584,1.1584,1.1584,1.1584,1.1584,1.1584,1.1584,1.1584,1.1584,1.1584,1.1584,1.1584,1.1584,1.1584,1.1584,1.1584,1.1584,1.1584,1.1584,1.1584,1.1584,1.1584,1.1584,1.1584,1.1584,1.1584,1.1584,1.1584,1.1584,1.1584,1.1584,1.1584,1.1584,1.1584,1.1584,1.1584,1.1584,1.1584,1.1584,1.1594,1.0688,1.0688,1.0688,1.0688,1.0688,1.0688,1.0688,1.0688,1.0688,1.0688,1.0688,1.0688,1.0688,1.0688,1.0688,1.0688,1.0688,1.0688,1.0688,1.0688,1.0688,1.0688,1.0688,1.0688,1.0688,1.0688,1.0688,1.0688,1.0688,1.0688,1.0688,1.0688,1.0688,1.0688,1.0688,1.0688,1.0688,1.0688,1.0688,1.0688,1.0688,1.0688,1.0688,1.0688,1.0688,1.0688,1.0688,1.0688,1.0688,1.0688,1.0688,1.0688,1.0688,1.0688,1.0688,1.0688,1.0688,1.0688,1.0688,1.0688,1.0688,1.0688,1.0688,1.0688,1.0688,1.0688,1.0725,1.085,1.1026,1.1206,1.1324,1.1477,1.1553,1.1616,1.1584,1.1584,1.1584,1.1584,1.1584,1.1584,1.1584,1.1584,1.1584,1.1584,1.1584,1.1584,1.1584,1.1584,1.1584,1.1584,1.1584,1.1584,1.1584,1.1584,1.1584,1.1584,1.1584,1.1584,1.1584,1.1584,1.1584,1.1584,1.1584,1.1584,1.1584,1.1584,1.1584,1.1584,1.1584,1.1584,1.1584,1.1584,1.1584,1.1584,1.1584,1.1584,1.0688,1.0688,1.0688,1.0688,1.0688,1.0688,1.0688,1.0688,1.0688,1.0688,1.0688,1.0688,1.0688,1.0688,1.0688,1.0688,1.0688,1.0688,1.0688,1.0688,1.0688,1.0688,1.0688,1.0688,1.0688,1.0688,1.0688,1.0688,1.0688,1.0688,1.0688,1.0688,1.0688,1.0688,1.0688,1.0688,1.0688,1.0688,1.0688,1.0688,1.0688,1.0688,1.0688,1.0688,1.0688,1.0688,1.0688,1.0688,1.0688,1.0688,1.0688,1.0688,1.0688,1.0688,1.0688,1.0688,1.0688,1.0688,1.0688,1.0688,1.0688,1.0688,1.0688,1.0688,1.0688,1.0688,1.0724,1.0715,1.0836,1.0988,1.1203,1.1353,1.1463,1.1563,1.1584,1.1584,1.1584,1.1584,1.1584,1.1584,1.1584,1.1584,1.1584,1.1584,1.1584,1.1584,1.1584,1.1584,1.1584,1.1584,1.1584,1.1584,1.1584,1.1584,1.1584,1.1584,1.1584,1.1584,1.1584,1.1584,1.1584,1.1584,1.1584,1.1584,1.1584,1.1584,1.1584,1.1584,1.1584,1.1584,1.1584,1.1584,1.1584,1.1584,1.1584,1.1584,1.0688,1.0688,1.0688,1.0688,1.0688,1.0688,1.0688,1.0688,1.0688,1.0688,1.0688,1.0688,1.0688,1.0688,1.0688,1.0688,1.0688,1.0688,1.0688,1.0688,1.0688,1.0688,1.0688,1.0688,1.0688,1.0688,1.0688,1.0688,1.0688,1.0688,1.0688,1.0688,1.0688,1.0688,1.0688,1.0688,1.0688,1.0688,1.0688,1.0688,1.0688,1.0688,1.0688,1.0688,1.0688,1.0688,1.0688,1.0688,1.0688,1.0688,1.0688,1.0688,1.0688,1.0688,1.0688,1.0688,1.0688,1.0688,1.0688,1.0688,1.0688,1.0688,1.0688,1.0688,1.0688,1.0688,1.0688,1.0688,1.0809,1.0934,1.1029,1.1165,1.1314,1.1467,1.1491,1.1521,1.1606,1.1584,1.1584,1.1584,1.1584,1.1584,1.1584,1.1584,1.1584,1.1584,1.1584,1.1584,1.1584,1.1584,1.1584,1.1584,1.1584,1.1584,1.1584,1.1584,1.1584,1.1584,1.1584,1.1584,1.1584,1.1584,1.1584,1.1584,1.1584,1.1584,1.1584,1.1584,1.1584,1.1584,1.1584,1.1584,1.1584,1.1584,1.1584,1.1584]},{"header":{"parameterUnit":"m.s-1","parameterCategory":1,"la1":30.6,"la2":28.766,"lo1":-90.7593,"lo2":-88.6598,"dy":0.0162,"dx":0.0183,"nx":116,"ny":114,"refTime":"2023-05-28T12:00:00:Z","depth":0,"parameterNumber":3,"parameterNumberName":"V-component_of_WINDS"},"data":[0.0,0.0,0.0,0.0,0.0,0.0,0.0,0.0,0.0,0.0,0.0,0.0,0.0,0.0,0.0,0.0,0.0,0.0,0.0,0.0,0.0,0.0,0.0,0.0,0.0,0.0,0.0,0.0,0.0,0.0,0.0,0.0,0.0,0.0,0.0,0.0,0.0,0.0,0.0,0.0,0.0,0.0,0.0,0.0,0.0,0.0,0.0,0.0,0.0,0.0,0.0,0.0,0.0,0.0,0.0,0.0,0.0,0.0,0.0,0.0,0.0,0.0,0.0,0.0,0.0,0.0,0.0,0.0,0.0,0.0,0.0,0.0,0.0,0.0,0.0,0.0,0.0,0.0,0.0,0.0,0.0,0.0,0.0,0.0,0.0,0.0,0.0,0.0,0.0,0.0,0.0,0.0,0.0,0.0,0.0,0.0,0.0,0.0,0.0,0.0,0.0,0.0,0.0,0.0,0.0,0.0,0.0,0.0,0.0,0.0,0.0,0.0,0.0,0.0,0.0,0.0,0.0,0.0,0.0,0.0,0.0,0.0,0.0,0.0,0.0,0.0,0.0,0.0,0.0,0.0,0.0,0.0,0.0,0.0,0.0,0.0,0.0,0.0,0.0,0.0,0.0,0.0,0.0,0.0,0.0,0.0,0.0,0.0,0.0,0.0,0.0,0.0,0.0,0.0,0.0,0.0,0.0,0.0,0.0,0.0,0.0,0.0,0.0,0.0,0.0,0.0,0.0,0.0,0.0,0.0,0.0,0.0,0.0,0.0,0.0,0.0,0.0,0.0,0.0,0.0,0.0,0.0,0.0,0.0,0.0,0.0,0.0,0.0,0.0,0.0,0.0,0.0,0.0,0.0,0.0,0.0,0.0,0.0,0.0,0.0,0.0,0.0,0.0,0.0,0.0,0.0,0.0,0.0,0.0,0.0,0.0,0.0,0.0,0.0,0.0,0.0,0.0,0.0,0.0,0.0,0.0,0.0,0.0,0.0,0.0,0.0,0.0,0.0,0.0,0.0,0.0,0.0,0.0,0.0,0.0,0.0,0.0,0.0,0.0,0.0,0.0,0.0,0.0,0.0,0.0,0.0,0.0,0.0,0.0,0.0,0.0,0.0,0.0,0.0,0.0,0.0,0.0,0.0,0.0,0.0,0.0,0.0,0.0,0.0,0.0,0.0,0.0,0.0,0.0,0.0,0.0,0.0,0.0,0.0,0.0,0.0,0.0,0.0,0.0,0.0,0.0,0.0,0.0,0.0,0.0,0.0,0.0,0.0,0.0,0.0,0.0,0.0,0.0,0.0,0.0,0.0,0.0,0.0,0.0,0.0,0.0,0.0,0.0,0.0,0.0,0.0,0.0,0.0,0.0,0.0,0.0,0.0,0.0,0.0,0.0,0.0,0.0,0.0,0.0,0.0,0.0,0.0,0.0,0.0,0.0,0.0,0.0,0.0,0.0,0.0,0.0,0.0,0.0,0.0,0.0,0.0,0.0,0.0,0.0,0.0,0.0,0.0,0.0,0.0,0.0,0.0,0.0,0.0,0.0,0.0,0.0,0.0,0.0,0.0,0.0,0.0,0.0,0.0,0.0,0.0,0.0,0.0,0.0,0.0,0.0,0.0,0.0,0.0,0.0,0.0,0.0,0.0,0.0,0.0,0.0,0.0,0.0,0.0,0.0,0.0,0.0,0.0,0.0,0.0,0.0,0.0,0.0,0.0,0.0,0.0,0.0,0.0,0.0,0.0,0.0,0.0,0.0,0.0,0.0,0.0,0.0,0.0,0.0,0.0,0.0,0.0,0.0,0.0,0.0,0.0,0.0,0.0,0.0,0.0,0.0,0.0,0.0,0.0,0.0,0.0,0.0,0.0,0.0,0.0,0.0,0.0,0.0,0.0,0.0,0.0,0.0,0.0,0.0,0.0,0.0,0.0,0.0,0.0,0.0,0.0,0.0,0.0,0.0,0.0,0.0,0.0,0.0,0.0,0.0,0.0,0.0,0.0,0.0,0.0,0.0,0.0,0.0,0.0,0.0,0.0,0.0,0.0,0.0,0.0,0.0,0.0,0.0,0.0,0.0,0.0,0.0,0.0,0.0,0.0,0.0,0.0,0.0,0.0,0.0,0.0,0.0,0.0,0.0,0.0,0.0,0.0,0.0,0.0,0.0,0.0,0.0,0.0,0.0,0.0,0.0,0.0,0.0,0.0,0.0,0.0,0.0,0.0,0.0,0.0,0.0,0.0,0.0,0.0,0.0,0.0,0.0,0.0,0.0,0.0,0.0,0.0,0.0,0.0,0.0,0.0,0.0,0.0,0.0,0.0,0.0,0.0,0.0,0.0,0.0,0.0,0.0,0.0,0.0,0.0,0.0,0.0,0.0,0.0,0.0,0.0,0.0,0.0,0.0,0.0,0.0,0.0,0.0,0.0,0.0,0.0,0.0,0.0,0.0,0.0,0.0,0.0,0.0,0.0,0.0,0.0,0.0,0.0,0.0,0.0,0.0,0.0,0.0,0.0,0.0,0.0,0.0,0.0,0.0,0.0,0.0,0.0,0.0,0.0,0.0,0.0,0.0,0.0,0.0,0.0,0.0,0.0,0.0,0.0,0.0,0.0,0.0,0.0,0.0,0.0,0.0,0.0,0.0,0.0,0.0,0.0,0.0,0.0,0.0,0.0,0.0,0.0,0.0,0.0,0.0,0.0,0.0,0.0,0.0,0.0,0.0,0.0,0.0,0.0,0.0,0.0,0.0,0.0,0.0,0.0,0.0,0.0,0.0,0.0,0.0,0.0,0.0,0.0,0.0,0.0,0.0,0.0,0.0,0.0,0.0,0.0,0.0,0.0,0.0,0.0,0.0,0.0,0.0,0.0,0.0,0.0,0.0,0.0,0.0,0.0,0.0,0.0,0.0,0.0,0.0,0.0,0.0,0.0,0.0,0.0,0.0,0.0,0.0,0.0,0.0,0.0,0.0,0.0,0.0,0.0,0.0,0.0,0.0,0.0,0.0,0.0,0.0,0.0,0.0,0.0,0.0,0.0,0.0,0.0,0.0,0.0,0.0,0.0,0.0,0.0,0.0,0.0,0.0,0.0,0.0,0.0,0.0,0.0,0.0,0.0,0.0,0.0,0.0,0.0,0.0,0.0,0.0,0.0,0.0,0.0,0.0,0.0,0.0,0.0,0.0,0.0,0.0,0.0,0.0,0.0,0.0,0.0,0.0,0.0,0.0,0.0,0.0,0.0,0.0,0.0,0.0,0.0,0.0,0.0,0.0,0.0,0.0,0.0,0.0,0.0,0.0,0.0,0.0,0.0,0.0,0.0,0.0,0.0,0.0,0.0,0.0,0.0,0.0,0.0,0.0,0.0,0.0,0.0,0.0,0.0,0.0,0.0,0.0,0.0,0.0,0.0,0.0,0.0,0.0,0.0,0.0,0.0,0.0,0.0,0.0,0.0,0.0,0.0,0.0,0.0,0.0,0.0,0.0,0.0,0.0,0.0,0.0,0.0,0.0,0.0,0.0,0.0,0.0,0.0,0.0,0.0,0.0,0.0,0.0,0.0,0.0,0.0,0.0,0.0,0.0,0.0,0.0,0.0,0.0,0.0,0.0,0.0,0.0,0.0,0.0,0.0,0.0,0.0,0.0,0.0,0.0,0.0,0.0,0.0,0.0,0.0,0.0,0.0,0.0,0.0,0.0,0.0,0.0,0.0,0.0,0.0,0.0,0.0,0.0,0.0,0.0,0.0,0.0,0.0,0.0,0.0,0.0,0.0,0.0,0.0,0.0,0.0,0.0,0.0,0.0,0.0,0.0,0.0,0.0,0.0,0.0,0.0,0.0,0.0,0.0,0.0,0.0,0.0,0.0,0.0,0.0,0.0,0.0,0.0,0.0,0.0,0.0,0.0,0.0,0.0,0.0,0.0,0.0,0.0,0.0,0.0,0.0,0.0,0.0,0.0,0.0,0.0,0.0,0.0,0.0,0.0,0.0,0.0,0.0,0.0,0.0,0.0,0.0,0.0,0.0,0.0,0.0,0.0,0.0,0.0,0.0,0.0,0.0,0.0,0.0,0.0,0.0,0.0,0.0,0.0,0.0,0.0,0.0,0.0,0.0,0.0,0.0,0.0,0.0,0.0,0.0,0.0,0.0,0.0,0.0,0.0,0.0,0.0,0.0,0.0,0.0,0.0,0.0,0.0,0.0,0.0,0.0,0.0,0.0,0.0,0.0,0.0,0.0,0.0,0.0,0.0,0.0,0.0,0.0,0.0,0.0,0.0,0.0,0.0,0.0,0.0,0.0,0.0,0.0,0.0,0.0,0.0,0.0,0.0,0.0,0.0,0.0,0.0,0.0,0.0,0.0,0.0,0.0,0.0,0.0,0.0,0.0,0.0,0.0,0.0,0.0,0.0,0.0,0.0,0.0,0.0,0.0,0.0,0.0,0.0,0.0,0.0,0.0,0.0,0.0,0.0,0.0,0.0,0.0,0.0,0.0,0.0,0.0,0.0,0.0,0.0,0.0,0.0,0.0,0.0,0.0,0.0,0.0,0.0,0.0,0.0,0.0,0.0,0.0,0.0,0.0,0.0,0.0,0.0,0.0,0.0,0.0,0.0,0.0,0.0,0.0,0.0,0.0,0.0,0.0,0.0,0.0,0.0,0.0,0.0,0.0,0.0,0.0,0.0,0.0,0.0,0.0,0.0,0.0,0.0,0.0,0.0,0.0,0.0,0.0,0.0,0.0,0.0,0.0,0.0,0.0,0.0,0.0,0.0,0.0,0.0,0.0,0.0,0.0,0.0,0.0,0.0,0.0,0.0,0.0,0.0,0.0,0.0,0.0,0.0,0.0,0.0,0.0,0.0,0.0,0.0,0.0,0.0,0.0,0.0,0.0,0.0,0.0,0.0,0.0,0.0,0.0,0.0,0.0,0.0,0.0,0.0,0.0,0.0,0.0,0.0,0.0,0.0,0.0,0.0,0.0,0.0,0.0,0.0,0.0,0.0,0.0,0.0,0.0,0.0,0.0,0.0,0.0,0.0,0.0,0.0,0.0,0.0,0.0,0.0,0.0,0.0,0.0,0.0,0.0,0.0,0.0,0.0,0.0,0.0,0.0,0.0,0.0,0.0,0.0,0.0,0.0,0.0,0.0,0.0,0.0,0.0,0.0,0.0,0.0,0.0,0.0,0.0,0.0,0.0,0.0,0.0,0.0,0.0,0.0,0.0,0.0,0.0,0.0,0.0,0.0,0.0,0.0,0.0,0.0,0.0,0.0,0.0,0.0,0.0,0.0,0.0,0.0,0.0,0.0,0.0,0.0,0.0,0.0,0.0,0.0,0.0,0.0,0.0,0.0,0.0,0.0,0.0,0.0,0.0,0.0,0.0,0.0,0.0,0.0,0.0,0.0,0.0,0.0,0.0,0.0,0.0,0.0,0.0,0.0,0.0,0.0,0.0,0.0,0.0,0.0,0.0,0.0,0.0,0.0,0.0,0.0,0.0,0.0,0.0,0.0,0.0,0.0,0.0,0.0,0.0,0.0,0.0,0.0,0.0,0.0,0.0,0.0,0.0,0.0,0.0,0.0,0.0,0.0,0.0,0.0,0.0,0.0,0.0,0.0,0.0,0.0,0.0,0.0,0.0,0.0,0.0,0.0,0.0,0.0,0.0,0.0,0.0,0.0,0.0,0.0,0.0,0.0,0.0,0.0,0.0,0.0,0.0,0.0,0.0,0.0,0.0,0.0,0.0,0.0,0.0,0.0,0.0,0.0,0.0,0.0,0.0,0.0,0.0,0.0,0.0,0.0,0.0,0.0,0.0,0.0,0.0,0.0,0.0,0.0,0.0,0.0,0.0,0.0,0.0,0.0,0.0,0.0,0.0,0.0,0.0,0.0,0.0,0.0,0.0,0.0,0.0,0.0,0.0,0.0,0.0,0.0,0.0,0.0,0.0,0.0,0.0,0.0,0.0,0.0,0.0,0.0,0.0,0.0,0.0,0.0,0.0,0.0,0.0,0.0,0.0,0.0,0.0,0.0,0.0,0.0,0.0,0.0,0.0,0.0,0.0,0.0,0.0,0.0,0.0,0.0,0.0,0.0,0.0,0.0,0.0,5.9169,0.0,0.0,0.0,0.0,0.0,0.0,0.0,0.0,0.0,0.0,0.0,0.0,0.0,0.0,0.0,0.0,0.0,0.0,0.0,0.0,0.0,0.0,0.0,0.0,0.0,0.0,0.0,0.0,0.0,0.0,0.0,0.0,0.0,0.0,0.0,0.0,0.0,0.0,0.0,5.0459,5.1243,5.2419,5.1704,5.1374,5.1356,0.0,0.0,0.0,0.0,0.0,0.0,0.0,0.0,0.0,0.0,0.0,0.0,0.0,0.0,0.0,0.0,0.0,0.0,0.0,0.0,0.0,0.0,0.0,0.0,0.0,0.0,0.0,0.0,0.0,0.0,0.0,0.0,0.0,0.0,0.0,0.0,0.0,0.0,0.0,0.0,0.0,0.0,0.0,0.0,0.0,0.0,0.0,0.0,0.0,0.0,0.0,0.0,0.0,0.0,0.0,0.0,0.0,0.0,0.0,0.0,0.0,0.0,0.0,0.0,0.0,0.0,0.0,0.0,0.0,0.0,0.0,5.9803,0.0,0.0,0.0,0.0,0.0,0.0,0.0,0.0,0.0,0.0,0.0,0.0,0.0,0.0,0.0,0.0,0.0,0.0,0.0,0.0,0.0,0.0,0.0,0.0,0.0,0.0,0.0,0.0,0.0,0.0,0.0,0.0,0.0,0.0,0.0,5.0066,5.0342,5.0941,5.1478,5.231,5.3403,5.3403,5.3122,5.2612,5.1734,0.0,0.0,0.0,0.0,0.0,0.0,0.0,0.0,0.0,0.0,0.0,0.0,0.0,0.0,0.0,0.0,0.0,0.0,0.0,0.0,0.0,0.0,0.0,0.0,0.0,0.0,0.0,0.0,0.0,0.0,0.0,0.0,0.0,0.0,0.0,0.0,0.0,0.0,0.0,0.0,0.0,0.0,0.0,0.0,0.0,0.0,0.0,0.0,0.0,0.0,0.0,0.0,0.0,0.0,0.0,0.0,0.0,0.0,0.0,0.0,0.0,0.0,0.0,6.0026,6.0867,6.1582,6.2298,6.3013,6.3618,6.2182,6.1543,6.1543,6.1543,0.0,0.0,0.0,0.0,0.0,0.0,0.0,0.0,0.0,0.0,0.0,0.0,0.0,0.0,0.0,0.0,0.0,0.0,0.0,0.0,0.0,5.0882,5.0866,5.0866,5.0663,5.0537,0.0,0.0,0.0,0.0,0.0,0.0,5.1271,5.1934,5.244,5.2763,5.3798,5.4406,5.4585,5.4585,5.4521,5.4426,5.3556,5.3149,5.3149,0.0,0.0,0.0,0.0,0.0,0.0,0.0,0.0,0.0,0.0,0.0,0.0,0.0,0.0,0.0,0.0,0.0,0.0,0.0,0.0,0.0,0.0,0.0,0.0,0.0,0.0,0.0,0.0,0.0,0.0,0.0,0.0,0.0,0.0,0.0,0.0,0.0,0.0,0.0,0.0,0.0,5.5988,5.6878,0.0,0.0,0.0,0.0,0.0,0.0,0.0,0.0,0.0,0.0,0.0,0.0,0.0,5.8534,5.9342,6.0222,6.1008,6.1702,6.2713,6.3241,6.3357,6.3482,6.3579,6.3695,6.3463,0.0,6.3366,6.3366,0.0,0.0,0.0,0.0,0.0,0.0,0.0,0.0,0.0,0.0,0.0,0.0,0.0,0.0,0.0,0.0,0.0,0.0,0.0,0.0,0.0,5.1347,5.1621,5.1621,5.2,5.2178,5.2006,0.0,0.0,0.0,0.0,5.2236,5.2398,5.2606,5.3079,5.3834,5.4751,5.5297,5.5466,5.5466,5.5466,5.5466,5.5084,5.4387,5.3502,5.3502,0.0,0.0,0.0,0.0,0.0,0.0,0.0,0.0,0.0,0.0,0.0,0.0,0.0,0.0,0.0,0.0,0.0,0.0,0.0,0.0,0.0,0.0,0.0,0.0,0.0,0.0,0.0,0.0,0.0,0.0,0.0,0.0,0.0,0.0,0.0,0.0,0.0,0.0,0.0,5.5543,5.6317,5.7207,5.6955,5.6684,0.0,0.0,0.0,0.0,0.0,0.0,0.0,0.0,0.0,5.979,6.0285,6.0973,6.1859,6.2291,6.2684,6.3051,6.3985,6.443,6.445,6.4894,6.5107,6.5107,6.5107,6.5107,6.503,6.4082,6.3695,6.3695,0.0,0.0,0.0,0.0,6.3695,6.3695,0.0,0.0,0.0,0.0,0.0,0.0,0.0,0.0,0.0,0.0,0.0,0.0,5.1235,5.2008,5.2535,5.2535,5.3134,5.3424,5.3225,5.3196,0.0,0.0,5.3227,5.3332,5.3523,5.3535,5.3952,5.4819,5.5366,5.575,5.6008,5.6008,5.6008,5.6008,5.6008,5.5311,5.4136,5.4136,5.4136,5.4175,0.0,0.0,0.0,0.0,0.0,0.0,0.0,0.0,0.0,0.0,0.0,0.0,0.0,0.0,0.0,0.0,0.0,0.0,0.0,0.0,0.0,0.0,0.0,0.0,0.0,0.0,0.0,0.0,0.0,0.0,0.0,0.0,0.0,0.0,0.0,0.0,0.0,5.6723,5.7248,5.7914,5.7972,5.7712,0.0,0.0,0.0,0.0,0.0,0.0,5.9064,5.9838,6.0701,6.1606,6.228,6.3055,6.3965,6.3999,6.4101,6.4314,6.4981,6.532,6.5339,6.5934,6.6205,6.6205,6.6205,6.6205,6.6108,6.4856,6.4334,6.4334,6.4334,6.4334,6.4334,6.4334,6.4334,6.4334,0.0,0.0,0.0,0.0,0.0,0.0,0.0,0.0,0.0,0.0,0.0,5.2211,5.2144,5.2902,5.3424,5.3424,5.3463,5.3498,5.3489,5.3485,5.3485,5.3485,5.425,5.4695,5.4703,5.5449,5.5851,5.5917,5.5952,5.5975,5.6008,5.6008,5.6008,5.6008,5.6008,5.595,5.5872,5.5872,5.5872,5.5814,5.5084,0.0,0.0,0.0,0.0,0.0,0.0,0.0,0.0,0.0,0.0,0.0,0.0,0.0,0.0,0.0,0.0,0.0,0.0,0.0,0.0,0.0,0.0,0.0,0.0,0.0,0.0,0.0,0.0,0.0,0.0,0.0,0.0,0.0,0.0,0.0,0.0,0.0,0.0,5.9857,5.9815,0.0,0.0,0.0,0.0,5.8531,5.9339,6.0123,6.0828,6.1692,6.2541,6.3342,6.342,6.3869,6.4737,6.4805,6.5218,6.5986,6.6082,6.6147,6.6147,6.6185,6.6205,6.6205,6.6205,6.6205,6.6185,6.6108,6.6069,6.6069,6.6069,6.6069,6.6069,6.6069,6.6069,6.6069,0.0,0.0,0.0,0.0,0.0,0.0,0.0,0.0,0.0,5.1922,5.2249,5.2599,5.3058,5.3876,5.4377,5.4342,5.4813,5.5103,5.5103,5.5103,5.5103,5.5103,5.5408,5.5563,5.5563,5.5853,5.6008,5.6008,5.6008,5.6008,5.6008,5.6008,5.6008,5.6008,5.6008,5.6008,5.6008,5.6008,5.6008,5.5969,5.5698,5.5563,0.0,0.0,0.0,0.0,0.0,0.0,0.0,0.0,0.0,0.0,0.0,0.0,0.0,0.0,0.0,0.0,0.0,0.0,0.0,0.0,0.0,0.0,0.0,0.0,0.0,0.0,0.0,0.0,0.0,0.0,0.0,0.0,0.0,0.0,0.0,0.0,0.0,5.9163,5.9577,0.0,5.9144,5.9766,6.0209,6.0209,6.1496,6.2394,6.2663,6.3463,6.405,6.4395,6.4897,6.5338,6.5703,6.5724,6.5884,6.6155,6.6194,6.6205,6.6205,6.6205,6.6205,6.6205,6.6205,6.6205,6.6205,6.6205,6.6205,6.6205,6.6205,6.6205,6.6205,6.6205,6.6205,6.6205,0.0,0.0,0.0,0.0,0.0,0.0,0.0,0.0,0.0,5.2867,5.3234,5.3574,5.4027,5.4829,5.5326,5.5281,5.5717,5.6008,5.6008,5.6008,5.6008,5.6008,5.6008,5.6008,5.6008,5.6008,5.6008,5.6008,5.6008,5.6008,5.6008,5.6008,5.6008,5.6008,5.6008,5.6008,5.6008,5.6008,5.6008,5.6008,5.6008,5.6026,5.5994,0.0,0.0,0.0,0.0,0.0,0.0,0.0,0.0,0.0,0.0,0.0,0.0,0.0,0.0,0.0,0.0,0.0,0.0,0.0,0.0,0.0,0.0,0.0,0.0,0.0,0.0,0.0,0.0,0.0,0.0,0.0,0.0,0.0,0.0,5.9007,5.9695,5.914,6.0056,6.0527,5.9992,6.1179,6.1982,6.2011,6.3301,6.4115,6.4115,6.4895,6.5344,6.5341,6.5858,6.6169,6.6205,6.6205,6.6205,6.6205,6.6205,6.6205,6.6205,6.6205,6.6205,6.6205,6.6205,6.6205,6.6205,6.6205,6.6205,6.6205,6.6205,6.6205,6.6205,6.6205,6.6205,6.6205,0.0,0.0,0.0,0.0,0.0,0.0,0.0,5.2695,5.3006,5.3824,5.4676,5.5162,5.5058,5.5736,5.6207,5.6201,5.6087,5.6005,5.6016,5.6001,5.6001,5.6016,5.6016,5.5993,5.6008,5.6008,5.6008,5.6008,5.6008,5.6008,5.6008,5.6008,5.6008,5.6008,5.6008,5.6008,5.6008,5.5993,5.6016,5.6016,5.6016,5.6083,5.6188,0.0,0.0,0.0,0.0,0.0,0.0,0.0,0.0,0.0,0.0,0.0,0.0,0.0,0.0,0.0,0.0,0.0,0.0,0.0,0.0,0.0,0.0,0.0,0.0,0.0,0.0,0.0,0.0,0.0,0.0,0.0,0.0,0.0,5.8791,5.9425,6.0009,6.0093,6.1481,6.2497,6.2625,6.3316,6.3778,6.3835,6.4658,6.514,6.514,6.5953,6.634,6.62,6.6215,6.619,6.6205,6.6224,6.6243,6.6243,6.6263,6.6282,6.6282,6.6282,6.6282,6.6282,6.6282,6.6282,6.6282,6.6282,6.6263,6.6243,6.6205,6.6205,6.6205,6.6205,6.6205,6.6205,0.0,0.0,0.0,0.0,0.0,0.0,0.0,5.2695,5.3222,5.4725,5.5114,5.5478,5.6025,5.6296,5.6379,5.6276,5.6241,5.6205,5.6141,5.6193,5.6202,5.616,5.6153,5.6098,5.5993,5.6008,5.6008,5.6008,5.6008,5.6008,5.6008,5.6008,5.6008,5.6008,5.6008,5.6008,5.6016,5.6106,5.6153,5.6153,5.6153,5.62,5.6266,0.0,0.0,0.0,0.0,0.0,0.0,0.0,0.0,0.0,0.0,0.0,0.0,0.0,0.0,0.0,0.0,0.0,0.0,0.0,0.0,0.0,0.0,0.0,0.0,0.0,0.0,0.0,0.0,0.0,0.0,0.0,6.0265,6.0837,6.0589,6.1219,6.1949,6.2609,6.3117,6.3437,6.3463,6.4306,6.4862,6.4897,6.5692,6.6196,6.6196,6.641,6.6484,6.6344,6.6359,6.6294,6.6205,6.6824,6.7133,6.7152,6.7791,6.8095,6.8095,6.8095,6.8095,6.8095,6.8095,6.8095,6.8095,6.8095,6.7713,6.7075,6.6456,6.6205,6.6205,6.6205,6.6205,6.6205,0.0,0.0,0.0,0.0,0.0,0.0,0.0,5.3552,5.4276,5.5662,5.5838,5.6015,5.6481,5.649,5.6431,5.6355,5.6324,5.6277,5.6242,5.6278,5.6285,5.6242,5.6236,5.6205,5.6122,5.6097,5.6079,5.6079,5.6026,5.6008,5.6008,5.6008,5.6008,5.5993,5.6067,5.6079,5.6091,5.6203,5.6263,5.6361,5.6694,5.6649,5.6376,5.6324,5.6547,5.6888,5.6888,5.7455,5.81,5.7592,0.0,0.0,0.0,0.0,0.0,0.0,0.0,0.0,0.0,0.0,0.0,0.0,0.0,0.0,0.0,0.0,0.0,0.0,0.0,0.0,0.0,0.0,0.0,0.0,6.1646,6.2536,6.286,6.2948,6.3161,6.3688,6.415,6.4435,6.4435,6.5295,6.5855,6.5876,6.6364,6.6635,6.6635,6.6635,6.6749,6.698,6.6993,6.7098,6.7327,6.7827,6.8075,6.8056,6.8559,6.8791,6.8791,6.8791,6.8791,0.0,6.8791,6.8791,6.8791,6.8791,6.8501,0.0,0.0,0.0,0.0,0.0,6.624,6.6276,0.0,0.0,0.0,0.0,0.0,0.0,0.0,5.4659,5.5499,5.6476,5.6593,5.6593,5.6593,5.6484,5.6419,5.6413,5.6361,5.6324,5.6324,5.6332,5.6324,5.6324,5.6324,5.632,5.629,5.6236,5.6258,5.6356,5.6241,5.6229,5.6326,5.6326,5.6326,5.6334,5.6456,5.6492,5.6501,5.6578,5.6677,5.684,5.7588,5.7374,5.6668,5.6638,5.7141,5.7863,5.7863,5.841,5.9133,5.9055,0.0,0.0,0.0,0.0,0.0,0.0,0.0,0.0,0.0,0.0,0.0,0.0,0.0,0.0,0.0,0.0,0.0,0.0,0.0,0.0,0.0,0.0,0.0,0.0,6.3078,6.4387,6.5024,6.4558,6.4117,6.412,6.4916,6.5467,6.5467,6.6176,6.6662,6.6723,6.6727,6.6727,6.6727,0.0,0.0,0.0,0.0,6.7982,6.8637,6.8831,6.8892,6.8849,6.9023,6.9129,6.9104,6.9104,6.9108,6.9081,6.9081,6.9081,6.9081,6.9081,6.9023,6.8849,6.7984,6.7172,6.65,6.6506,6.6585,6.6683,0.0,0.0,0.0,0.0,0.0,0.0,0.0,5.4149,5.4816,5.6398,5.6593,5.6593,5.6593,5.6577,5.6559,5.656,5.6542,5.6543,5.6542,5.6481,5.6454,5.6454,5.6454,5.6413,5.6292,5.6292,5.6634,5.732,5.7301,5.7644,5.8347,5.8347,5.8347,5.835,5.8369,5.8379,5.8383,5.8443,5.8492,5.8543,5.8803,5.8397,5.7694,5.8375,5.8747,5.8905,5.8905,5.9432,6.0038,5.9374,5.9706,6.0232,5.939,5.9821,0.0,0.0,0.0,0.0,0.0,0.0,0.0,0.0,0.0,0.0,0.0,0.0,0.0,0.0,0.0,0.0,0.0,0.0,0.0,6.3662,6.4449,6.5092,6.5247,6.5762,6.6112,6.6068,6.6284,6.6429,6.6429,6.6679,6.6851,6.6854,6.6854,6.6854,6.6854,6.6854,6.6884,6.6918,6.6915,6.6957,6.7047,6.8394,6.9044,6.9059,0.0,0.0,7.0984,7.0984,7.0917,7.0827,7.0827,7.0827,7.0827,7.0827,7.0402,6.9691,6.8874,6.8443,6.8295,6.837,6.8388,6.8435,0.0,0.0,0.0,0.0,0.0,0.0,0.0,5.5018,5.5606,5.6484,5.6601,5.6601,5.6601,5.6601,5.6603,5.6607,5.6591,5.6594,5.6596,5.6562,5.6541,5.6541,5.6541,5.6518,5.6446,5.638,5.6772,5.7651,5.7628,5.8053,5.8895,5.8895,5.8895,5.8897,5.8934,5.8949,5.8954,5.9062,5.9093,5.9133,5.9609,5.9531,5.914,5.9199,5.9453,5.9805,5.9805,6.0332,6.0996,6.0586,6.0723,6.0976,6.0586,6.0723,6.0976,0.0,0.0,0.0,0.0,0.0,0.0,0.0,0.0,0.0,0.0,0.0,0.0,0.0,0.0,6.3652,6.3652,0.0,6.4889,6.481,6.5529,6.6084,6.6012,6.6451,6.6754,6.6656,6.6744,6.6806,6.6806,6.6854,6.6894,6.6894,6.6894,6.709,6.7539,6.7558,6.7909,6.8682,6.8701,6.8859,6.9204,7.0023,7.0429,7.0417,7.1271,7.1668,7.1601,7.1601,7.1562,7.1501,7.1501,7.1501,7.1496,7.142,7.115,7.0704,7.0316,6.9614,6.8852,6.8889,6.8984,6.9102,0.0,0.0,0.0,0.0,0.0,0.0,0.0,0.0,5.6411,5.6585,5.6605,5.6605,5.6605,5.6605,5.6609,5.6598,5.6606,5.6591,5.6591,5.6592,5.6593,5.6593,5.6593,5.6593,5.6593,5.6483,5.6866,5.7745,5.7845,5.8343,5.9204,5.936,5.944,5.9441,5.9502,5.9515,5.9536,5.9648,5.9687,5.9746,6.039,6.0644,6.0585,5.9921,6.0097,6.0644,6.0644,6.1094,6.1699,6.1699,6.1699,6.1699,6.1699,6.1699,6.1699,6.1699,6.1699,0.0,0.0,0.0,0.0,0.0,0.0,0.0,0.0,6.2128,6.3242,6.3242,6.3945,6.4551,6.4551,6.5254,6.5819,6.5702,6.6362,6.6854,6.6756,6.6831,6.6854,6.6755,6.6831,6.6894,6.6894,6.6894,6.6972,6.7148,6.7148,6.7539,6.8398,6.8437,6.9043,7.039,7.0449,7.0739,7.1339,7.1495,7.1551,7.1508,7.1683,7.1733,7.1714,7.1714,7.1701,7.17,7.17,7.17,7.1694,7.1584,7.1533,7.1533,7.1533,7.0696,6.946,6.946,6.9594,6.9787,0.0,0.0,0.0,0.0,0.0,0.0,0.0,0.0,0.0,5.6507,5.6605,5.6605,5.6605,5.6605,5.6606,5.6607,5.6597,5.6602,5.6602,5.6609,5.6593,5.6593,5.6593,5.6593,5.6593,5.6596,5.7007,5.7886,5.8591,5.9373,6.0252,6.1013,6.1384,6.1384,6.1383,6.1402,6.1401,6.1419,6.1418,6.1437,6.1516,6.1555,6.1535,6.1457,6.1482,6.1543,6.1543,6.1621,6.1699,6.1698,6.1698,6.1697,6.1693,6.1691,6.1692,6.1697,6.1698,6.1698,6.1698,6.1695,6.1672,6.1574,6.2141,6.2707,0.0,6.3468,6.4153,6.4157,6.4841,6.5448,6.5449,6.6172,6.6758,6.6738,6.6836,6.6894,6.6874,6.6894,6.6894,6.6874,6.6894,6.6894,6.6894,6.6894,6.7226,6.8008,6.8047,6.8418,6.9219,6.9277,6.9355,6.9531,6.9551,6.959,6.9667,7.0449,7.0819,7.0818,7.1599,7.1902,7.1782,7.1782,7.1765,7.17,7.17,7.17,7.17,7.1686,7.168,7.168,7.168,7.1587,7.1478,7.1478,7.1488,7.1546,0.0,0.0,0.0,0.0,0.0,0.0,0.0,0.0,0.0,0.0,5.6389,5.6438,5.6438,5.6529,5.6605,5.6605,5.6609,5.6593,5.6593,5.6596,5.6599,5.6599,5.6599,5.6599,5.6599,5.6604,5.7016,5.7837,5.8681,5.9542,6.0421,6.1299,6.1709,6.1709,6.1709,6.1709,6.1709,6.1709,6.1709,6.1709,6.1709,6.1709,6.1709,6.1709,6.1692,6.1696,6.1696,6.1696,0.0,6.1694,6.1693,6.1693,6.169,6.1709,6.1709,6.1692,6.2064,6.2572,6.3079,6.3214,6.3212,6.3212,6.3486,6.3759,6.3759,6.4422,6.5069,6.5055,6.5759,6.6365,6.6367,6.664,6.6894,6.6894,6.6894,6.6894,6.6894,6.6894,6.6894,6.6894,6.7344,6.7461,6.6953,6.7363,6.7812,6.8164,6.8633,6.9277,7.0117,7.0156,7.039,7.0898,7.0918,7.0918,7.0918,7.1269,7.1465,7.1465,7.1836,7.1972,7.1926,7.1926,7.19,7.1864,7.1864,7.1827,7.1767,7.1767,7.1767,7.1767,7.1767,7.1816,7.1909,7.1826,7.1854,7.1911,0.0,0.0,0.0,0.0,0.0,0.0,0.0,0.0,0.0,0.0,0.0,5.623,5.623,5.6367,5.6486,5.6504,5.6525,5.6532,5.6604,5.6605,5.6605,5.6605,5.6605,5.6605,5.6605,5.6594,5.689,5.7477,5.8323,5.9185,6.0064,6.0922,6.1469,6.1702,6.1702,6.1702,6.1702,6.1702,6.1702,6.1702,6.1702,6.1702,6.1702,6.1702,6.1702,6.1703,6.1707,6.1709,0.0,6.1707,6.1706,6.1706,6.1703,6.1859,6.2055,6.2057,6.2682,6.3503,6.4127,6.4301,6.4299,6.4299,6.4475,6.465,6.465,6.5315,6.5922,6.593,6.6438,6.689,6.6893,6.6894,6.6894,6.6894,6.6894,6.6894,6.6894,6.7109,6.7265,6.7265,6.8027,6.8301,6.7656,6.8164,6.8633,6.8867,6.9433,7.0137,7.1015,7.1055,7.1347,7.1972,7.1992,7.1992,7.1992,7.1992,7.1992,7.1992,7.1992,7.1992,7.1992,7.1992,7.1992,7.1992,7.1992,7.193,7.1852,7.1855,7.1856,7.1856,7.1859,7.1912,7.1989,7.1889,7.1912,7.2007,0.0,0.0,0.0,0.0,0.0,0.0,0.0,0.0,0.0,0.0,0.0,0.0,0.0,5.6107,5.6161,5.6306,5.6314,5.6386,5.6583,5.6605,5.6605,5.6605,5.6605,5.6605,5.6605,5.6606,5.6606,5.6645,5.7446,5.8286,5.9163,6.0023,6.0882,6.1701,6.1701,6.1701,6.1701,6.1701,6.1701,6.1701,6.1701,6.1701,6.1701,6.1701,6.1701,6.1703,6.1704,0.0,6.1708,6.1701,6.1698,6.1697,6.1704,6.2286,6.2953,6.2963,6.3572,6.4275,6.4294,6.4307,6.4299,6.4299,6.4942,6.5567,6.5567,6.6172,6.6761,6.6752,6.6774,6.6816,6.6883,6.6909,6.6891,6.6905,6.6892,6.6894,6.6892,6.7636,6.8164,6.8164,6.8926,6.9414,6.9336,6.9355,6.9707,7.0566,7.0644,7.1035,7.1914,7.1953,7.1972,7.1992,7.1992,7.1992,7.1992,7.1992,7.1992,7.1992,7.1992,7.1992,7.1992,7.1992,7.1992,7.1992,7.1992,7.1992,7.1992,7.1991,7.199,7.199,7.1985,7.2001,7.2001,7.2001,7.2001,7.2,0.0,0.0,0.0,0.0,0.0,0.0,0.0,0.0,0.0,0.0,0.0,0.0,0.0,0.0,0.0,0.0,5.6133,5.62,5.6256,5.6359,5.6409,5.6409,5.6529,5.6605,5.6605,5.6605,5.6605,5.6605,5.7406,5.7953,5.8265,5.9729,6.0568,6.0861,6.1446,6.1699,6.1699,6.1699,6.1699,6.1699,6.1699,6.1699,6.1699,6.1699,6.1699,6.1701,0.0,0.0,6.1691,6.1707,6.2077,6.2565,6.2561,6.3164,6.3985,6.4555,6.4927,6.5279,6.5807,6.5959,6.5957,6.5957,6.6172,6.6406,6.6406,6.6601,6.68,6.679,6.6792,6.6815,6.6882,6.6905,6.6906,6.6904,6.7356,6.7709,6.7707,6.8451,6.8998,6.8998,6.976,7.0288,7.0268,7.0253,7.0371,7.0683,7.123,7.1699,7.1972,7.1992,7.1992,7.1991,7.1991,7.2009,7.2006,7.2006,7.2006,7.2006,7.2009,7.1991,7.1991,7.1991,7.1991,7.1991,7.2008,7.2006,7.2006,7.2004,7.2004,7.2004,7.2001,7.1997,7.1992,7.1992,7.2006,7.2002,0.0,0.0,0.0,0.0,0.0,0.0,0.0,0.0,0.0,0.0,0.0,0.0,0.0,0.0,0.0,0.0,0.0,5.6117,5.6481,5.6296,5.6322,5.6611,5.6463,5.6398,5.6398,5.6398,5.6398,5.6398,5.6907,5.7322,5.7644,5.8775,5.9636,6.0286,6.0898,6.1337,6.163,6.1671,6.1699,6.1699,6.1699,6.1699,6.1699,6.1699,6.1699,0.0,0.0,6.1895,6.2168,6.2168,6.2735,6.3457,6.3457,6.4064,6.4922,6.578,6.6034,6.6131,6.666,6.6796,6.6796,6.6796,6.6796,6.6796,6.6796,6.6796,6.6799,6.6805,6.6807,6.6809,6.6855,6.6858,6.6859,6.6856,6.7564,6.8094,6.8091,6.9127,6.9851,6.9851,7.0632,7.116,7.116,7.1167,7.1151,7.1151,7.1678,7.199,7.199,7.199,7.2009,7.2007,7.2006,7.2005,7.2,7.2,7.2,7.2,7.2005,7.2006,7.2006,7.2006,7.2006,7.2006,7.2002,7.2,7.2,7.1997,7.1995,7.1995,7.1992,7.2006,7.2,7.2,7.1995,7.2008,0.0,0.0,0.0,0.0,0.0,0.0,0.0,0.0,0.0,0.0,0.0,0.0,0.0,0.0,0.0,0.0,0.0,0.0,5.7183,5.6505,5.6393,5.7164,5.6459,5.604,5.6001,5.6001,5.6001,5.6001,5.6001,5.6415,5.7238,5.7316,5.8284,5.9934,6.0155,6.0704,6.1486,6.1605,6.167,6.167,6.167,6.1672,6.1694,6.1694,6.1697,0.0,6.1699,6.2285,6.3067,6.3028,6.3576,6.4317,6.4356,6.4922,6.5761,6.6562,6.6796,6.6796,6.6796,6.6796,6.6796,6.6796,6.6796,6.6796,6.6796,6.6796,6.6796,6.6796,6.6796,6.6796,6.6796,6.6805,6.6808,6.6798,6.7575,6.8169,6.816,6.967,7.0768,7.0768,7.1491,7.1998,7.1998,7.1998,7.1998,7.1998,7.1999,7.2,7.2,7.2,7.2,7.1999,7.1999,7.1999,7.1998,7.1998,7.1998,7.1998,7.1999,7.1999,7.1999,7.1999,7.1999,7.1999,7.1999,7.1998,7.1998,7.2009,7.2005,7.2004,7.1993,7.2007,7.2007,7.2007,7.2007,7.2007,0.0,0.0,0.0,0.0,0.0,0.0,0.0,0.0,0.0,0.0,0.0,0.0,0.0,0.0,0.0,0.0,0.0,0.0,5.7813,5.7158,5.684,5.7033,5.6957,5.6618,5.6001,5.6001,5.6001,5.6001,5.6001,5.6106,5.6353,5.7614,5.8432,5.8948,6.0211,6.0928,6.1122,6.1161,6.1175,6.1178,6.1224,6.1348,6.1485,6.1539,6.16,6.1699,6.1699,6.2676,6.3868,6.3223,6.3576,6.4415,6.5058,6.5429,6.5761,6.6562,6.6796,6.6796,6.6796,6.6796,6.6796,6.6796,6.6796,6.6796,6.6796,6.6796,6.6796,6.6796,6.6796,6.6796,6.6796,6.6799,6.68,6.6796,6.807,6.9068,6.9066,7.057,7.1666,7.1666,7.1861,7.1997,7.1997,7.1997,7.1997,7.1997,7.1993,7.2,7.2,7.2,7.1997,7.1991,7.1991,7.2006,7.1997,7.1997,7.1997,7.1997,7.2006,7.1991,7.1991,7.1991,7.1991,7.2009,7.2001,7.1997,7.1997,7.1994,7.1993,7.1993,7.2008,7.2007,7.2007,7.2007,7.2007,7.2007,0.0,0.0,0.0,0.0,0.0,0.0,0.0,0.0,0.0,0.0,0.0,0.0,0.0,0.0,0.0,0.0,0.0,0.0,0.0,5.7828,5.7386,5.7386,5.7095,5.6564,5.5755,5.5735,5.5735,5.5735,5.5735,5.5745,5.577,5.67,5.7352,5.7806,5.8807,5.9462,5.9834,6.0284,6.0472,0.0,0.0,6.1179,6.1275,6.1348,6.1419,6.1489,6.1489,6.2413,6.3615,6.3473,6.3826,6.4454,6.5331,6.5604,6.5761,6.6562,6.6796,6.6796,6.6796,6.6796,6.6796,6.6796,6.6796,6.6796,6.6796,6.6796,6.6796,6.6796,6.6796,6.6796,6.6796,6.6796,6.6796,6.6796,6.826,6.9392,6.9392,7.0894,7.2007,7.2007,7.2007,7.2007,7.2007,7.2007,7.2007,7.2007,7.2001,7.2007,7.2007,7.2007,7.2005,7.1999,7.1999,7.1995,7.2007,7.2007,7.2007,7.2007,7.1995,7.1999,7.1999,7.1999,7.1999,7.2018,0.0,7.2573,7.2592,7.2944,7.31,7.31,7.31,7.31,7.31,7.31,7.31,7.31,0.0,0.0,0.0,0.0,0.0,0.0,0.0,0.0,0.0,0.0,0.0,0.0,0.0,0.0,0.0,0.0,0.0,0.0,0.0,0.0,5.7772,5.7886,5.7071,5.6224,5.5415,5.5396,5.5396,5.5396,5.5396,5.5409,5.5408,5.5504,5.5981,5.6783,5.7019,5.7537,5.83,5.9295,5.971,5.9773,6.0678,6.1033,6.1062,0.0,0.0,6.1202,6.1326,6.1972,6.2876,6.3569,6.3957,6.4278,6.5155,6.5429,6.5604,6.6523,6.6796,6.6796,6.6796,6.6796,6.6796,6.6796,6.6796,6.6796,6.6796,6.6796,6.6796,6.6796,6.6796,6.6796,6.6796,6.6796,6.6796,6.6796,6.826,6.9392,6.9392,7.0894,7.2007,7.2007,7.2007,7.2007,7.2007,7.2007,7.2007,7.2007,7.2007,7.2007,7.2007,7.2007,7.2007,7.2007,7.2007,7.2007,7.2007,7.2007,7.2007,7.2007,7.2124,7.2163,7.2182,7.228,7.2339,7.2378,7.3137,0.0,7.3508,7.4212,7.4505,7.4505,7.4505,7.4505,7.4505,7.4505,7.4505,7.4505,0.0,0.0,0.0,0.0,0.0,0.0,0.0,0.0,0.0,0.0,5.5396,5.5396,0.0,0.0,0.0,0.0,0.0,0.0,0.0,0.0,0.0,5.7867,5.7071,5.6224,5.5415,5.5396,5.5396,5.5396,5.5396,5.5403,5.5416,5.6072,5.6486,5.6671,5.7405,5.7826,5.8023,5.8873,5.9217,5.9294,6.0226,6.0671,6.0776,0.0,0.0,0.0,6.1995,6.2389,6.2577,6.2701,6.2971,6.3379,6.4259,6.4532,6.4825,6.6347,6.6796,6.6796,6.6796,6.6796,6.6796,6.6796,6.6796,6.6796,6.6796,6.6796,6.6796,6.6796,6.6796,6.6796,6.6796,6.6796,6.6796,6.6796,6.826,6.9392,6.9392,7.0894,7.2007,7.2007,7.2007,7.2007,7.2007,7.2007,7.2007,7.2007,7.2007,7.2007,7.2007,7.2007,7.2007,7.2007,7.2007,7.2007,7.2007,7.2007,7.2007,7.2007,7.2729,7.3079,7.3098,7.3763,7.4076,7.4076,7.4232,0.0,7.429,7.4447,7.4505,7.4505,7.4505,7.4505,7.4505,7.4505,7.4505,7.4505,0.0,0.0,0.0,0.0,0.0,0.0,0.0,5.5396,5.5396,5.5396,5.5396,5.5396,5.5396,5.5747,0.0,0.0,0.0,0.0,0.0,0.0,0.0,0.0,5.6823,5.6224,5.5415,5.5396,5.5396,5.5396,0.0,5.5396,5.5415,5.5785,5.5976,5.5995,5.6415,5.6606,5.6645,5.7466,5.8058,5.8555,5.9458,6.0124,0.0,0.0,0.0,0.0,6.187,6.2254,6.2413,6.2878,6.2935,6.2994,6.3877,6.4216,6.463,6.6308,6.6796,6.6796,6.6796,6.6796,6.6796,6.6796,6.6796,6.6796,6.6796,6.6796,6.6796,6.6796,6.6796,6.6796,6.6796,6.6796,6.6796,6.6796,6.7888,6.8884,6.9334,7.0504,7.1499,7.1948,7.2007,7.2007,7.2007,7.2007,7.2007,7.2007,7.2007,7.2007,7.2007,7.2007,7.2007,7.2007,7.2007,7.2007,7.2007,7.2007,7.2221,7.269,7.3098,7.3528,7.3939,7.433,7.4505,7.4525,7.4974,0.0,7.5209,7.5676,7.5852,7.5852,7.5852,7.5852,7.5852,7.5852,7.5852,7.5852,0.0,0.0,0.0,0.0,0.0,0.0,0.0,5.5396,5.5396,5.5396,5.5396,5.5396,5.5396,5.5396,5.5651,0.0,0.0,0.0,0.0,0.0,0.0,0.0,0.0,0.0,5.5415,0.0,0.0,5.5396,5.5396,0.0,0.0,0.0,0.0,0.0,5.5396,5.5396,5.5454,5.6269,5.6995,0.0,0.0,5.9579,0.0,0.0,0.0,0.0,0.0,6.2109,6.2513,6.3196,6.3303,6.3277,6.397,6.4235,6.463,6.6308,6.6796,6.6796,6.6796,6.6796,6.6796,6.6796,6.6796,6.6796,6.6796,6.6796,6.6796,6.6796,6.6796,6.6796,6.6796,6.6796,6.6796,6.6796,6.7537,6.8396,6.9275,7.0152,7.101,7.1909,7.2007,7.2007,7.2007,7.2007,7.2007,7.2007,7.2007,7.2007,7.2007,7.2007,7.2007,7.2007,7.2007,7.2007,7.2007,7.2182,7.2612,7.3294,7.3664,7.4173,7.4778,7.4974,7.5052,7.5091,7.5775,0.0,0.0,7.6828,7.7101,7.7101,7.7101,7.7101,7.7101,7.7101,7.7101,7.7101,0.0,0.0,0.0,0.0,0.0,0.0,0.0,5.5396,5.5396,5.5396,5.5396,5.5396,5.5396,5.5396,5.5435,0.0,0.0,0.0,0.0,0.0,0.0,0.0,0.0,0.0,0.0,0.0,0.0,5.5396,5.5396,0.0,0.0,0.0,0.0,0.0,0.0,5.5396,5.5454,5.6269,0.0,0.0,0.0,0.0,0.0,0.0,0.0,0.0,0.0,6.2375,6.3124,6.32,6.3844,6.4624,6.4691,6.4535,6.463,6.6308,6.6796,6.6796,6.6796,6.6796,6.6796,6.6796,6.6796,6.6796,6.6796,6.6796,6.6796,6.6796,6.6796,6.6796,6.6796,6.6796,6.6796,6.6796,6.7537,6.8396,6.9275,7.0152,7.101,7.1909,7.2007,7.2007,7.2007,7.2007,7.2007,7.2007,7.2007,7.2007,7.2007,7.2007,7.2007,7.2007,7.2007,7.2007,7.2007,7.2787,7.3216,7.3313,7.4837,7.5619,7.5717,7.6496,7.6867,7.6867,7.6945,0.0,0.0,7.7062,7.7101,7.7101,7.7101,7.7101,7.7101,7.7101,7.7101,7.7101,0.0,0.0,0.0,0.0,0.0,0.0,5.5396,5.5396,5.5396,5.5396,5.5396,5.5396,5.5396,5.5396,5.5396,0.0,0.0,0.0,0.0,0.0,0.0,0.0,0.0,0.0,0.0,0.0,5.5396,5.5396,5.5396,0.0,0.0,0.0,0.0,0.0,0.0,5.5396,5.5415,5.5747,0.0,0.0,0.0,0.0,0.0,0.0,0.0,0.0,0.0,0.0,6.3226,6.3757,6.4309,6.4899,6.5426,6.5268,6.5131,6.6321,6.6746,6.6796,6.6796,6.6796,6.6796,6.6796,6.6796,6.6796,6.6796,6.6796,6.6796,6.6796,6.6796,6.6796,6.6796,6.6796,6.6796,6.6796,6.7089,6.7615,6.8493,6.9372,7.023,7.1109,7.1675,7.2007,7.2007,7.2007,7.2007,7.2007,7.2007,7.2007,7.2007,7.2007,7.2007,7.2007,7.2007,7.2241,7.2787,7.3137,7.3801,7.4818,7.5483,7.6068,7.6594,7.6945,7.7101,7.7101,7.7101,0.0,0.0,7.7101,7.7101,7.7101,7.7101,7.7101,7.7101,7.7101,7.7101,7.7101,0.0,0.0,0.0,0.0,0.0,5.5396,5.5396,5.5396,5.5396,5.5396,5.5186,5.5021,5.5021,5.4791,5.4728,5.4995,0.0,0.0,0.0,0.0,0.0,0.0,0.0,0.0,0.0,0.0,5.5396,5.5396,5.5396,5.5396,0.0,0.0,5.5396,5.5396,0.0,0.0,0.0,0.0,0.0,0.0,0.0,0.0,0.0,0.0,0.0,0.0,0.0,0.0,0.0,0.0,0.0,6.5225,6.5854,6.5845,6.5728,6.6407,6.6682,6.6796,6.6796,6.6796,6.6796,6.6796,6.6796,6.6796,6.6796,6.6796,6.6796,6.6796,6.6796,6.6796,6.6796,6.6796,6.6796,6.6796,6.6796,6.7109,6.7986,6.8845,6.9723,7.06,7.148,7.2007,7.2007,7.2007,7.2007,7.2007,7.2007,7.2007,7.2007,7.2007,7.2007,7.2007,7.2007,7.2417,7.3294,7.3547,7.4388,7.5795,7.6068,7.6516,7.7101,7.7101,7.7101,7.7101,7.7101,0.0,0.0,7.7101,7.7101,7.7101,7.7101,7.7101,7.7101,7.7101,7.7101,7.7101,0.0,0.0,0.0,0.0,0.0,0.0,5.5396,5.5396,5.5396,5.5396,5.4658,5.4104,5.4104,5.3339,5.3168,5.4046,0.0,0.0,0.0,0.0,0.0,0.0,0.0,0.0,0.0,0.0,5.5396,5.5396,5.5396,5.5396,5.5396,5.5396,5.5396,5.5396,0.0,0.0,0.0,0.0,0.0,0.0,0.0,0.0,0.0,0.0,0.0,0.0,0.0,0.0,0.0,0.0,0.0,0.0,0.0,6.6082,6.6325,6.6538,6.6682,6.6796,6.6796,6.6796,6.6796,6.6796,6.6796,6.6796,6.6796,6.6796,6.6796,6.6796,6.6796,6.6796,6.6796,6.6796,6.6796,6.6796,6.6796,6.7109,6.7986,6.8845,6.9723,7.06,7.148,7.2007,7.2007,7.2007,7.2007,7.2007,7.2007,7.2007,7.2007,7.2007,7.2007,7.2007,7.2007,7.2417,7.3294,7.4095,7.4935,7.5814,7.6672,7.7082,7.7101,7.7101,7.7101,7.7101,0.0,0.0,0.0,7.7101,7.7101,7.7101,7.7101,7.7101,7.7101,7.7101,7.7101,7.7101,0.0,0.0,0.0,0.0,0.0,0.0,0.0,5.5396,5.5396,5.5396,5.4639,5.4104,5.4104,5.3855,5.3798,5.4085,0.0,0.0,0.0,0.0,0.0,0.0,0.0,0.0,0.0,0.0,5.5396,5.5396,5.5396,5.5396,5.5396,5.5396,5.5396,5.5396,5.5396,5.5396,0.0,0.0,0.0,0.0,0.0,0.0,6.0465,0.0,0.0,0.0,0.0,0.0,0.0,0.0,0.0,0.0,0.0,0.0,0.0,6.6369,6.6593,6.6796,6.6796,6.6796,6.6796,6.6796,6.6796,6.6796,6.6796,6.6796,6.6796,6.6796,6.6796,6.6796,6.6796,6.6796,6.6796,6.6796,6.6796,6.6894,6.7166,6.8475,6.951,6.9782,7.1109,7.2007,7.2007,7.2007,7.2007,7.2007,7.2007,7.2007,7.2007,7.2007,7.2007,7.2007,7.2573,7.3275,7.4115,7.4954,7.5834,7.6691,7.6965,7.7101,7.7101,7.7101,7.7101,0.0,0.0,0.0,0.0,7.7101,7.7101,7.7101,7.7101,7.7101,7.7101,7.7101,7.7101,7.7101,0.0,0.0,0.0,0.0,0.0,0.0,0.0,5.5396,5.5396,5.5396,5.4639,5.4104,5.4104,5.3817,5.3741,5.4065,0.0,0.0,0.0,0.0,0.0,0.0,0.0,0.0,0.0,5.5396,5.5396,5.5396,5.5396,5.5396,5.5396,5.5396,5.5396,5.5396,5.5396,5.5396,0.0,0.0,0.0,0.0,0.0,0.0,6.0505,0.0,0.0,0.0,0.0,0.0,0.0,0.0,0.0,0.0,0.0,0.0,0.0,0.0,6.6548,6.6796,6.6796,6.6796,6.6796,6.6796,6.6796,6.6796,6.6796,6.6796,6.6796,6.6796,6.6796,6.6796,6.6796,6.6796,6.6796,6.6796,6.6796,6.6796,6.6796,6.8299,6.9646,7.031,7.1343,7.2007,7.2007,7.2007,7.2007,7.2007,7.2007,7.2007,7.2007,7.2007,7.2007,7.2007,7.2845,7.3684,7.4486,7.5365,7.6244,7.7101,7.7101,7.7101,7.7101,7.7101,7.7101,0.0,0.0,0.0,0.0,7.7101,7.7101,7.7101,7.7101,7.7101,7.7101,7.7101,7.7101,7.7101,0.0,0.0,0.0,0.0,0.0,0.0,0.0,0.0,5.5396,5.5396,5.4639,5.4104,5.4104,5.3384,5.3225,5.4027,0.0,0.0,0.0,0.0,0.0,0.0,0.0,0.0,5.5396,5.5396,5.5396,5.5396,5.5396,5.5396,5.5396,5.5403,5.5403,5.5403,5.5403,5.5422,0.0,0.0,0.0,0.0,0.0,0.0,0.0,0.0,0.0,0.0,0.0,0.0,0.0,0.0,0.0,0.0,0.0,0.0,0.0,0.0,0.0,0.0,0.0,6.6796,6.6796,6.6796,6.6796,6.6796,6.6796,6.6796,0.0,6.6796,6.6796,6.6796,6.6796,6.6796,6.6796,6.6796,6.6796,6.6816,6.6874,6.8397,7.0113,7.1792,7.2007,7.2007,7.2007,7.2007,7.2007,7.2007,7.2007,7.2007,7.2007,7.2007,7.2007,7.2007,7.2845,7.3684,7.4486,7.5424,7.6302,7.7101,7.7101,7.7101,7.7101,7.7101,7.7101,0.0,0.0,0.0,0.0,7.7101,7.7101,7.7101,7.7101,7.7101,7.7101,7.7101,7.7101,7.7101,0.0,0.0,0.0,0.0,0.0,0.0,0.0,0.0,0.0,0.0,5.4639,5.4104,5.4104,5.3913,5.3874,0.0,0.0,0.0,0.0,0.0,0.0,0.0,0.0,0.0,5.5396,5.5396,5.5396,5.5396,5.5396,5.5396,5.5403,5.539,5.5396,5.5396,5.5396,5.5766,0.0,0.0,0.0,0.0,0.0,0.0,0.0,0.0,0.0,0.0,6.268,6.3282,0.0,0.0,0.0,0.0,0.0,0.0,0.0,0.0,6.6548,6.6796,6.6796,0.0,6.6796,6.6796,6.6796,6.6796,0.0,6.6796,6.6796,6.6796,6.6796,6.6796,6.6796,6.6796,6.6796,6.6796,6.6796,6.7031,6.7693,6.9294,7.0797,7.187,7.2007,7.2007,7.2007,7.2007,7.2007,7.2007,7.2007,7.2007,7.2007,7.2007,7.2007,7.2007,7.2845,7.3684,7.4486,7.6028,7.6906,7.7101,7.7101,7.7101,7.7101,7.7101,7.7101,0.0,0.0,0.0,7.7101,7.7101,7.7101,7.7101,7.7101,7.7101,7.7101,7.7101,7.7101,7.7101,0.0,0.0,0.0,0.0,0.0,0.0,0.0,0.0,0.0,0.0,0.0,0.0,0.0,0.0,0.0,0.0,0.0,0.0,0.0,0.0,0.0,0.0,0.0,5.5396,5.5396,5.5396,5.5396,5.5396,5.5396,5.5396,5.5403,5.5409,5.5402,5.5421,5.584,5.6541,0.0,0.0,0.0,0.0,5.9982,0.0,0.0,0.0,0.0,0.0,6.2698,6.3295,0.0,6.5301,6.5904,6.5904,0.0,0.0,0.0,0.0,6.6488,6.6816,6.7276,6.7109,6.6796,6.6796,6.6796,6.6796,6.6796,6.6796,6.6796,6.6796,6.6796,6.6796,6.6796,6.6796,6.6796,6.6796,6.6796,6.7245,6.8513,6.986,7.101,7.1909,7.2007,7.2007,7.2007,7.2007,7.2007,7.2007,7.2007,7.2007,7.2007,7.2007,7.2007,7.2007,7.2845,7.3684,7.4486,7.5833,7.6691,7.7101,7.7101,7.7101,7.7101,7.7101,7.7101,0.0,0.0,0.0,7.7101,7.7101,7.7101,7.7101,7.7101,7.7101,7.7101,7.7101,7.7101,7.7101,0.0,0.0,0.0,0.0,0.0,0.0,0.0,0.0,0.0,0.0,0.0,0.0,0.0,0.0,0.0,0.0,0.0,0.0,0.0,0.0,0.0,0.0,0.0,5.5428,5.5428,5.5428,5.5428,5.5428,5.5428,5.5428,5.5409,5.5421,5.549,5.5668,5.6457,5.7393,0.0,0.0,0.0,0.0,6.0783,0.0,0.0,0.0,0.0,0.0,0.0,0.0,0.0,6.5166,6.5788,6.5904,6.5904,0.0,0.0,0.0,0.0,0.0,6.7657,6.7361,6.6835,6.6972,6.6894,6.6796,6.6796,6.6796,6.6796,6.6796,6.6796,6.6796,6.6796,6.6796,6.6796,6.6796,6.7011,6.7753,6.9372,7.0348,7.1167,7.1909,7.2007,7.2007,7.2007,7.2007,7.2007,7.2007,7.2007,7.2007,7.2007,7.2007,7.2007,7.2007,7.2729,7.3547,7.4486,7.5365,7.6244,7.7101,7.7101,7.7101,7.7101,7.7101,7.7101,7.7101,0.0,0.0,7.7101,7.7101,7.7101,7.7101,7.7101,7.7101,7.7101,7.7101,7.7101,7.7101,0.0,0.0,0.0,0.0,0.0,0.0,0.0,0.0,0.0,0.0,0.0,0.0,0.0,0.0,0.0,0.0,0.0,0.0,0.0,0.0,0.0,5.5474,5.5474,5.5474,5.5474,5.5474,5.5474,5.5474,5.5474,5.5474,5.5494,5.5539,5.5957,5.6687,5.6814,5.7741,5.9226,0.0,0.0,0.0,6.08,0.0,0.0,0.0,0.0,0.0,0.0,0.0,0.0,6.4455,6.5282,6.5904,6.5904,0.0,0.0,0.0,0.0,0.0,6.6936,6.6894,6.6972,6.7712,6.7342,6.6796,6.6796,6.6796,6.6796,6.6796,6.6796,6.6796,6.6796,6.6796,6.6796,6.6796,6.8046,6.9352,7.0367,7.1245,7.1851,7.1987,7.2007,7.2007,7.2007,7.2007,7.2007,7.2007,7.2007,7.2007,7.2007,7.2007,7.2007,7.2007,7.2124,7.2944,7.4486,7.5365,7.6244,7.7101,7.7101,7.7101,7.7101,7.7101,7.7101,7.7101,0.0,7.7101,7.7101,7.7101,7.7101,7.7101,7.7101,7.7101,7.7101,7.7101,7.7101,7.7101,0.0,0.0,0.0,0.0,0.0,0.0,0.0,0.0,0.0,0.0,0.0,0.0,0.0,0.0,0.0,0.0,0.0,0.0,0.0,0.0,0.0,5.5556,5.5585,5.5573,5.5504,5.5504,5.5504,5.5504,5.5504,5.5504,5.5504,5.6053,5.6541,5.6997,5.7901,5.8721,5.949,5.9952,0.0,0.0,0.0,0.0,0.0,0.0,0.0,0.0,0.0,0.0,0.0,0.0,6.5186,6.5904,6.5904,0.0,0.0,0.0,0.0,0.0,6.7222,6.7102,6.7011,6.7888,6.7439,6.6796,6.6796,6.6796,6.6796,6.6796,6.6796,6.6796,6.6796,6.6796,6.6952,6.7439,6.8571,6.9703,7.058,7.1441,7.2007,7.2007,7.2007,7.2007,7.2007,7.2007,7.2007,7.2007,7.2007,7.2007,7.2007,7.2007,7.2007,7.2007,7.2007,7.2592,7.384,7.4681,7.5774,7.7101,7.7101,7.7101,7.7101,7.7101,7.7101,7.7101,0.0,7.7101,7.7101,7.7101,7.7101,7.7101,7.7101,7.7101,7.7101,7.7101,7.7101,7.7101,0.0,0.0,0.0,0.0,0.0,0.0,0.0,0.0,0.0,0.0,0.0,0.0,0.0,0.0,0.0,0.0,0.0,0.0,0.0,0.0,5.5618,5.5618,5.5662,5.5646,5.5551,5.5545,5.5545,5.5545,5.5545,5.5646,5.5877,5.6581,5.7164,5.7632,5.8934,5.9608,5.9858,6.0512,6.0806,0.0,0.0,0.0,0.0,0.0,0.0,0.0,0.0,0.0,0.0,0.0,0.0,0.0,0.0,0.0,0.0,6.606,6.6181,6.6446,6.7281,6.7142,6.6946,6.7786,6.7535,6.705,6.6855,6.6952,6.705,6.6835,6.6796,6.6796,6.6796,6.6796,6.7148,6.8239,6.8962,6.9782,7.0855,7.1577,7.2007,7.2007,7.2007,7.2007,7.2007,7.2007,7.2007,7.2007,7.2007,7.2007,7.2007,7.2007,7.2007,7.2007,7.2007,7.2417,7.3294,7.392,7.5091,7.6808,7.7004,7.7101,7.7101,7.7101,7.7101,7.7101,7.7101,7.7101,7.7101,7.7101,7.7101,7.7101,7.7101,7.7101,7.7101,7.7101,7.7101,7.7101,0.0,0.0,0.0,0.0,0.0,0.0,0.0,0.0,0.0,0.0,0.0,0.0,0.0,0.0,0.0,0.0,0.0,0.0,0.0,0.0,5.5678,5.5678,5.5703,5.5703,5.5692,5.5692,5.5692,5.5692,5.5692,5.6102,5.689,5.6953,5.7838,5.9338,5.9454,5.9954,6.0704,6.0762,6.0806,6.0806,6.0806,0.0,0.0,0.0,0.0,0.0,0.0,0.0,0.0,0.0,0.0,0.0,0.0,0.0,6.5934,6.606,6.6118,6.6158,6.6361,6.6513,6.6774,6.7465,6.7813,6.7791,6.6972,6.7439,6.7771,6.6972,6.6796,6.6796,6.6796,6.6796,6.7343,6.9022,6.9353,6.9998,7.1675,7.1968,7.2007,7.2007,7.2007,7.2007,7.2007,7.2007,7.2007,7.2007,7.2007,7.2007,7.2007,7.2007,7.2007,7.2007,7.2007,7.2417,7.3294,7.3352,7.4232,7.5893,7.6711,7.7101,7.7101,7.7101,7.7101,7.7101,7.7101,7.7101,7.7101,7.7101,7.7101,7.7101,7.7101,7.7101,7.7101,7.7101,7.7101,7.7101,0.0,0.0,0.0,0.0,0.0,0.0,0.0,0.0,0.0,0.0,0.0,0.0,0.0,0.0,0.0,0.0,0.0,0.0,0.0,5.5708,5.5708,5.5708,5.5708,5.5708,5.5708,5.5708,5.5708,5.5708,5.6247,5.667,5.7022,5.8074,5.8896,5.9511,6.0069,6.0492,6.0806,6.0806,6.0806,6.0806,6.0806,0.0,0.0,0.0,0.0,0.0,0.0,0.0,0.0,0.0,6.4455,6.5904,6.5904,6.5904,6.5903,6.5962,6.6036,6.6104,6.6162,6.6371,6.6758,6.7432,6.8173,6.8498,6.768,6.7798,6.7838,6.6875,6.6749,6.6765,6.6699,6.673,6.7331,6.9005,6.9348,7.0017,7.1753,7.2007,7.2007,7.2007,7.2007,7.2007,7.2007,7.2007,7.2007,7.2007,7.2007,7.2007,7.2007,7.2007,7.2007,7.2007,7.2007,7.2163,7.2495,7.302,7.3625,7.4251,7.5637,7.6574,7.7101,7.7101,7.7101,7.7101,7.7101,7.7101,7.7101,7.7101,7.7101,7.7101,7.7101,7.7101,7.7101,7.7101,7.7101,7.7101,0.0,0.0,0.0,0.0,0.0,0.0,0.0,0.0,0.0,0.0,0.0,0.0,0.0,0.0,0.0,0.0,0.0,0.0,5.5708,5.5708,5.5708,5.5708,5.5708,5.5708,5.5708,5.5708,5.5708,5.5708,5.6574,5.7267,5.7805,5.8954,5.9646,5.9935,6.0531,6.0806,6.0806,6.0806,6.0806,6.0806,6.0806,6.0806,0.0,0.0,0.0,0.0,0.0,0.0,0.0,0.0,6.4455,6.5904,6.5904,6.5904,6.5904,6.5904,6.5809,6.5755,6.6031,6.6112,6.6357,6.7343,6.8174,6.858,6.8026,6.8163,6.8082,6.6902,6.6707,6.6718,6.6668,6.6707,6.7284,6.8992,6.9344,7.0017,7.1753,7.2007,7.2007,7.2007,7.2007,7.2007,7.2007,7.2007,7.2007,7.2007,7.2007,7.2007,7.2007,7.2007,7.2007,7.2007,7.2007,7.2007,7.2007,7.2592,7.302,7.3313,7.4466,7.5598,7.6691,7.6965,7.7101,7.7101,7.7101,7.7101,7.7101,7.7101,7.7101,7.7101,7.7101,7.7101,7.7101,7.7101,7.7101,7.7101,0.0,0.0,0.0,0.0,0.0,0.0,0.0,0.0,0.0,0.0,0.0,0.0,0.0,0.0,0.0,0.0,0.0,0.0,5.5708,5.5708,5.5708,5.5708,5.5708,5.5708,5.5708,5.5708,5.5708,5.5708,5.6593,5.7863,5.9492,5.9511,5.9973,6.0806,6.0806,6.0806,6.0806,6.0806,6.0806,6.0806,6.0806,6.0806,6.0806,0.0,0.0,0.0,0.0,0.0,0.0,0.0,6.4455,6.5878,6.5878,6.5878,6.5878,6.5904,6.5379,6.499,6.5871,6.5612,6.551,6.7177,6.7746,6.79,6.789,6.8516,6.8646,6.7115,6.668,6.6644,6.6765,6.6699,6.7213,6.9089,6.9391,7.0017,7.1753,7.2007,7.2007,7.2007,7.2007,7.2007,7.2007,7.2007,7.2007,7.2007,7.2007,7.2007,7.2007,7.2007,7.2007,7.2007,7.2007,7.2007,7.2007,7.2007,7.2436,7.3294,7.3294,7.4173,7.5834,7.6691,7.7082,7.7101,7.7101,7.7101,7.7101,7.7101,7.7101,7.7101,7.7101,7.7101,7.7101,7.7101,7.7101,7.7101,0.0,0.0,0.0,0.0,0.0,0.0,0.0,0.0,0.0,0.0,0.0,0.0,0.0,0.0,0.0,0.0,0.0,0.0,5.5708,5.5708,5.5708,5.5708,5.5708,5.5708,5.5708,5.6305,5.6613,5.6613,5.805,5.9011,5.9511,6.0127,6.055,6.0806,6.0806,6.0806,6.0806,6.0806,6.0806,6.0806,6.0806,6.0806,6.0806,0.0,0.0,0.0,0.0,0.0,0.0,0.0,0.0,0.0,6.4993,6.4993,6.5109,6.5724,6.5742,6.5629,6.5899,6.5954,6.6182,6.7217,6.7685,6.7854,6.7719,6.7972,6.795,6.6887,6.6634,6.6603,6.6653,6.6707,6.7286,6.8971,6.9344,7.0017,7.1753,7.2007,7.2007,7.2007,7.2007,7.2007,7.2007,7.2007,7.2007,7.2007,7.2007,7.2007,7.2007,7.2007,7.2007,7.2007,7.2007,7.2007,7.2007,7.2007,7.2124,7.2397,7.3001,7.4173,7.5814,7.6068,7.6516,7.7101,7.7101,7.7101,7.7101,7.7101,7.7101,7.7101,7.7101,7.7101,7.7101,7.7101,7.7101,7.7101,0.0,0.0,0.0,0.0,0.0,0.0,0.0,0.0,0.0,0.0,5.351,5.3722,0.0,0.0,0.0,0.0,0.0,0.0,0.0,5.5708,5.5708,5.5708,5.5708,5.5862,5.6209,5.7074,5.7671,5.7998,5.9011,5.9685,6.0031,6.055,6.0806,6.0806,6.0806,6.0806,6.0806,6.0806,6.0806,6.0806,6.0806,6.0806,6.0806,0.0,0.0,0.0,0.0,0.0,0.0,0.0,0.0,0.0,6.4179,6.4083,6.4204,6.48,6.4984,6.5064,6.5467,6.564,6.5905,6.6756,6.7074,6.7149,6.7025,6.7203,6.7205,6.6609,6.6483,6.6483,6.6483,6.6507,6.7083,6.8792,6.9142,6.9806,7.1561,7.1794,7.1828,7.1864,7.1888,7.192,7.1986,7.2007,7.2007,7.2007,7.2007,7.2007,7.2007,7.2007,7.2007,7.2007,7.2007,7.2007,7.2007,7.2007,7.2007,7.2007,7.2534,7.349,7.4837,7.5502,7.6088,7.6594,7.6945,7.7101,7.7101,7.7101,7.7101,7.7101,7.7101,7.7101,7.7101,7.7101,7.7101,7.7101,0.0,0.0,0.0,0.0,0.0,0.0,0.0,0.0,0.0,0.0,5.4126,5.4607,0.0,0.0,0.0,0.0,0.0,0.0,0.0,0.0,5.5708,5.5708,5.5708,5.6151,5.7099,5.7896,5.8723,5.9627,5.9627,6.0012,6.0806,6.0806,6.0806,6.0806,6.0806,6.0806,6.0806,6.0806,6.0806,6.0806,6.0806,6.0806,6.0806,6.0806,0.0,0.0,0.0,0.0,0.0,0.0,0.0,0.0,6.3545,6.3256,6.3247,6.3498,6.3573,6.3773,6.4685,6.4872,6.5021,6.594,6.6126,6.6108,6.6108,6.6338,6.6489,6.6318,6.6279,6.6291,6.6291,6.6279,6.682,6.8606,6.8979,6.9601,7.1267,7.1501,7.156,7.1671,7.1694,7.178,7.1954,7.1984,7.2007,7.2007,7.2007,7.2007,7.2007,7.2007,7.2007,7.2007,7.2007,7.2007,7.2007,7.2007,7.2007,7.2007,7.2007,7.2417,7.3235,7.4837,7.5658,7.5834,7.6633,7.7023,7.7101,7.7101,7.7101,7.7101,7.7101,7.7101,7.7101,7.7101,7.7101,7.7101,0.0,0.0,0.0,0.0,0.0,0.0,0.0,0.0,0.0,0.0,0.0,0.0,0.0,0.0,0.0,0.0,0.0,0.0,0.0,0.0,5.5708,5.5708,5.5708,5.6434,5.7992,5.8198,5.9031,6.0512,6.0512,6.0614,6.0806,6.0806,6.0806,6.0806,6.0806,6.0806,6.0806,6.0806,6.0806,6.0806,6.0806,6.0806,6.0806,6.0806,6.1345,0.0,0.0,0.0,0.0,0.0,0.0,0.0,6.3352,6.2878,6.2492,6.3168,6.3353,6.3409,6.3634,6.4231,6.4841,6.5064,6.562,6.6108,6.6108,6.6158,6.6205,6.6143,6.6237,6.6291,6.6291,6.6842,6.7626,6.8719,6.9476,7.0288,7.1345,7.1501,7.1517,7.1533,7.1641,7.1711,7.1753,7.1918,7.2007,7.2007,7.2007,7.2007,7.2007,7.2007,7.2007,7.2007,7.2007,7.2007,7.2007,7.2007,7.2007,0.0,7.2007,7.2104,7.2319,7.3354,7.4564,7.5814,7.601,7.6477,7.7101,7.7101,7.7101,7.7101,7.7101,7.7101,7.7101,7.7101,7.7101,7.7101,0.0,0.0,0.0,0.0,0.0,0.0,0.0,0.0,0.0,0.0,0.0,0.0,0.0,0.0,0.0,0.0,0.0,0.0,0.0,0.0,5.5708,5.5708,5.5708,5.6511,5.8256,5.8294,5.9127,6.0806,6.0806,6.0806,6.0806,6.0806,6.0806,6.0806,6.0806,6.0806,6.0806,6.0806,6.0806,6.0806,6.0806,6.1056,6.1422,6.1422,6.221,6.3345,6.3782,0.0,0.0,0.0,0.0,0.0,0.0,0.0,6.2148,6.2619,6.2996,6.3276,6.3332,6.4326,6.5324,6.5324,6.5671,6.5999,6.5999,6.5999,6.5999,6.5999,6.6104,6.6179,6.6119,6.6795,6.7646,6.8522,6.9387,7.0252,7.1095,7.1211,7.1253,7.1334,7.1415,7.1516,7.1669,7.1791,7.1893,7.1986,7.2007,7.2007,7.2007,7.2007,7.2007,7.2007,7.2007,7.2007,7.2007,7.2007,7.2007,7.2007,7.2007,7.2007,7.2026,7.2903,7.3998,7.519,7.519,7.5442,7.5891,7.6301,7.6477,7.6516,7.6945,7.7101,7.7101,7.7101,7.7101,7.7101,0.0,0.0,0.0,0.0,0.0,0.0,0.0,0.0,0.0,0.0,0.0,0.0,0.0,0.0,0.0,0.0,0.0,0.0,0.0,0.0,0.0,5.5708,5.5843,5.6665,5.828,5.8434,5.9261,6.0806,6.0806,6.0806,6.0806,6.0806,6.0806,6.0806,6.0806,6.0806,6.0806,6.0806,6.0806,6.0806,6.096,6.146,6.212,6.2249,6.3262,6.4609,6.4609,6.5166,6.5788,6.507,0.0,0.0,0.0,0.0,6.2028,6.21,6.2521,6.3021,6.3276,6.4482,6.5654,6.5667,6.5788,6.5904,6.5904,6.5904,6.5904,6.5904,6.599,6.603,6.5922,6.6686,6.7552,6.8276,6.9244,7.0148,7.0802,7.0898,7.0966,7.113,7.1173,7.13,7.1592,7.1656,7.1738,7.1927,7.1951,7.1958,7.2007,7.2007,7.2007,7.2007,7.2007,7.2007,7.2007,7.2007,7.2007,7.2007,7.2007,7.2007,7.2026,7.2748,7.3528,7.429,7.429,7.4369,7.4564,7.5287,7.558,7.5658,7.6379,7.6652,7.6652,7.6652,7.6652,7.6652,0.0,0.0,0.0,0.0,0.0,0.0,0.0,0.0,0.0,0.0,5.5708,5.5708,0.0,0.0,0.0,0.0,0.0,0.0,0.0,0.0,0.0,5.5708,5.642,5.7286,5.8275,5.8973,5.9819,6.0806,6.0806,6.0806,6.0806,6.0806,6.0806,6.0806,6.0806,6.0806,6.0806,6.0806,6.0806,6.0864,6.1614,6.1999,6.2172,6.2878,6.3756,6.4609,6.4609,6.5166,6.5878,6.5763,6.5224,0.0,0.0,0.0,6.1985,6.1889,6.1915,6.2157,6.2919,6.3892,6.4706,6.4769,6.534,6.5904,6.5904,6.5904,6.5904,6.5904,6.591,6.5922,6.591,6.7167,6.8257,6.8372,6.9725,7.0783,7.0879,7.0898,7.0912,7.0933,7.1089,7.1222,7.126,7.1426,7.1584,7.1735,7.1743,7.182,7.1984,7.2007,7.2007,7.2007,7.2007,7.2007,7.2007,7.2007,7.2007,7.2007,7.2007,7.2007,7.2007,7.2124,7.2631,7.3469,7.3469,7.386,7.4505,7.4622,7.4661,7.4681,7.4798,7.4857,7.4857,7.4857,7.4857,7.4857,0.0,0.0,0.0,0.0,0.0,0.0,0.0,0.0,0.0,0.0,0.0,5.5708,0.0,0.0,0.0,0.0,0.0,0.0,0.0,0.0,0.0,5.642,5.7267,5.8127,5.8954,5.9319,5.9935,6.0806,6.0806,6.0806,6.0806,6.0806,6.0806,6.0806,6.0806,6.0806,6.0825,6.1325,6.1537,6.1595,6.2435,6.2762,6.2858,6.3705,6.4282,6.4666,6.5147,6.557,6.5904,6.5904,6.5622,6.5122,6.4206,0.0,0.0,0.0,6.3208,6.3298,6.3762,6.4186,6.452,6.459,6.5263,6.5904,6.5904,6.5904,6.5904,6.5904,6.5904,6.5904,6.5904,6.7263,6.8391,6.8391,6.9814,7.0898,7.0898,7.0898,7.0898,7.0898,7.0973,7.1084,7.1184,7.1284,7.1404,7.1577,7.1591,7.165,7.1822,7.1829,7.189,7.2007,7.2007,7.2007,7.2007,7.2007,7.2007,7.2007,7.2007,7.2007,7.2007,7.2007,7.2202,7.2573,7.2573,7.2768,7.3139,7.3627,7.3821,7.386,7.433,7.4505,7.4505,7.4505,7.4505,7.4505,0.0,0.0,0.0,0.0,0.0,0.0,0.0,0.0,0.0,0.0,0.0,0.0,0.0,0.0,0.0,0.0,0.0,0.0,0.0,0.0,0.0,5.7324,5.8146,5.8896,5.9492,5.9723,6.0146,6.0806,6.0806,6.0806,6.0806,6.0806,6.0806,6.0806,6.0806,6.0921,6.1172,6.1826,6.221,6.246,6.3064,6.3295,6.3372,6.4025,6.4282,6.4378,6.5263,6.557,6.559,6.582,6.5699,6.5313,6.4423,6.4067,0.0,0.0,0.0,6.4556,6.4471,6.4601,6.4736,6.4597,6.5237,6.5878,6.5897,6.5904,6.5904,6.5904,6.5904,6.5904,6.5904,6.7263,6.8391,6.8391,6.9814,7.0898,7.0898,7.0898,7.0898,7.0898,7.0898,7.0966,7.1106,7.1124,7.1206,7.1419,7.1413,7.1493,7.1647,7.1653,7.173,7.1922,7.1924,7.1951,7.2007,7.2007,7.2007,7.2007,7.2007,7.2007,7.2007,7.2007,7.2007,7.2007,7.2007,7.2007,7.2046,7.2709,7.2962,7.302,7.3627,7.3861,7.3861,7.3861,7.3861,7.3861,0.0,0.0,0.0,0.0,0.0,0.0,0.0,0.0,0.0,0.0,0.0,0.0,5.5708,5.5708,5.5708,5.5708,5.5708,0.0,0.0,0.0,0.0,5.8198,5.9011,0.0,5.9492,6.03,6.0748,6.0806,6.0806,6.0806,6.0806,6.0806,6.0806,6.0806,6.0806,6.1268,6.2037,6.2076,6.2531,6.3237,6.3275,6.3295,6.3295,6.3352,6.3372,6.3487,6.4359,6.4666,6.4782,6.5609,6.5301,6.4411,6.3462,6.3113,6.3049,0.0,0.0,0.0,6.4504,6.4877,6.5295,6.4666,6.516,6.5813,6.5885,6.5904,6.5904,6.5904,6.5904,6.5904,6.5904,6.7263,6.8391,6.8391,6.9814,7.0898,7.0898,7.0898,7.0898,7.0898,7.0898,7.0905,7.0919,7.0919,7.0998,7.1195,7.1216,7.129,7.1505,7.1517,7.157,7.1705,7.173,7.1815,7.2007,7.2007,7.2007,7.2007,7.2007,7.2007,7.2007,7.2007,7.2007,7.2007,7.2007,7.2007,7.2007,7.2046,7.2065,7.2065,7.2104,7.2124,7.2124,7.2124,7.2124,7.2124,0.0,0.0,0.0,0.0,0.0,0.0,0.0,0.0,0.0,0.0,0.0,0.0,0.0,5.5708,5.5708,5.5708,5.6209,0.0,0.0,0.0,0.0,5.9069,5.9877,6.0319,6.0319,6.0646,6.0806,6.0806,6.0806,6.0806,6.0806,6.0806,6.0806,6.0806,6.0806,6.0979,6.1306,6.1864,6.2268,6.257,6.3083,6.2993,6.2647,6.3724,6.3474,6.2704,6.4109,6.4243,6.3814,6.4122,6.3956,6.3647,6.3857,6.3864,6.3872,6.4351,6.4936,6.5123,6.3827,6.4461,6.5197,6.3927,6.4645,6.5688,6.5696,6.5702,6.5735,6.582,6.5833,6.5846,6.5891,6.7263,6.8391,6.8391,6.9814,7.0898,7.0898,7.0898,7.0898,7.0898,7.0898,7.0898,7.0898,7.0898,7.092,7.1005,7.1011,7.1108,7.1305,7.1315,7.139,7.1566,7.157,7.1641,7.1815,7.1948,7.2007,7.2007,7.2007,7.2007,7.2007,7.2007,7.2007,7.2007,7.2007,7.2007,7.2007,7.2007,7.2007,7.2007,7.2007,7.2007,7.2007,7.2007,7.2007,7.2007,0.0,0.0,0.0,0.0,0.0,0.0,0.0,0.0,0.0,5.5708,0.0,0.0,0.0,0.0,5.5824,5.6112,5.694,5.78,5.864,5.9204,5.9627,5.9915,6.0492,6.0806,6.0806,6.0806,6.0806,6.0806,6.0806,6.0806,6.0806,6.0806,6.0806,6.0806,6.0806,6.096,6.1268,6.1845,6.2268,6.2531,6.2781,6.257,6.2191,6.3012,6.2627,6.1845,6.3262,6.3397,6.2935,6.3218,6.3047,6.2874,6.3697,6.4073,6.4351,6.5165,6.5394,6.5104,6.376,6.4214,6.481,6.3763,6.4339,6.5247,6.5536,6.5641,6.5694,6.578,6.5813,6.5846,6.5891,6.7032,6.8064,6.8353,6.9584,7.0591,7.086,7.0898,7.0898,7.0898,7.0898,7.0898,7.0898,7.0898,7.0898,7.0898,7.0898,0.0,7.1083,7.1095,7.1184,7.1381,7.1452,7.1536,7.1638,7.1777,7.1848,7.1895,7.1895,7.1927,7.2007,7.2007,7.2007,7.2007,7.2007,7.2007,7.2007,7.2007,7.2007,7.2007,7.2007,7.2007,7.2007,7.2007,7.2007,7.2007,0.0,0.0,0.0,0.0,0.0,0.0,0.0,0.0,5.5708,5.5708,0.0,0.0,0.0,0.0,0.0,5.6959,5.778,5.8607,5.9454,5.9492,5.9896,6.0768,0.0,0.0,6.0806,6.0806,6.0806,6.0806,6.0806,6.0806,6.0806,6.0806,6.0806,6.0806,6.0806,6.1268,6.2062,6.2062,6.2512,6.316,6.2383,6.2062,6.196,6.1152,6.0825,6.0921,6.1787,6.2076,6.2172,6.2948,6.2675,6.2132,6.2899,6.3645,6.4397,6.5173,6.5394,6.5222,0.0,0.0,0.0,6.4248,6.4281,6.4513,6.5369,6.5668,6.5787,6.5787,6.5846,6.5897,6.5904,6.6538,6.734,6.8218,6.9103,6.9975,7.0744,7.0898,7.0898,7.0898,7.0898,7.0898,7.0898,7.0898,7.0898,7.0898,7.0898,7.0898,7.0898,7.0898,7.0985,7.1178,7.1396,7.1492,7.1492,7.1501,7.1562,7.1694,7.1694,7.1791,7.1984,7.1984,7.1986,7.2007,7.2007,7.2007,7.2007,7.2007,7.2007,7.2007,7.2007,7.2007,7.2007,7.2007,7.2007,7.2007,0.0,0.0,0.0,0.0,0.0,0.0,5.5708,5.5708,5.5708,0.0,0.0,0.0,5.6632,5.6632,5.6997,5.7857,5.7574,5.7978,5.9415,5.9492,5.9896,6.0768,6.0806,6.0806,6.0806,6.0806,6.0806,6.0806,6.0806,6.0806,6.0806,6.0806,6.0806,6.0806,6.0806,6.0941,6.1152,6.1152,6.1281,6.1473,6.1248,6.1152,6.121,6.1595,6.1345,6.0921,6.1787,6.1691,6.1191,6.1416,6.172,6.2247,6.3615,6.4548,6.5185,6.5407,6.544,6.5222,6.4428,0.0,0.0,0.0,0.0,0.0,6.4525,6.5075,6.554,6.5634,6.5668,6.5735,6.5859,6.6077,6.6494,6.7321,6.8725,6.9783,6.9994,7.0533,7.0898,7.0898,7.0898,7.0898,7.0898,7.0898,7.0898,0.0,7.0898,7.0898,7.0898,7.0898,7.0932,7.0973,7.1173,7.1289,7.1289,7.1437,7.1525,7.1551,7.1551,7.1651,7.1785,7.1785,7.186,7.2007,7.2007,7.2007,7.2007,7.2007,7.2007,7.2007,7.2007,7.2007,7.2007,7.2007,7.2007,7.2007,0.0,0.0,0.0,0.0,0.0,5.6362,5.6722,5.678,5.678,0.0,0.0,0.0,5.7036,5.7003,5.7209,5.7703,5.7934,5.8459,5.9435,5.9838,6.0262,6.0787,6.0806,6.0806,6.0806,6.0806,6.0806,6.0806,6.0806,6.0998,6.1345,6.1345,6.1345,6.1345,6.1345,6.1133,6.0806,6.0806,6.0806,6.0806,6.0806,6.0806,6.0864,6.1364,6.1248,6.0864,6.1383,6.1229,6.0806,6.0806,6.1335,6.2158,6.3098,6.3895,6.4484,6.4475,6.4432,6.4216,6.3346,6.3128,6.2995,6.249,0.0,0.0,6.356,6.4316,6.496,6.5082,6.5371,6.5655,6.5833,6.5859,6.6013,6.6474,6.7724,6.8744,6.9109,6.9879,7.0398,7.0398,7.0706,7.0898,7.0898,7.0898,7.0898,7.0898,7.0898,7.0898,7.0898,7.0898,7.0898,7.0898,7.0998,7.1059,7.1059,7.1184,7.13,7.1367,7.1367,7.1482,7.17,7.17,7.1818,7.2007,7.2007,7.2007,7.2007,7.2007,7.2007,7.2007,7.2007,7.2007,7.2007,7.2007,7.2007,7.2007,0.0,0.0,5.6228,5.7016,5.7132,5.7401,5.8184,5.8294,5.8294,0.0,5.8377,5.8184,5.7497,5.7349,5.7286,5.7286,5.855,5.9396,5.9492,6.0223,6.071,6.0806,6.0806,6.0806,6.0806,6.0806,6.0806,6.0806,6.0902,6.1345,6.2095,6.2191,6.223,6.223,6.2133,6.1672,6.0941,6.0845,6.0806,6.0806,6.0806,6.0806,6.0806,6.0806,6.0806,6.0806,6.0806,6.0806,6.0806,6.0921,6.1418,6.2023,6.2119,6.2586,6.309,6.3035,6.3001,6.282,6.1984,6.1676,6.1593,6.1593,6.1593,0.0,6.2579,6.3478,6.4161,6.4219,6.4808,6.5346,6.5479,6.5569,6.5607,6.5511,6.6326,6.7257,6.8122,6.9007,6.9571,6.9571,7.0187,7.0629,7.0629,7.0706,7.0764,7.0764,7.0841,7.0898,7.0898,7.0898,7.0898,7.0898,7.0898,7.0898,7.0898,7.0898,7.0985,7.1175,7.1175,7.1339,7.164,7.1674,7.1782,7.1979,7.1984,7.2007,7.2007,7.2007,7.2007,7.2007,7.2007,7.2007,7.2007,7.2007,7.2007,7.2007,0.0,5.78,5.7857,5.803,5.805,5.8107,5.828,5.8294,5.8294,5.8294,5.8858,5.9473,5.9998,5.9435,5.9011,5.9011,5.8723,5.8819,5.9454,5.9665,6.0069,6.0762,6.0806,6.0806,6.0806,6.0806,6.0806,6.0806,6.1499,6.1922,6.2114,6.2762,6.3064,6.3051,6.2383,6.1999,6.1806,6.1095,6.0806,6.0806,6.0806,6.0806,6.0806,6.0806,6.0806,6.0806,6.0806,6.0806,6.0921,6.1614,6.1954,6.2192,6.2834,6.3117,6.3182,6.3169,6.3083,6.2968,6.2781,6.2177,6.1593,6.1593,6.1593,0.0,6.1803,6.2536,6.3184,6.3262,6.3398,6.3533,6.3615,6.4197,6.4446,6.3737,6.4986,6.6352,6.7237,6.8109,6.8641,6.8641,6.8795,6.8891,6.8891,6.9526,6.9937,6.9937,7.0533,7.0898,7.0898,7.0898,7.0898,7.0898,7.0898,7.0898,7.0898,7.0898,7.0925,7.0966,7.0966,7.1077,7.1291,7.1469,7.1615,7.1777,7.1925,7.2007,7.2007,7.2007,7.2007,7.2007,7.2007,7.2007,7.2007,7.2007,7.2007,7.2007,5.8294,5.8294,5.8429,5.8833,5.8896,5.905,5.9473,5.955,5.955,5.955,5.9511,5.9665,6.0108,5.9396,5.8896,5.8896,5.8896,5.9069,5.9473,5.9915,6.0339,6.0787,6.0806,6.0806,6.0806,6.0806,6.0806,6.0806,6.1248,6.1672,6.2114,6.2518,6.2704,6.2685,6.2287,6.1864,6.1422,6.0998,6.0806,6.0806,6.0806,6.0806,6.0806,6.0806,6.0806,6.0806,6.0806,6.0806,6.0864,6.1306,6.1441,6.1518,6.1935,6.2026,6.1996,6.1965,6.1883,6.1797,6.1797,6.1409,0.0,6.1049,0.0,0.0,0.0,6.165,6.2283,6.2387,6.2691,6.2971,6.3035,6.3413,6.3566,6.3126,6.423,6.516,6.5154,6.6647,6.7744,6.7744,6.8141,6.8391,6.8391,6.8795,6.9045,6.9045,6.9436,6.9648,6.9648,7.0071,7.0302,7.0302,7.0687,7.0898,7.0898,7.0898,7.0898,7.0898,7.0898,7.1011,7.12,7.129,7.1474,7.1705,7.1815,7.1918,7.2007,7.2007,7.2007,7.2007,7.2007,7.2007,7.2007,7.2007,7.2007,7.2007,5.8797,5.8786,5.8992,5.9646,5.9742,5.9992,6.0691,6.0806,6.0806,6.0806,6.0196,5.9754,5.9742,5.9177,5.8792,5.8781,5.9377,5.9742,5.9742,6.0416,6.0806,6.0806,6.0806,6.0806,6.0806,6.0806,6.0806,6.0806,6.0979,6.1402,6.2095,6.2268,6.2326,6.2326,6.2172,6.171,6.1037,6.0864,6.0806,6.0806,6.0806,6.0806,6.0806,6.0806,6.0806,6.0806,6.0806,6.0806,6.0806,6.0806,6.0806,6.0806,6.0806,6.0806,6.0794,6.0747,6.066,6.0623,0.0,0.0,0.0,0.0,0.0,6.0417,0.0,0.0,0.0,6.1512,6.1998,6.2429,6.25,6.2628,6.2679,6.2526,6.3466,6.3917,6.3054,6.4891,6.6346,6.6359,6.7282,6.7853,6.768,6.7949,6.8218,6.8391,6.8391,6.8391,6.8391,6.9064,6.9456,6.9456,7.009,7.0494,7.0667,7.0667,7.0744,7.0898,7.0898,7.0979,7.1147,7.1173,7.1348,7.1609,7.1634,7.177,7.193,7.193,7.1977,7.2007,7.2007,7.2007,7.2007,7.2007,7.2007,7.2007,6.0591,6.0552,6.0531,6.0633,6.0646,6.0691,6.0787,6.0806,6.0806,6.0806,6.0769,6.0723,6.0658,6.0615,6.0569,6.0517,6.0589,6.0646,6.0646,6.0748,6.0806,6.0806,6.0806,6.0806,6.0806,6.0806,6.0806,6.0806,6.1575,6.1999,6.212,6.2839,6.316,6.3121,6.2422,6.2056,6.1903,6.1133,6.0806,6.0806,6.0806,6.0806,6.0806,6.0806,6.0806,6.0806,6.0806,6.0806,6.0806,0.0,6.0806,6.0806,0.0,6.0806,6.08,6.0794,6.0734,0.0,0.0,0.0,0.0,0.0,6.0492,0.0,0.0,0.0,6.053,6.0563,0.0,6.0683,6.0697,0.0,0.0,6.0811,6.2086,6.2887,6.2064,6.2925,6.3681,6.3712,6.5186,6.5878,6.5109,6.6378,6.7571,6.8334,6.8391,6.8391,6.8391,6.8487,6.8545,6.8545,6.8641,6.9045,6.984,6.984,7.0187,7.0898,7.0898,7.0919,7.0933,7.1118,7.1222,7.1265,7.1443,7.1601,7.174,7.174,7.1831,7.2007,7.2007,7.2007,7.2007,7.2007,7.2007,7.2007,6.0963,6.0942,6.0927,6.0927,6.0927,6.0885,6.0804,6.0806,6.0979,6.1499,6.158,6.1753,6.2204,6.1863,6.1586,6.1562,6.1095,6.0806,6.0806,6.0806,6.0806,6.0806,6.0806,6.0806,6.0806,6.0806,6.0806,6.0806,6.1172,6.1345,6.1345,6.1685,6.1858,6.1839,6.1499,6.1345,6.1325,6.096,6.0806,6.0806,6.0806,6.0806,6.0806,6.0806,6.0806,6.0806,6.0806,6.0806,6.0806,0.0,6.0806,0.0,0.0,0.0,0.0,6.0806,0.0,0.0,0.0,0.0,0.0,0.0,0.0,0.0,6.0472,0.0,6.0444,0.0,0.0,0.0,0.0,0.0,0.0,0.0,6.1472,6.1998,6.1156,6.2292,6.3214,6.3239,0.0,0.0,6.4589,6.5686,6.6551,6.6917,6.6955,6.6955,6.6955,6.7398,6.7648,6.7648,6.8141,6.8584,6.893,6.8949,6.9379,7.0206,7.0206,7.0456,7.0905,7.0985,7.1083,7.12,7.1295,7.147,7.17,7.17,7.1822,7.2007,7.2007,7.2007,7.2007,7.2007,7.2007,7.2007,6.1155,6.1094,6.1064,6.1077,6.1068,6.1093,6.1205,6.1211,6.1502,6.2361,6.2471,6.258,6.2959,6.2477,6.2021,6.1797,6.1195,6.0829,6.0829,6.0812,6.0806,6.0806,6.0806,6.0806,6.0806,6.0806,6.0806,6.0806,6.0806,6.0806,6.0806,6.0806,6.0806,6.0806,6.0806,6.0806,6.0806,6.0806,6.0806,6.0806,6.0806,6.0806,6.0806,6.0806,6.0806,6.0806,6.0806,6.0806,6.0806,6.0806,6.0806,0.0,6.0806,6.0806,6.0806,0.0,0.0,0.0,6.0794,0.0,0.0,0.0,0.0,0.0,0.0,0.0,0.0,0.0,0.0,0.0,0.0,0.0,6.0424,6.0424,0.0,6.1247,6.0621,6.1672,6.2516,6.2516,0.0,0.0,0.0,6.5032,6.5532,6.5532,0.0,6.5904,6.5904,6.6442,6.6769,6.6769,6.7378,6.7814,6.8045,6.8045,6.8475,6.9334,6.9334,6.9763,7.0571,7.0571,7.0761,7.1112,7.1112,7.1286,7.1552,7.1552,7.1694,7.1922,7.1922,7.1953,7.2007,7.2007,7.2007,7.2007,6.1452,6.1333,6.1213,6.1285,6.1242,6.1438,6.2138,6.2245,6.2519,6.3265,6.3357,6.3068,6.2317,6.2208,6.1852,6.1007,6.0905,6.0905,6.0905,6.0835,6.0806,6.0806,6.0806,6.0806,6.0806,6.0806,6.0806,6.0806,6.0806,6.0806,6.0806,6.0806,6.0806,6.0806,6.0806,6.0806,6.0806,6.0806,6.0806,6.0806,6.0806,6.0806,6.0806,0.0,6.0806,6.0806,6.0806,0.0,0.0,6.0806,6.0806,0.0,0.0,0.0,0.0,0.0,0.0,0.0,0.0,0.0,0.0,6.0729,0.0,0.0,0.0,0.0,6.0597,0.0,0.0,0.0,6.0499,6.0499,6.0499,6.0499,6.0571,0.0,0.0,6.0706,6.0787,6.0787,6.1578,0.0,0.0,6.4122,6.4647,0.0,6.5416,0.0,6.5904,6.5923,6.5936,6.5936,6.5981,6.6346,6.7135,6.7135,6.7571,6.8449,6.8449,6.8891,6.9744,6.9744,7.0174,7.0912,7.0912,7.1036,7.1216,7.1216,7.14,7.1705,7.1705,7.1826,7.2007,7.2007,7.2007,7.2007,6.1624,6.1581,6.1519,6.1441,6.1404,6.1596,6.2209,6.235,6.264,6.3429,6.3067,6.2866,6.3215,6.2693,6.2219,6.1915,6.1319,6.0949,6.0891,6.0869,6.0846,6.0806,6.0806,6.0806,6.0806,6.0806,6.0806,6.0806,6.0806,6.0806,6.0806,6.0806,6.0806,6.0806,6.0806,6.0806,6.0806,6.0806,6.0806,6.0806,6.0806,6.0806,6.0806,0.0,6.0806,6.0806,6.0806,6.0806,0.0,6.0806,6.0806,6.0806,6.0806,6.0806,6.0806,6.0806,6.0806,0.0,0.0,0.0,6.08,6.0777,0.0,0.0,0.0,0.0,0.0,0.0,0.0,0.0,0.0,6.0565,6.0565,6.0565,6.0584,6.0597,0.0,6.0667,6.0729,6.0771,6.1564,6.221,0.0,0.0,0.0,0.0,6.5416,0.0,6.5904,6.5904,6.5904,6.5904,6.5904,6.6038,6.6308,6.6308,6.6724,6.7532,6.7532,6.7994,6.8834,6.8834,6.9295,7.011,7.011,7.0516,7.1195,7.1195,7.1349,7.1577,7.1668,7.1743,7.182,7.1953,7.2007,7.2007,6.1692,6.1705,6.167,6.1597,6.1563,6.1861,6.2697,6.2901,6.322,6.3968,6.3653,6.3365,6.3365,6.2834,6.2346,6.2,6.142,6.1021,6.0949,6.1172,6.1171,6.0825,6.1095,6.1114,6.0806,6.0806,6.0806,6.0806,6.0806,6.0806,6.0806,6.0806,6.0806,6.0806,6.0806,6.0806,6.0806,6.0806,6.0806,6.0806,6.0806,6.0806,0.0,0.0,6.0806,6.0806,0.0,6.0806,6.0806,6.0806,6.0806,6.0806,6.0806,6.0806,6.0806,6.0806,6.0806,6.0806,6.0806,6.0806,0.0,6.0806,6.0806,0.0,6.0753,0.0,0.0,0.0,0.0,0.0,0.0,0.0,0.0,6.0642,6.0661,6.0673,0.0,6.0717,6.074,6.08,6.1306,6.1768,6.2076,6.3076,6.3955,6.457,6.5128,6.557,0.0,0.0,6.5904,6.5904,6.5904,6.5904,6.5904,6.5904,6.6154,6.6673,6.6673,6.7109,6.7936,6.7936,6.8417,6.9244,6.9571,7.008,7.0683,7.0986,7.1211,7.1404,7.1577,7.1662,7.1716,7.1925,7.2007,7.2007,6.1705,6.1738,6.1761,6.1754,6.1805,6.2299,6.3653,6.3951,6.4207,6.4779,6.4902,6.4326,6.2727,6.256,6.2175,6.129,6.1248,6.121,6.1066,6.1764,6.1805,6.096,6.1672,6.171,6.0883,6.0825,6.0806,6.0806,6.0806,6.0806,6.0806,6.0806,6.0806,6.0806,6.0806,6.0806,6.0806,6.0806,6.0806,6.0806,6.0806,6.0806,6.0806,6.0806,6.0806,6.0806,6.0806,6.0806,6.0806,6.0806,6.0806,6.0806,6.0806,6.0806,6.0806,6.0806,6.0806,6.0806,6.0806,6.0806,6.0806,6.0806,0.0,0.0,0.0,0.0,6.0806,0.0,0.0,0.0,0.0,0.0,0.0,6.0697,6.0765,6.0806,6.0806,6.0806,6.0806,6.0806,6.0845,6.1172,6.196,6.2114,6.2826,6.4416,6.4589,6.4974,0.0,0.0,6.5865,6.5904,6.5904,6.5904,6.5904,6.5904,6.5904,6.5904,6.5904,6.6308,6.7039,6.7039,6.7513,6.8372,6.9206,6.961,6.9706,7.0514,7.094,7.1142,7.1395,7.1577,7.1716,7.1925,7.2007,7.2007,6.1695,6.2214,6.2678,6.2662,6.3206,6.392,6.4777,6.4432,6.4107,6.4213,6.321,6.2349,6.1976,6.1792,6.1602,6.1362,6.1901,6.2147,6.1901,6.2767,6.3104,6.2678,6.2306,6.1999,6.1768,6.1133,6.0806,6.0806,6.0806,6.0806,6.0806,6.0806,6.0806,6.0806,6.0806,6.0806,6.0806,6.0806,6.0806,6.0806,6.0806,6.0806,6.0806,0.0,6.0806,6.0806,6.0806,6.0806,6.0806,6.0806,6.0806,6.0806,6.0806,6.0806,6.0806,6.0806,6.0806,6.0806,6.0806,6.0806,6.0806,6.0806,6.0806,6.0806,0.0,0.0,0.0,0.0,0.0,0.0,0.0,0.0,0.0,6.0763,6.0794,6.0806,6.0806,6.0806,6.0806,6.0806,6.1364,6.1595,6.1172,6.2262,6.316,6.3602,6.4224,6.4974,6.5846,0.0,0.0,6.5878,6.5904,6.5904,6.5904,6.5904,6.5904,6.5904,6.5904,6.6019,6.6211,6.6211,6.6654,6.7455,6.7673,6.8148,6.8795,6.9667,7.0034,7.017,7.0963,7.1453,7.1716,7.1925,7.2007,7.1982,6.1698,6.2392,6.3243,6.4004,6.4223,6.4403,6.4694,6.4757,6.4556,6.3994,6.3257,6.2636,6.2228,6.1748,6.1586,6.1941,6.2362,6.2645,6.2755,6.3676,6.3942,6.3332,6.3224,6.2845,6.212,6.1614,6.1172,6.0806,6.0806,6.0806,6.0806,6.0806,6.0806,6.0806,6.0806,6.0806,6.0806,6.0806,6.0806,6.0806,6.0806,6.0806,0.0,6.0806,6.0806,6.0806,6.0806,6.0806,6.0806,6.0806,6.0806,6.0806,6.0806,6.0806,6.0806,6.0806,6.0806,6.0806,6.0806,6.0806,6.0806,6.0806,6.0806,6.0806,6.0806,6.0806,6.0806,0.0,0.0,0.0,0.0,0.0,0.0,6.0806,6.0806,6.0806,0.0,6.0806,6.0806,6.0806,6.1229,6.1345,6.0845,6.232,6.3295,6.3295,6.3756,6.4256,0.0,0.0,0.0,6.532,6.5705,6.5904,6.5904,6.5904,6.5904,6.5904,6.5904,6.5904,6.5904,6.5904,6.6154,6.6596,6.6942,6.7385,6.7898,6.8776,6.9353,6.979,7.0815,7.1362,7.1625,7.1739,7.1828,7.1862,6.1798,6.2604,6.3767,6.5298,6.4921,6.4331,6.4086,6.4738,6.4873,6.3831,6.3844,6.3632,6.2743,6.2068,6.1964,6.2657,6.2872,6.3169,6.3642,6.458,6.4657,6.3678,6.4256,6.3858,6.2287,6.2153,6.1672,6.0806,6.0806,6.0806,6.0806,6.0806,6.0806,6.0806,6.0806,6.0806,6.0806,6.0806,6.0806,6.0806,6.0806,6.0806,6.0806,6.0806,6.0806,6.0806,6.0806,6.0806,6.0806,6.0806,6.0806,6.0806,6.0806,6.0806,6.0806,6.0806,6.0806,6.0806,6.0806,6.0806,6.0806,6.0806,6.0806,6.0806,6.0806,6.0806,6.0806,6.0806,6.0806,6.0806,0.0,0.0,0.0,6.0806,0.0,0.0,0.0,6.0806,6.0806,6.0806,6.0902,0.0,6.0806,6.2224,6.3141,6.3141,6.3141,0.0,0.0,0.0,0.0,6.4762,6.5513,6.5904,6.5904,0.0,6.5904,6.5904,6.5904,6.5904,6.5904,6.5904,6.5904,6.5936,6.6635,6.6942,6.7019,6.7878,6.8814,6.979,7.068,7.1218,7.1452,7.1492,7.1559,7.1668,6.2259,6.3648,6.4869,6.528,6.5234,6.4939,6.4347,6.3792,6.3381,6.3161,6.2576,6.2097,6.1916,6.235,6.2684,6.2789,6.4093,6.4843,6.4671,6.558,6.5922,6.5461,6.4897,6.4128,6.3102,6.2441,6.1672,0.0,0.0,6.0806,6.0806,6.0806,6.0806,6.0806,6.0806,6.0806,6.0806,6.0806,0.0,6.0806,6.0806,6.0806,6.0806,6.0806,6.0806,6.0806,6.0806,6.0806,6.0806,6.0806,6.0806,6.0806,6.0806,6.0806,6.0806,6.0806,6.0806,6.0806,6.0806,6.0806,6.0806,6.0806,6.0806,6.0806,6.0806,6.0806,6.0806,6.0806,6.0806,6.0806,6.0806,0.0,0.0,0.0,0.0,0.0,0.0,0.0,6.0806,6.0806,6.1422,6.1595,0.0,6.1729,6.2306,6.2306,6.2306,0.0,0.0,0.0,0.0,0.0,6.582,0.0,0.0,0.0,6.5904,6.5904,6.5904,6.5904,6.5904,6.5904,6.5904,6.5904,6.6058,6.6109,6.6167,6.7,6.8263,6.9732,7.0023,7.0583,7.1279,7.1445,7.1408,7.13,6.3703,6.452,6.5141,6.5285,6.4933,6.4393,6.3734,6.2883,6.2468,6.2843,6.2588,6.2338,6.2224,6.26,6.3011,6.3448,6.4559,6.534,6.5551,6.5982,6.6133,6.5903,6.5493,6.4647,6.3333,6.2916,6.2089,6.0806,0.0,0.0,6.0806,6.0806,6.0806,6.0806,6.0806,6.0806,6.0806,0.0,0.0,6.0806,6.0806,6.0806,6.0806,6.0806,6.0806,6.0806,6.0806,6.0806,6.0806,6.0806,6.0806,6.0806,6.0806,6.0806,6.0806,6.0806,6.0853,6.0906,6.0906,6.0954,6.1016,6.1016,6.1016,6.1016,6.1016,6.1016,6.0988,6.0913,6.0906,6.0869,6.0804,6.0806,0.0,0.0,0.0,0.0,0.0,0.0,6.0806,6.0806,6.1172,6.1268,6.0845,0.0,6.1614,6.2082,6.2095,0.0,0.0,0.0,0.0,0.0,0.0,0.0,0.0,0.0,0.0,6.5904,6.5904,6.5904,6.5904,6.5904,6.5904,6.5904,6.5904,6.5904,6.5961,6.6769,6.7859,6.9084,6.9585,7.0309,7.1054,7.1158,7.113,7.1078,6.4679,6.4928,6.5038,6.5029,6.431,6.3564,6.3064,6.2235,6.1875,6.248,6.2619,6.2637,6.2476,6.2664,6.3158,6.4008,6.4735,6.5433,6.6128,6.6124,6.6038,6.591,6.5724,6.4897,6.3333,6.3121,6.232,0.0,0.0,0.0,0.0,0.0,6.0806,6.0806,0.0,0.0,0.0,0.0,6.0806,6.0806,6.0806,6.0806,6.0806,6.0806,6.0806,6.0806,6.0806,6.0806,6.0806,6.0806,6.0806,6.0806,6.0806,6.0806,6.0812,6.0825,6.0927,6.1007,6.1033,6.1108,6.1209,6.1209,6.1209,6.1209,6.1209,6.1209,6.1173,6.1053,6.1042,6.1016,6.0892,6.0856,0.0,0.0,0.0,0.0,0.0,0.0,6.0806,6.0806,6.0806,6.0864,6.1056,0.0,0.0,0.0,0.0,0.0,6.3256,0.0,0.0,0.0,0.0,6.5609,6.5609,0.0,6.5904,0.0,6.5904,6.5904,6.5904,6.5904,6.5904,6.5904,6.5904,6.5904,6.5961,6.6577,6.734,6.8199,6.909,6.9917,7.0667,7.0841,7.0898,7.0946,6.3863,6.4332,6.4686,6.4203,6.3453,6.2904,6.2916,6.2117,6.1564,6.1696,6.1662,6.1668,6.1697,6.2364,6.3129,6.394,6.4793,6.5514,6.6066,6.61,6.6042,6.5916,6.5147,6.4282,6.3314,6.2589,6.1749,0.0,0.0,6.0806,0.0,0.0,0.0,0.0,0.0,0.0,0.0,6.0806,6.0806,6.0806,6.0806,6.0806,6.0806,6.0806,6.0806,6.0806,6.0806,6.0806,6.0806,6.0806,6.0806,6.0806,6.0806,6.0806,6.0827,6.0953,6.0983,6.1039,6.1147,6.1199,6.1209,6.1209,6.1209,6.1209,6.1209,6.1209,6.1206,6.1172,6.1188,6.1184,6.117,6.1053,6.0969,0.0,0.0,0.0,0.0,0.0,6.0806,6.0806,6.0806,6.1114,6.1903,6.1268,0.0,0.0,6.2518,0.0,0.0,0.0,0.0,6.457,0.0,6.4724,6.4724,6.5513,6.5904,6.5904,6.5904,6.5904,6.5904,6.5904,6.5904,6.5904,6.5904,6.5904,6.5904,6.5981,6.65,6.7301,6.8186,6.9045,6.9898,7.0629,7.0898,7.0905,6.369,6.3864,6.3853,6.3106,6.2717,6.2374,0.0,6.1627,6.1366,6.1301,6.1427,6.1482,6.142,6.2245,6.2893,6.3133,6.4328,6.5125,6.5311,6.5732,6.573,6.5134,6.4782,6.3974,6.2608,6.2268,6.1672,0.0,0.0,0.0,0.0,0.0,0.0,0.0,0.0,6.0806,6.0806,6.0806,6.0806,6.0806,6.0806,6.0806,6.0806,6.0806,6.0806,6.0806,6.0806,6.0806,6.0806,6.0806,6.0806,6.0806,6.0806,6.0806,6.0804,6.0861,6.0993,6.1124,6.1192,6.1345,6.15,6.15,6.15,6.15,6.15,6.15,6.1482,6.1401,6.1289,6.1209,6.1209,6.1091,6.0997,0.0,0.0,0.0,0.0,0.0,0.0,6.0806,0.0,6.171,6.2082,6.1787,0.0,0.0,0.0,0.0,0.0,0.0,0.0,6.4589,0.0,6.5378,6.5378,6.5731,6.5904,6.5904,6.5904,6.5904,6.5904,6.5904,6.5904,6.5904,6.5904,6.5904,6.5904,6.5904,6.6365,6.7135,6.7475,6.8475,6.9744,7.0052,7.0494,7.0898,6.3269,6.3221,6.2964,0.0,6.2016,6.1838,6.1311,6.122,6.1181,6.1066,6.1218,6.1313,6.1245,6.1862,6.2341,6.2489,6.3514,6.4208,6.4358,6.4846,6.4859,6.4237,6.3993,0.0,6.2133,6.1845,6.1422,6.0806,6.0806,0.0,0.0,0.0,0.0,0.0,6.0806,6.0806,6.0806,6.0806,6.0806,6.0806,6.0806,6.0806,6.0806,6.0806,6.0806,6.0806,6.0806,6.0806,6.0806,6.0806,6.0806,6.0806,6.0806,6.0806,6.0818,6.0847,6.0993,6.1147,6.1195,6.1362,6.157,6.163,6.16,6.1576,6.1672,6.1667,6.1626,6.1576,6.1459,6.1345,6.1345,6.1196,6.1068,6.1068,0.0,0.0,0.0,6.0806,0.0,6.0806,6.1345,6.1903,6.2403,6.223,0.0,0.0,0.0,0.0,0.0,0.0,0.0,0.0,0.0,0.0,0.0,6.5763,6.5904,6.5904,6.5904,6.5904,6.5904,6.5904,6.5904,6.5904,6.5904,6.5904,6.5904,6.5904,6.6224,6.6769,6.7019,6.8013,6.9353,6.961,7.0206,7.0898,6.2447,6.232,6.2103,6.1428,6.1303,6.1259,6.1112,6.1051,6.0973,6.0905,6.0968,6.1025,6.1098,6.1058,6.1374,6.224,6.2312,6.2609,6.3274,6.3333,6.3333,0.0,0.0,6.212,6.2095,6.1268,6.0806,6.0806,0.0,0.0,6.0806,0.0,6.0806,6.0806,6.0806,6.0806,6.0806,6.0806,6.0806,6.0806,6.0806,6.0806,6.0806,6.0806,6.0806,6.0806,6.0806,6.0806,6.0806,6.0806,6.0806,6.0806,6.0806,6.0806,6.0833,6.0954,6.0997,6.1024,6.1166,6.1193,6.125,6.1446,6.135,6.1285,6.1615,6.1593,6.1537,6.1667,6.1697,6.1697,6.1697,6.1415,6.1206,6.1206,0.0,0.0,0.0,0.0,0.0,6.0806,6.0806,6.1473,6.3121,6.257,0.0,0.0,0.0,0.0,0.0,0.0,0.0,6.4609,6.4609,0.0,6.4628,6.5474,6.5904,6.5904,6.5904,6.5904,6.5904,6.5904,6.5904,6.5904,6.5904,6.5904,6.5904,6.5904,6.5904,6.5994,6.6789,6.7648,6.8526,6.9379,7.0206,7.0898,6.1475,6.1407,6.1311,6.1007,6.0959,6.0934,6.0906,6.088,6.0861,6.0821,6.0842,6.0867,6.0888,6.1003,6.1133,0.0,6.186,6.2254,0.0,6.2993,6.3064,6.2518,6.223,6.1826,6.1229,6.0941,6.0806,6.0806,0.0,0.0,0.0,6.0806,6.0806,6.0806,6.0806,6.0806,6.0806,6.0806,6.0806,6.0806,6.0806,6.0806,6.0806,6.0806,6.0806,6.0806,6.0806,6.0806,6.0806,6.0806,6.0806,6.0806,6.0806,6.0806,6.0818,6.0858,6.0928,6.1011,6.1055,6.1124,6.122,6.1285,6.1243,6.1259,6.1506,6.1595,6.1658,6.1696,6.1699,6.1699,6.1699,6.1437,6.1209,6.1209,6.0969,0.0,0.0,0.0,6.1018,6.1614,6.2166,6.2948,6.4083,6.3955,0.0,0.0,0.0,0.0,0.0,0.0,0.0,0.0,6.5186,0.0,6.5493,6.5763,6.5904,6.5904,6.5904,6.5904,6.5904,6.5904,6.5904,6.5904,6.5904,6.5904,6.5904,6.5904,6.5904,6.5923,6.6192,6.6782,6.7628,6.8487,6.9353,7.0167,6.0948,6.0923,6.0896,6.081,6.0806,6.0806,6.0806,6.0806,6.0806,6.0806,6.0806,6.0806,6.0806,6.0915,0.0,6.0869,6.132,6.1616,6.162,6.207,6.2147,6.1633,6.1614,6.1364,6.0806,6.0806,0.0,6.0806,6.0806,6.0806,6.0806,6.0806,6.0806,6.0806,6.0806,6.0806,6.0806,6.0806,6.0806,6.0806,6.0806,6.0806,6.0806,6.0806,6.0806,6.0806,6.0806,6.0806,6.0806,6.0806,6.0806,6.0806,6.0806,6.0806,6.0806,6.0806,6.085,6.0923,6.0923,6.0983,6.1053,6.11,6.1116,6.1196,6.1439,6.1597,6.1699,6.1699,6.1699,6.1699,6.1699,6.1437,6.1209,6.1209,6.0969,6.0806,6.0806,0.0,0.0,0.0,0.0,0.0,0.0,6.4614,6.4749,0.0,0.0,0.0,0.0,0.0,0.0,6.5109,6.5609,0.0,6.5904,6.5904,6.5904,6.5904,6.5904,6.5904,6.5904,6.5904,6.5904,6.5904,6.5904,6.5904,6.5904,6.5904,6.5904,6.5904,6.5904,6.6385,6.7212,6.8084,6.8949,6.9821,6.0806,6.0806,6.0806,0.0,6.0806,0.0,6.0806,6.0806,6.0806,6.0806,6.0806,6.0806,6.0806,6.0806,6.0806,6.0806,0.0,0.0,0.0,6.0806,6.0806,6.0806,6.0806,6.0806,6.0806,6.0806,6.0806,6.0806,6.0806,6.0806,6.0806,6.0806,6.0806,6.0806,6.0806,6.0806,6.0806,6.0806,6.0806,6.0806,6.0806,6.0806,6.0806,6.0806,6.0806,6.0806,6.0806,6.0806,6.0806,6.0806,6.0806,6.0806,6.0806,6.0806,6.0806,6.0806,6.0806,6.0806,6.0806,6.0806,6.0839,6.0949,6.0997,6.1098,6.1423,6.1597,6.1699,6.1699,6.1696,6.1693,6.1693,6.1405,6.1192,6.1192,6.1017,6.0883,6.0883,0.0,0.0,0.0,0.0,0.0,0.0,6.4741,6.5061,0.0,0.0,0.0,0.0,0.0,6.4993,6.5859,6.5904,6.5904,6.5904,6.5904,6.5904,6.5904,6.5904,6.5904,6.5904,6.5904,6.5904,6.5904,6.5904,6.5904,6.5904,6.5904,6.5904,6.5904,6.5904,6.6365,6.7135,6.8064,6.8911,6.9725,0.0,0.0,6.0806,6.0806,6.0806,6.0806,6.0806,6.0806,6.0806,6.0806,6.0806,6.0806,6.0806,6.0806,6.0806,6.0806,6.0806,6.0806,6.0806,6.0806,6.0806,6.0806,6.0806,6.0806,6.0806,6.0806,6.0806,6.0806,6.0806,6.0806,6.0806,6.0806,6.0806,6.0806,6.0806,6.0806,6.0806,6.0806,6.0806,6.0806,6.0806,6.0806,6.0806,6.0806,6.0806,6.0806,6.0806,6.0806,6.0806,6.0806,6.0806,6.0806,6.0806,6.0806,6.0806,6.0806,6.0806,6.0806,6.0806,6.0806,6.0818,6.0836,6.1007,6.1202,6.1441,6.1597,6.1699,6.1699,6.1623,6.1543,6.1543,6.1275,6.1051,6.1051,6.1476,6.1787,6.1787,6.2493,0.0,0.0,6.4198,6.4646,6.5519,6.5608,6.5416,0.0,0.0,0.0,0.0,6.4705,6.4993,6.5859,6.5904,6.5904,6.5904,6.5904,6.5904,6.5904,6.5904,6.5904,6.5904,6.5904,6.5904,6.5904,6.5904,6.5904,6.5904,6.5904,6.5904,6.5904,6.5904,6.6019,6.6365,6.7853,6.8526,6.8911,6.0806,6.0806,6.0806,6.0806,6.0806,6.0806,6.0806,6.0806,6.0806,6.0806,6.0806,6.0806,6.0806,6.0806,6.0806,6.0806,6.0806,6.0806,6.0806,6.0806,6.0806,6.0806,6.0806,6.0806,6.0806,6.0806,6.0806,6.0806,6.0806,6.0806,6.0806,6.0806,6.0806,6.0806,6.0806,6.0806,6.0806,6.0806,6.0806,6.0806,6.0806,6.0806,6.0806,6.0806,6.0806,6.0806,6.0806,6.0806,6.0806,6.0806,6.0806,6.0806,6.0806,6.0806,6.0806,6.0806,6.0806,6.0806,6.0806,6.0806,6.081,6.0877,6.1002,6.114,6.1327,6.1424,6.1463,6.1463,6.14,6.1356,6.1356,6.1481,6.1597,6.1597,6.1882,6.223,6.2595,6.3025,0.0,6.4493,6.4986,6.5415,6.5865,6.5929,6.5743,6.523,0.0,0.0,6.5186,6.5186,6.5416,6.5878,6.5904,6.5904,6.5904,6.5904,6.5904,6.5904,6.5904,6.5904,6.5904,6.5904,6.5904,6.5904,6.5904,6.5904,6.5904,6.5904,6.5904,6.5904,6.5904,6.5904,6.6051,6.7321,6.8064,6.8584,6.0806,6.0806,6.0806,6.0806,6.0806,6.0806,6.0806,6.0806,6.0806,6.0806,6.0806,6.0806,6.0806,6.0806,6.0806,6.0806,6.0806,6.0806,6.0806,6.0806,6.0806,6.0806,6.0806,6.0806,6.0806,6.0806,6.0806,6.0806,6.0806,6.0806,6.0806,6.0806,6.0806,6.0806,6.0806,6.0806,6.0806,6.0806,6.0806,6.0806,6.0806,6.0806,6.0806,6.0806,6.0806,6.0806,6.0806,6.0806,6.0806,6.0806,6.0806,6.0806,6.0806,6.0806,6.0806,6.0806,6.0806,6.0806,6.0806,6.0806,6.0825,6.0969,6.0997,6.1033,6.1173,6.1209,6.1209,6.1209,6.1289,6.1368,6.1368,6.1955,6.2418,6.2283,6.2381,6.2672,6.3218,0.0,6.3968,6.4705,6.5511,6.5966,6.5904,6.5954,6.5966,6.5904,6.5904,6.5904,6.5904,6.5904,6.5904,6.5904,6.5904,6.5904,6.5904,6.5904,6.5904,6.5904,6.5904,6.5904,6.5904,6.5904,6.5904,6.5904,6.5904,6.5904,6.5904,6.5904,6.5904,6.5904,6.5904,6.5904,6.5994,6.6808,6.7648,6.8526,6.0806,6.0806,6.0806,6.0806,6.0806,6.0806,6.0806,6.0806,6.0806,6.0806,6.0806,6.0806,6.0806,6.0806,6.0806,6.0806,6.0806,6.0806,6.0806,6.0806,6.0806,6.0806,6.0806,6.0806,6.0806,6.0806,6.0806,6.0806,6.0806,6.0806,6.0806,6.0806,6.0806,6.0806,6.0806,6.0806,6.0806,6.0806,6.0806,6.0806,6.0806,6.0806,6.0806,6.0806,6.0806,6.0806,6.0806,6.0806,6.0806,6.0806,6.0806,6.0806,6.0806,6.0806,6.0806,6.0806,6.0806,6.0806,6.0806,6.0806,6.0825,6.0969,6.0997,6.1033,6.1173,6.1209,6.1209,6.1209,6.1697,6.2127,6.2127,6.2683,6.2912,6.225,6.3312,6.3993,6.3391,0.0,6.5551,6.5686,6.5833,6.591,6.5904,6.591,6.591,6.5904,6.5904,6.5904,6.5904,6.5904,6.5904,6.5904,6.5904,6.5904,6.5904,6.5904,6.5904,6.5904,6.5904,6.5904,6.5904,6.5904,6.5904,6.5904,6.5904,6.5904,6.5904,6.5904,6.5904,6.5904,6.5904,6.5904,6.5994,6.6808,6.7648,6.8526,6.0806,6.0806,6.0806,6.0806,6.0806,6.0806,6.0806,6.0806,6.0806,6.0806,6.0806,6.0806,6.0806,6.0806,6.0806,6.0806,6.0806,6.0806,6.0806,6.0806,6.0806,6.0806,6.0806,6.0806,6.0806,6.0806,6.0806,6.0806,6.0806,6.0806,6.0806,6.0806,6.0806,6.0806,6.0806,6.0806,6.0806,6.0806,6.0806,6.0806,6.0806,6.0806,6.0806,6.0806,6.0806,6.0806,6.0806,6.0806,6.0806,6.0806,6.0806,6.0806,6.0806,6.0806,6.0806,6.0806,6.0806,6.0806,6.0806,6.0806,6.081,6.0883,6.0885,6.0917,6.0978,6.0983,6.1118,6.1582,6.1967,6.2312,6.275,6.3488,6.3878,6.3518,6.4109,0.0,0.0,6.4993,6.5378,6.5846,6.5904,6.5904,6.5904,6.5904,6.5904,6.5904,6.5904,6.5904,6.5904,6.5904,6.5904,6.5904,6.5904,6.5904,6.5904,6.5904,6.5904,6.5904,6.5904,6.5904,6.5904,6.5904,6.5904,6.5904,6.5904,6.5904,6.5904,6.5904,6.5904,6.5904,6.5904,6.5904,6.5936,6.6327,6.7282,6.8468,6.0806,6.0806,6.0806,6.0806,6.0806,6.0806,6.0806,6.0806,6.0806,6.0806,6.0806,6.0806,6.0806,6.0806,6.0806,6.0806,6.0806,6.0806,6.0806,6.0806,6.0806,6.0806,6.0806,6.0806,6.0806,6.0806,6.0806,6.0806,6.0806,6.0806,6.0806,6.0806,6.0806,6.0806,6.0806,6.0806,6.0806,6.0806,6.0806,6.0806,6.0806,6.0806,6.0806,6.0806,6.0806,6.0806,6.0806,6.0806,6.0806,6.0806,6.0806,6.0806,6.0806,6.0806,6.0806,6.0806,6.0806,6.0806,6.0806,6.0806,6.0806,6.0806,6.0806,6.0806,6.0806,6.0806,6.1056,6.1922,6.2249,6.2627,6.3448,6.4314,6.4839,6.4628,0.0,0.0,0.0,6.5205,6.5147,6.582,6.5904,6.5904,6.5904,6.5904,6.5904,6.5904,6.5904,6.5904,6.5904,6.5904,6.5904,6.5904,6.5904,6.5904,6.5904,6.5904,6.5904,6.5904,6.5904,6.5904,6.5904,6.5904,6.5904,6.5904,6.5904,6.5904,6.5904,6.5904,6.5904,6.5904,6.5904,6.5904,6.5904,6.5904,6.6821,6.8122,6.0806,6.0806,6.0806,6.0806,6.0806,6.0806,6.0806,6.0806,6.0806,6.0806,6.0806,6.0806,6.0806,6.0806,6.0806,6.0806,6.0806,6.0806,6.0806,6.0806,6.0806,6.0806,6.0806,6.0806,6.0806,6.0806,6.0806,6.0806,6.0806,6.0806,6.0806,6.0806,6.0806,6.0806,6.0806,6.0806,6.0806,6.0806,6.0806,6.0806,6.0806,6.0806,6.0806,6.0806,6.0806,6.0806,6.0806,6.0806,6.0806,6.0806,6.0806,6.0806,6.0806,6.0806,6.0806,6.0806,6.0806,6.0806,6.0806,6.0806,6.0806,6.0806,6.0806,6.0806,6.0806,6.0806,6.1056,6.1922,6.2685,6.3487,6.4339,6.5224,6.5532,6.4724,0.0,0.0,6.4801,6.534,6.582,6.5878,6.5904,6.5904,6.5904,6.5904,6.5904,6.5904,6.5904,6.5904,6.5904,6.5904,6.5904,6.5904,6.5904,6.5904,6.5904,6.5904,6.5904,6.5904,6.5904,6.5904,6.5904,6.5904,6.5904,6.5904,6.5904,6.5904,6.5904,6.5904,6.5904,6.5904,6.5904,6.5904,6.5904,6.5904,6.6442,6.7301,6.0806,6.0806,6.0806,6.0806,6.0806,6.0806,6.0806,6.0806,6.0806,6.0806,6.0806,6.0806,6.0806,6.0806,6.0806,6.0806,6.0806,6.0806,6.0806,6.0806,6.0806,6.0806,6.0806,6.0806,6.0806,6.0806,6.0806,6.0806,6.0806,6.0806,6.0806,6.0806,6.0806,6.0806,6.0806,6.0806,6.0806,6.0806,6.0806,6.0806,6.0806,6.0806,6.0806,6.0806,6.0806,6.0806,6.0806,6.0806,6.0806,6.0806,6.0806,6.0806,6.0806,6.0806,6.0806,6.0806,6.0806,6.0806,6.0806,6.0806,6.0806,6.0806,6.0806,6.0806,6.0806,6.0806,6.1191,6.2551,6.3083,6.3737,6.5147,6.5686,6.5788,6.5455,0.0,6.5788,6.5455,6.5686,6.5904,6.5904,6.5904,6.5904,6.5904,6.5904,6.5904,6.5904,6.5904,6.5904,6.5904,6.5904,6.5904,6.5904,6.5904,6.5904,6.5904,6.5904,6.5904,6.5904,6.5904,6.5904,6.5904,6.5904,6.5904,6.5904,6.5904,6.5904,6.5904,6.5904,6.5904,6.5904,6.5904,6.5904,6.5904,6.5904,6.6404,6.7231,6.0806,6.0806,6.0806,6.0806,6.0806,6.0806,6.0806,6.0806,6.0806,6.0806,6.0806,6.0806,6.0806,6.0806,6.0806,6.0806,6.0806,6.0806,6.0806,6.0806,6.0806,6.0806,6.0806,6.0806,6.0806,6.0806,6.0806,6.0806,6.0806,6.0806,6.0806,6.0806,6.0806,6.0806,6.0806,6.0806,6.0806,6.0806,6.0806,6.0806,6.0806,6.0806,6.0806,6.0806,6.0806,6.0806,6.0806,6.0806,6.0806,6.0806,6.0806,6.0806,6.0806,6.0806,6.0806,6.0806,6.0806,6.0806,6.0806,6.0806,6.0806,6.0806,6.0806,6.0806,6.0806,6.0806,6.1281,6.2948,6.3295,6.3833,6.557,6.5904,6.5904,6.5904,6.5904,6.5904,6.5904,6.5904,6.5904,6.5904,6.5904,6.5904,6.5904,6.5904,6.5904,6.5904,6.5904,6.5904,6.5904,6.5904,6.5904,6.5904,6.5904,6.5904,6.5904,6.5904,6.5904,6.5904,6.5904,6.5904,6.5904,6.5904,6.5904,6.5904,6.5904,6.5904,6.5904,6.5904,6.5904,6.5904,6.5904,6.5904,6.5904,6.5904,6.625,6.6846,6.0806,6.0806,6.0806,6.0806,6.0806,6.0806,6.0806,6.0806,6.0806,6.0806,6.0806,6.0806,6.0806,6.0806,6.0806,6.0806,6.0806,6.0806,6.0806,6.0806,6.0806,6.0806,6.0806,6.0806,6.0806,6.0806,6.0806,6.0806,6.0806,6.0806,6.0806,6.0806,6.0806,6.0806,6.0806,6.0806,6.0806,6.0806,6.0806,6.0806,6.0806,6.0806,6.0806,6.0806,6.0806,6.0806,6.0806,6.0806,6.0806,6.0806,6.0806,6.0806,6.0806,6.0806,6.0806,6.0806,6.0806,6.0806,6.0806,6.0806,6.0806,6.0806,6.0806,6.0806,6.0806,6.0806,6.1281,6.2948,6.3295,6.3833,6.557,6.5904,6.5904,6.5904,6.5904,6.5904,6.5904,6.5904,6.5904,6.5904,6.5904,6.5904,6.5904,6.5904,6.5904,6.5904,6.5904,6.5904,6.5904,6.5904,6.5904,6.5904,6.5904,6.5904,6.5904,6.5904,6.5904,6.5904,6.5904,6.5904,6.5904,6.5904,6.5904,6.5904,6.5904,6.5904,6.5904,6.5904,6.5904,6.5904,6.5904,6.5904,6.5904,6.5904,6.5904,6.6019,6.0806,6.0806,6.0806,6.0806,6.0806,6.0806,6.0806,6.0806,6.0806,6.0806,6.0806,6.0806,6.0806,6.0806,6.0806,6.0806,6.0806,6.0806,6.0806,6.0806,6.0806,6.0806,6.0806,6.0806,6.0806,6.0806,6.0806,6.0806,6.0806,6.0806,6.0806,6.0806,6.0806,6.0806,6.0806,6.0806,6.0806,6.0806,6.0806,6.0806,6.0806,6.0806,6.0806,6.0806,6.0806,6.0806,6.0806,6.0806,6.0806,6.0806,6.0806,6.0806,6.0806,6.0806,6.0806,6.0806,6.0806,6.0806,6.0806,6.0806,6.0806,6.0806,6.0806,6.0806,6.0806,6.0806,6.1281,6.2948,6.3295,6.3833,6.557,6.5904,6.5904,6.5904,6.5904,6.5904,6.5904,6.5904,6.5904,6.5904,6.5904,6.5904,6.5904,6.5904,6.5904,6.5904,6.5904,6.5904,6.5904,6.5904,6.5904,6.5904,6.5904,6.5904,6.5904,6.5904,6.5904,6.5904,6.5904,6.5904,6.5904,6.5904,6.5904,6.5904,6.5904,6.5904,6.5904,6.5904,6.5904,6.5904,6.5904,6.5904,6.5904,6.5904,6.5904,6.6019,6.0806,6.0806,6.0806,6.0806,6.0806,6.0806,6.0806,6.0806,6.0806,6.0806,6.0806,6.0806,6.0806,6.0806,6.0806,6.0806,6.0806,6.0806,6.0806,6.0806,6.0806,6.0806,6.0806,6.0806,6.0806,6.0806,6.0806,6.0806,6.0806,6.0806,6.0806,6.0806,6.0806,6.0806,6.0806,6.0806,6.0806,6.0806,6.0806,6.0806,6.0806,6.0806,6.0806,6.0806,6.0806,6.0806,6.0806,6.0806,6.0806,6.0806,6.0806,6.0806,6.0806,6.0806,6.0806,6.0806,6.0806,6.0806,6.0806,6.0806,6.0806,6.0806,6.0806,6.0806,6.0806,6.0806,6.1281,6.2948,6.3295,6.3833,6.557,6.5904,6.5904,6.5904,6.5904,6.5904,6.5904,6.5904,6.5904,6.5904,6.5904,6.5904,6.5904,6.5904,6.5904,6.5904,6.5904,6.5904,6.5904,6.5904,6.5904,6.5904,6.5904,6.5904,6.5904,6.5904,6.5904,6.5904,6.5904,6.5904,6.5904,6.5904,6.5904,6.5904,6.5904,6.5904,6.5904,6.5904,6.5904,6.5904,6.5904,6.5904,6.5904,6.5904,6.5904,6.5981,6.0806,6.0806,6.0806,6.0806,6.0806,6.0806,6.0806,6.0806,6.0806,6.0806,6.0806,6.0806,6.0806,6.0806,6.0806,6.0806,6.0806,6.0806,6.0806,6.0806,6.0806,6.0806,6.0806,6.0806,6.0806,6.0806,6.0806,6.0806,6.0806,6.0806,6.0806,6.0806,6.0806,6.0806,6.0806,6.0806,6.0806,6.0806,6.0806,6.0806,6.0806,6.0806,6.0806,6.0806,6.0806,6.0806,6.0806,6.0806,6.0806,6.0806,6.0806,6.0806,6.0806,6.0806,6.0806,6.0806,6.0806,6.0806,6.0806,6.0806,6.0806,6.0806,6.0806,6.0806,6.0806,6.0806,6.1262,6.2852,6.3256,6.3814,6.5474,6.5846,6.5904,6.5904,6.5904,6.5904,6.5904,6.5904,6.5904,6.5904,6.5904,6.5904,6.5904,6.5904,6.5904,6.5904,6.5904,6.5904,6.5904,6.5904,6.5904,6.5904,6.5904,6.5904,6.5904,6.5904,6.5904,6.5904,6.5904,6.5904,6.5904,6.5904,6.5904,6.5904,6.5904,6.5904,6.5904,6.5904,6.5904,6.5904,6.5904,6.5904,6.5904,6.5904,6.5904,6.5904,6.0806,6.0806,6.0806,6.0806,6.0806,6.0806,6.0806,6.0806,6.0806,6.0806,6.0806,6.0806,6.0806,6.0806,6.0806,6.0806,6.0806,6.0806,6.0806,6.0806,6.0806,6.0806,6.0806,6.0806,6.0806,6.0806,6.0806,6.0806,6.0806,6.0806,6.0806,6.0806,6.0806,6.0806,6.0806,6.0806,6.0806,6.0806,6.0806,6.0806,6.0806,6.0806,6.0806,6.0806,6.0806,6.0806,6.0806,6.0806,6.0806,6.0806,6.0806,6.0806,6.0806,6.0806,6.0806,6.0806,6.0806,6.0806,6.0806,6.0806,6.0806,6.0806,6.0806,6.0806,6.0806,6.0806,6.1095,6.2133,6.2858,6.3622,6.4686,6.5436,6.5904,6.5904,6.5904,6.5904,6.5904,6.5904,6.5904,6.5904,6.5904,6.5904,6.5904,6.5904,6.5904,6.5904,6.5904,6.5904,6.5904,6.5904,6.5904,6.5904,6.5904,6.5904,6.5904,6.5904,6.5904,6.5904,6.5904,6.5904,6.5904,6.5904,6.5904,6.5904,6.5904,6.5904,6.5904,6.5904,6.5904,6.5904,6.5904,6.5904,6.5904,6.5904,6.5904,6.5994,6.0806,6.0806,6.0806,6.0806,6.0806,6.0806,6.0806,6.0806,6.0806,6.0806,6.0806,6.0806,6.0806,6.0806,6.0806,6.0806,6.0806,6.0806,6.0806,6.0806,6.0806,6.0806,6.0806,6.0806,6.0806,6.0806,6.0806,6.0806,6.0806,6.0806,6.0806,6.0806,6.0806,6.0806,6.0806,6.0806,6.0806,6.0806,6.0806,6.0806,6.0806,6.0806,6.0806,6.0806,6.0806,6.0806,6.0806,6.0806,6.0806,6.0806,6.0806,6.0806,6.0806,6.0806,6.0806,6.0806,6.0806,6.0806,6.0806,6.0806,6.0806,6.0806,6.0806,6.0806,6.0806,6.0806,6.1056,6.1922,6.2743,6.3564,6.4436,6.5301,6.5904,6.5904,6.5904,6.5904,6.5904,6.5904,6.5904,6.5904,6.5904,6.5904,6.5904,6.5904,6.5904,6.5904,6.5904,6.5904,6.5904,6.5904,6.5904,6.5904,6.5904,6.5904,6.5904,6.5904,6.5904,6.5904,6.5904,6.5904,6.5904,6.5904,6.5904,6.5904,6.5904,6.5904,6.5904,6.5904,6.5904,6.5904,6.5904,6.5904,6.5904,6.5904,6.5904,6.5961,6.0806,6.0806,6.0806,6.0806,6.0806,6.0806,6.0806,6.0806,6.0806,6.0806,6.0806,6.0806,6.0806,6.0806,6.0806,6.0806,6.0806,6.0806,6.0806,6.0806,6.0806,6.0806,6.0806,6.0806,6.0806,6.0806,6.0806,6.0806,6.0806,6.0806,6.0806,6.0806,6.0806,6.0806,6.0806,6.0806,6.0806,6.0806,6.0806,6.0806,6.0806,6.0806,6.0806,6.0806,6.0806,6.0806,6.0806,6.0806,6.0806,6.0806,6.0806,6.0806,6.0806,6.0806,6.0806,6.0806,6.0806,6.0806,6.0806,6.0806,6.0806,6.0806,6.0806,6.0806,6.0806,6.0806,6.1018,6.1729,6.2531,6.3352,6.4224,6.5089,6.5731,6.5878,6.5904,6.5904,6.5904,6.5904,6.5904,6.5904,6.5904,6.5904,6.5904,6.5904,6.5904,6.5904,6.5904,6.5904,6.5904,6.5904,6.5904,6.5904,6.5904,6.5904,6.5904,6.5904,6.5904,6.5904,6.5904,6.5904,6.5904,6.5904,6.5904,6.5904,6.5904,6.5904,6.5904,6.5904,6.5904,6.5904,6.5904,6.5904,6.5904,6.5904,6.5904,6.5904,6.0806,6.0806,6.0806,6.0806,6.0806,6.0806,6.0806,6.0806,6.0806,6.0806,6.0806,6.0806,6.0806,6.0806,6.0806,6.0806,6.0806,6.0806,6.0806,6.0806,6.0806,6.0806,6.0806,6.0806,6.0806,6.0806,6.0806,6.0806,6.0806,6.0806,6.0806,6.0806,6.0806,6.0806,6.0806,6.0806,6.0806,6.0806,6.0806,6.0806,6.0806,6.0806,6.0806,6.0806,6.0806,6.0806,6.0806,6.0806,6.0806,6.0806,6.0806,6.0806,6.0806,6.0806,6.0806,6.0806,6.0806,6.0806,6.0806,6.0806,6.0806,6.0806,6.0806,6.0806,6.0806,6.0806,6.0819,6.096,6.1652,6.2518,6.3333,6.4179,6.5013,6.5788,6.5904,6.5904,6.5904,6.5904,6.5904,6.5904,6.5904,6.5904,6.5904,6.5904,6.5904,6.5904,6.5904,6.5904,6.5904,6.5904,6.5904,6.5904,6.5904,6.5904,6.5904,6.5904,6.5904,6.5904,6.5904,6.5904,6.5904,6.5904,6.5904,6.5904,6.5904,6.5904,6.5904,6.5904,6.5904,6.5904,6.5904,6.5904,6.5904,6.5904,6.5904,6.5904,6.0806,6.0806,6.0806,6.0806,6.0806,6.0806,6.0806,6.0806,6.0806,6.0806,6.0806,6.0806,6.0806,6.0806,6.0806,6.0806,6.0806,6.0806,6.0806,6.0806,6.0806,6.0806,6.0806,6.0806,6.0806,6.0806,6.0806,6.0806,6.0806,6.0806,6.0806,6.0806,6.0806,6.0806,6.0806,6.0806,6.0806,6.0806,6.0806,6.0806,6.0806,6.0806,6.0806,6.0806,6.0806,6.0806,6.0806,6.0806,6.0806,6.0806,6.0806,6.0806,6.0806,6.0806,6.0806,6.0806,6.0806,6.0806,6.0806,6.0806,6.0806,6.0806,6.0806,6.0806,6.0806,6.0806,6.0806,6.0806,6.1499,6.221,6.2551,6.332,6.4166,6.5032,6.5166,6.534,6.582,6.5904,6.5904,6.5904,6.5904,6.5904,6.5904,6.5904,6.5904,6.5904,6.5904,6.5904,6.5904,6.5904,6.5904,6.5904,6.5904,6.5904,6.5904,6.5904,6.5904,6.5904,6.5904,6.5904,6.5904,6.5904,6.5904,6.5904,6.5904,6.5904,6.5904,6.5904,6.5904,6.5904,6.5904,6.5904,6.5904,6.5904,6.5904,6.5904]}]]